Wetterdaten: Samstag, 08.10.2022
Datum Zeit Temp. 2m Temp +5 cm Feuchte A. Luftdruck Regen Wind Richtung Richtung Sonnenschein UV Solar Taupunkt Windchill Windben
08.10.2022 00:00 7,2 C 4,4 C 87 % 1021,6 hPa 0,0 l/m 3,2 km/h (1 Bft) SW 225 0 min 0,0 UV-I 0 W/m 5,2 C 7,2 C 4,8 km/h (1 Bft)
08.10.2022 00:01 7,2 C 4,4 C 87 % 1021,6 hPa 0,0 l/m 1,6 km/h (1 Bft) SW 225 0 min 0,0 UV-I 0 W/m 5,2 C 7,2 C 3,2 km/h (1 Bft)
08.10.2022 00:02 7,2 C 4,4 C 87 % 1021,7 hPa 0,0 l/m 3,2 km/h (1 Bft) SW 225 0 min 0,0 UV-I 0 W/m 5,2 C 7,2 C 4,8 km/h (1 Bft)
08.10.2022 00:03 7,1 C 3,9 C 87 % 1021,6 hPa 0,0 l/m 3,2 km/h (1 Bft) SW 225 0 min 0,0 UV-I 0 W/m 5,1 C 7,1 C 4,8 km/h (1 Bft)
08.10.2022 00:04 7,0 C 3,9 C 86 % 1021,7 hPa 0,0 l/m 3,2 km/h (1 Bft) SW 225 0 min 0,0 UV-I 0 W/m 4,8 C 7,0 C 4,8 km/h (1 Bft)
08.10.2022 00:05 6,9 C 3,9 C 87 % 1021,7 hPa 0,0 l/m 3,2 km/h (1 Bft) SW 225 0 min 0,0 UV-I 0 W/m 4,9 C 6,9 C 4,8 km/h (1 Bft)
08.10.2022 00:06 6,9 C 3,9 C 87 % 1021,6 hPa 0,0 l/m 3,2 km/h (1 Bft) SW 225 0 min 0,0 UV-I 0 W/m 4,9 C 6,9 C 6,4 km/h (2 Bft)
08.10.2022 00:07 6,9 C 3,9 C 87 % 1021,7 hPa 0,0 l/m 3,2 km/h (1 Bft) SW 225 0 min 0,0 UV-I 0 W/m 4,9 C 6,9 C 4,8 km/h (1 Bft)
08.10.2022 00:08 6,9 C 3,9 C 87 % 1021,6 hPa 0,0 l/m 3,2 km/h (1 Bft) SW 225 0 min 0,0 UV-I 0 W/m 4,9 C 6,9 C 4,8 km/h (1 Bft)
08.10.2022 00:09 6,9 C 3,9 C 87 % 1021,6 hPa 0,0 l/m 3,2 km/h (1 Bft) SW 225 0 min 0,0 UV-I 0 W/m 4,9 C 6,9 C 4,8 km/h (1 Bft)
08.10.2022 00:10 6,8 C 3,9 C 87 % 1021,6 hPa 0,0 l/m 4,8 km/h (1 Bft) S-SW 202 0 min 0,0 UV-I 0 W/m 4,8 C 6,8 C 6,4 km/h (2 Bft)
08.10.2022 00:11 6,8 C 3,9 C 87 % 1021,6 hPa 0,0 l/m 3,2 km/h (1 Bft) S-SW 202 0 min 0,0 UV-I 0 W/m 4,8 C 6,8 C 4,8 km/h (1 Bft)
08.10.2022 00:12 6,8 C 3,9 C 87 % 1021,6 hPa 0,0 l/m 1,6 km/h (1 Bft) S-SW 202 0 min 0,0 UV-I 0 W/m 4,8 C 6,8 C 4,8 km/h (1 Bft)
08.10.2022 00:13 6,8 C 3,9 C 87 % 1021,6 hPa 0,0 l/m 4,8 km/h (1 Bft) SW 225 0 min 0,0 UV-I 0 W/m 4,8 C 6,8 C 6,4 km/h (2 Bft)
08.10.2022 00:14 6,8 C 4,4 C 87 % 1021,5 hPa 0,0 l/m 1,6 km/h (1 Bft) W-SW 247 0 min 0,0 UV-I 0 W/m 4,8 C 6,8 C 4,8 km/h (1 Bft)
08.10.2022 00:15 6,8 C 4,4 C 87 % 1021,6 hPa 0,0 l/m 3,2 km/h (1 Bft) W-SW 247 0 min 0,0 UV-I 0 W/m 4,8 C 6,8 C 4,8 km/h (1 Bft)
08.10.2022 00:16 6,8 C 4,4 C 87 % 1021,6 hPa 0,0 l/m 3,2 km/h (1 Bft) W-SW 247 0 min 0,0 UV-I 0 W/m 4,8 C 6,8 C 4,8 km/h (1 Bft)
08.10.2022 00:17 6,7 C 4,4 C 87 % 1021,6 hPa 0,0 l/m 3,2 km/h (1 Bft) W-SW 247 0 min 0,0 UV-I 0 W/m 4,7 C 6,7 C 4,8 km/h (1 Bft)
08.10.2022 00:18 6,7 C 4,4 C 87 % 1021,5 hPa 0,0 l/m 3,2 km/h (1 Bft) W-SW 247 0 min 0,0 UV-I 0 W/m 4,7 C 6,7 C 4,8 km/h (1 Bft)
08.10.2022 00:19 6,7 C 4,4 C 87 % 1021,5 hPa 0,0 l/m 3,2 km/h (1 Bft) W-SW 247 0 min 0,0 UV-I 0 W/m 4,7 C 6,7 C 4,8 km/h (1 Bft)
08.10.2022 00:20 6,7 C 3,9 C 87 % 1021,6 hPa 0,0 l/m 3,2 km/h (1 Bft) W-SW 247 0 min 0,0 UV-I 0 W/m 4,7 C 6,7 C 4,8 km/h (1 Bft)
08.10.2022 00:21 6,6 C 3,9 C 88 % 1021,5 hPa 0,0 l/m 4,8 km/h (1 Bft) W-SW 247 0 min 0,0 UV-I 0 W/m 4,8 C 6,6 C 6,4 km/h (2 Bft)
08.10.2022 00:22 6,6 C 3,9 C 88 % 1021,5 hPa 0,0 l/m 3,2 km/h (1 Bft) W-SW 247 0 min 0,0 UV-I 0 W/m 4,8 C 6,6 C 4,8 km/h (1 Bft)
08.10.2022 00:23 6,6 C 4,4 C 88 % 1021,5 hPa 0,0 l/m 4,8 km/h (1 Bft) W-SW 247 0 min 0,0 UV-I 0 W/m 4,8 C 6,6 C 6,4 km/h (2 Bft)
08.10.2022 00:24 6,6 C 4,4 C 88 % 1021,6 hPa 0,0 l/m 4,8 km/h (1 Bft) W-SW 247 0 min 0,0 UV-I 0 W/m 4,8 C 6,6 C 6,4 km/h (2 Bft)
08.10.2022 00:25 6,6 C 4,4 C 88 % 1021,5 hPa 0,0 l/m 6,4 km/h (2 Bft) W-SW 247 0 min 0,0 UV-I 0 W/m 4,8 C 6,6 C 8,0 km/h (2 Bft)
08.10.2022 00:26 6,6 C 4,4 C 88 % 1021,5 hPa 0,0 l/m 4,8 km/h (1 Bft) W-SW 247 0 min 0,0 UV-I 0 W/m 4,8 C 6,6 C 8,0 km/h (2 Bft)
08.10.2022 00:27 6,6 C 4,4 C 88 % 1021,5 hPa 0,0 l/m 3,2 km/h (1 Bft) SW 225 0 min 0,0 UV-I 0 W/m 4,8 C 6,6 C 4,8 km/h (1 Bft)
08.10.2022 00:28 6,6 C 4,4 C 88 % 1021,5 hPa 0,0 l/m 4,8 km/h (1 Bft) W-SW 247 0 min 0,0 UV-I 0 W/m 4,8 C 6,6 C 6,4 km/h (2 Bft)
08.10.2022 00:29 6,6 C 4,4 C 88 % 1021,5 hPa 0,0 l/m 4,8 km/h (1 Bft) W-SW 247 0 min 0,0 UV-I 0 W/m 4,8 C 6,6 C 6,4 km/h (2 Bft)
08.10.2022 00:30 6,6 C 4,4 C 88 % 1021,5 hPa 0,0 l/m 4,8 km/h (1 Bft) W-SW 247 0 min 0,0 UV-I 0 W/m 4,8 C 6,6 C 8,0 km/h (2 Bft)
08.10.2022 00:31 6,6 C 4,4 C 88 % 1021,5 hPa 0,0 l/m 3,2 km/h (1 Bft) W-SW 247 0 min 0,0 UV-I 0 W/m 4,8 C 6,6 C 6,4 km/h (2 Bft)
08.10.2022 00:32 6,6 C 3,9 C 88 % 1021,5 hPa 0,0 l/m 3,2 km/h (1 Bft) SW 225 0 min 0,0 UV-I 0 W/m 4,8 C 6,6 C 4,8 km/h (1 Bft)
08.10.2022 00:33 6,6 C 3,9 C 88 % 1021,5 hPa 0,0 l/m 3,2 km/h (1 Bft) SW 225 0 min 0,0 UV-I 0 W/m 4,8 C 6,6 C 6,4 km/h (2 Bft)
08.10.2022 00:34 6,4 C 3,9 C 88 % 1021,5 hPa 0,0 l/m 3,2 km/h (1 Bft) SW 225 0 min 0,0 UV-I 0 W/m 4,6 C 6,4 C 6,4 km/h (2 Bft)
08.10.2022 00:35 6,4 C 3,9 C 88 % 1021,4 hPa 0,0 l/m 3,2 km/h (1 Bft) SW 225 0 min 0,0 UV-I 0 W/m 4,6 C 6,4 C 4,8 km/h (1 Bft)
08.10.2022 00:36 6,3 C 3,9 C 88 % 1021,4 hPa 0,0 l/m 3,2 km/h (1 Bft) SW 225 0 min 0,0 UV-I 0 W/m 4,5 C 6,3 C 4,8 km/h (1 Bft)
08.10.2022 00:37 6,3 C 3,9 C 88 % 1021,4 hPa 0,0 l/m 4,8 km/h (1 Bft) SW 225 0 min 0,0 UV-I 0 W/m 4,5 C 6,3 C 6,4 km/h (2 Bft)
08.10.2022 00:38 6,3 C 3,9 C 88 % 1021,4 hPa 0,0 l/m 3,2 km/h (1 Bft) SW 225 0 min 0,0 UV-I 0 W/m 4,5 C 6,3 C 4,8 km/h (1 Bft)
08.10.2022 00:39 6,3 C 3,3 C 89 % 1021,3 hPa 0,0 l/m 6,4 km/h (2 Bft) SW 225 0 min 0,0 UV-I 0 W/m 4,6 C 6,3 C 8,0 km/h (2 Bft)
08.10.2022 00:40 6,4 C 3,9 C 89 % 1021,3 hPa 0,0 l/m 4,8 km/h (1 Bft) W-SW 247 0 min 0,0 UV-I 0 W/m 4,7 C 6,4 C 6,4 km/h (2 Bft)
08.10.2022 00:41 6,4 C 3,9 C 89 % 1021,4 hPa 0,0 l/m 4,8 km/h (1 Bft) SW 225 0 min 0,0 UV-I 0 W/m 4,7 C 6,4 C 6,4 km/h (2 Bft)
08.10.2022 00:42 6,4 C 3,9 C 89 % 1021,3 hPa 0,0 l/m 4,8 km/h (1 Bft) SW 225 0 min 0,0 UV-I 0 W/m 4,7 C 6,4 C 6,4 km/h (2 Bft)
08.10.2022 00:43 6,5 C 3,9 C 89 % 1021,3 hPa 0,0 l/m 3,2 km/h (1 Bft) SW 225 0 min 0,0 UV-I 0 W/m 4,8 C 6,5 C 4,8 km/h (1 Bft)
08.10.2022 00:44 6,6 C 4,4 C 89 % 1021,3 hPa 0,0 l/m 4,8 km/h (1 Bft) SW 225 0 min 0,0 UV-I 0 W/m 4,9 C 6,6 C 6,4 km/h (2 Bft)
08.10.2022 00:45 6,6 C 4,4 C 89 % 1021,3 hPa 0,0 l/m 3,2 km/h (1 Bft) SW 225 0 min 0,0 UV-I 0 W/m 4,9 C 6,6 C 4,8 km/h (1 Bft)
08.10.2022 00:46 6,6 C 4,4 C 89 % 1021,3 hPa 0,0 l/m 3,2 km/h (1 Bft) SW 225 0 min 0,0 UV-I 0 W/m 4,9 C 6,6 C 4,8 km/h (1 Bft)
08.10.2022 00:47 6,7 C 4,4 C 89 % 1021,3 hPa 0,0 l/m 3,2 km/h (1 Bft) SW 225 0 min 0,0 UV-I 0 W/m 5,0 C 6,7 C 4,8 km/h (1 Bft)
08.10.2022 00:48 6,7 C 4,4 C 89 % 1021,3 hPa 0,0 l/m 3,2 km/h (1 Bft) SW 225 0 min 0,0 UV-I 0 W/m 5,0 C 6,7 C 6,4 km/h (2 Bft)
08.10.2022 00:49 6,7 C 4,4 C 89 % 1021,3 hPa 0,0 l/m 3,2 km/h (1 Bft) SW 225 0 min 0,0 UV-I 0 W/m 5,0 C 6,7 C 6,4 km/h (2 Bft)
08.10.2022 00:50 6,7 C 3,9 C 89 % 1021,3 hPa 0,0 l/m 4,8 km/h (1 Bft) SW 225 0 min 0,0 UV-I 0 W/m 5,0 C 6,7 C 6,4 km/h (2 Bft)
08.10.2022 00:51 6,7 C 4,4 C 89 % 1021,3 hPa 0,0 l/m 4,8 km/h (1 Bft) SW 225 0 min 0,0 UV-I 0 W/m 5,0 C 6,7 C 6,4 km/h (2 Bft)
08.10.2022 00:52 6,7 C 4,4 C 89 % 1021,3 hPa 0,0 l/m 4,8 km/h (1 Bft) SW 225 0 min 0,0 UV-I 0 W/m 5,0 C 6,7 C 8,0 km/h (2 Bft)
08.10.2022 00:53 6,8 C 4,4 C 89 % 1021,3 hPa 0,0 l/m 3,2 km/h (1 Bft) SW 225 0 min 0,0 UV-I 0 W/m 5,1 C 6,8 C 4,8 km/h (1 Bft)
08.10.2022 00:54 6,7 C 4,4 C 89 % 1021,3 hPa 0,0 l/m 4,8 km/h (1 Bft) SW 225 0 min 0,0 UV-I 0 W/m 5,0 C 6,7 C 6,4 km/h (2 Bft)
08.10.2022 00:55 6,8 C 4,4 C 89 % 1021,3 hPa 0,0 l/m 6,4 km/h (2 Bft) W-SW 247 0 min 0,0 UV-I 0 W/m 5,1 C 6,8 C 9,7 km/h (2 Bft)
08.10.2022 00:56 6,7 C 4,4 C 88 % 1021,3 hPa 0,0 l/m 3,2 km/h (1 Bft) SW 225 0 min 0,0 UV-I 0 W/m 4,9 C 6,7 C 9,7 km/h (2 Bft)
08.10.2022 00:57 6,7 C 4,4 C 89 % 1021,3 hPa 0,0 l/m 4,8 km/h (1 Bft) SW 225 0 min 0,0 UV-I 0 W/m 5,0 C 6,7 C 8,0 km/h (2 Bft)
08.10.2022 00:58 6,7 C 4,4 C 89 % 1021,4 hPa 0,0 l/m 3,2 km/h (1 Bft) SW 225 0 min 0,0 UV-I 0 W/m 5,0 C 6,7 C 4,8 km/h (1 Bft)
08.10.2022 00:59 6,7 C 3,9 C 89 % 1021,3 hPa 0,0 l/m 3,2 km/h (1 Bft) SW 225 0 min 0,0 UV-I 0 W/m 5,0 C 6,7 C 6,4 km/h (2 Bft)
08.10.2022 01:00 6,7 C 3,9 C 88 % 1021,3 hPa 0,0 l/m 3,2 km/h (1 Bft) SW 225 0 min 0,0 UV-I 0 W/m 4,9 C 6,7 C 8,0 km/h (2 Bft)
08.10.2022 01:01 6,7 C 4,4 C 88 % 1021,3 hPa 0,0 l/m 4,8 km/h (1 Bft) SW 225 0 min 0,0 UV-I 0 W/m 4,9 C 6,7 C 8,0 km/h (2 Bft)
08.10.2022 01:02 6,7 C 4,4 C 89 % 1021,3 hPa 0,0 l/m 3,2 km/h (1 Bft) SW 225 0 min 0,0 UV-I 0 W/m 5,0 C 6,7 C 6,4 km/h (2 Bft)
08.10.2022 01:03 6,7 C 4,4 C 89 % 1021,3 hPa 0,0 l/m 4,8 km/h (1 Bft) W-SW 247 0 min 0,0 UV-I 0 W/m 5,0 C 6,7 C 8,0 km/h (2 Bft)
08.10.2022 01:04 6,7 C 4,4 C 89 % 1021,2 hPa 0,0 l/m 4,8 km/h (1 Bft) W-SW 247 0 min 0,0 UV-I 0 W/m 5,0 C 6,7 C 6,4 km/h (2 Bft)
08.10.2022 01:05 6,7 C 4,4 C 88 % 1021,3 hPa 0,0 l/m 3,2 km/h (1 Bft) SW 225 0 min 0,0 UV-I 0 W/m 4,9 C 6,7 C 6,4 km/h (2 Bft)
08.10.2022 01:06 6,6 C 4,4 C 88 % 1021,2 hPa 0,0 l/m 4,8 km/h (1 Bft) SW 225 0 min 0,0 UV-I 0 W/m 4,8 C 6,6 C 8,0 km/h (2 Bft)
08.10.2022 01:07 6,6 C 4,4 C 89 % 1021,3 hPa 0,0 l/m 3,2 km/h (1 Bft) SW 225 0 min 0,0 UV-I 0 W/m 4,9 C 6,6 C 6,4 km/h (2 Bft)
08.10.2022 01:08 6,6 C 3,9 C 89 % 1021,3 hPa 0,0 l/m 4,8 km/h (1 Bft) W 270 0 min 0,0 UV-I 0 W/m 4,9 C 6,6 C 6,4 km/h (2 Bft)
08.10.2022 01:09 6,6 C 4,4 C 88 % 1021,2 hPa 0,0 l/m 4,8 km/h (1 Bft) W-SW 247 0 min 0,0 UV-I 0 W/m 4,8 C 6,6 C 6,4 km/h (2 Bft)
08.10.2022 01:10 6,6 C 3,9 C 89 % 1021,3 hPa 0,0 l/m 4,8 km/h (1 Bft) SW 225 0 min 0,0 UV-I 0 W/m 4,9 C 6,6 C 8,0 km/h (2 Bft)
08.10.2022 01:11 6,6 C 3,9 C 89 % 1021,2 hPa 0,0 l/m 4,8 km/h (1 Bft) SW 225 0 min 0,0 UV-I 0 W/m 4,9 C 6,6 C 6,4 km/h (2 Bft)
08.10.2022 01:12 6,5 C 3,9 C 89 % 1021,2 hPa 0,0 l/m 3,2 km/h (1 Bft) W-SW 247 0 min 0,0 UV-I 0 W/m 4,8 C 6,5 C 6,4 km/h (2 Bft)
08.10.2022 01:13 6,5 C 3,9 C 89 % 1021,3 hPa 0,0 l/m 4,8 km/h (1 Bft) SW 225 0 min 0,0 UV-I 0 W/m 4,8 C 6,5 C 8,0 km/h (2 Bft)
08.10.2022 01:14 6,5 C 4,4 C 89 % 1021,3 hPa 0,0 l/m 4,8 km/h (1 Bft) SW 225 0 min 0,0 UV-I 0 W/m 4,8 C 6,5 C 6,4 km/h (2 Bft)
08.10.2022 01:15 6,5 C 4,4 C 89 % 1021,3 hPa 0,0 l/m 4,8 km/h (1 Bft) SW 225 0 min 0,0 UV-I 0 W/m 4,8 C 6,5 C 8,0 km/h (2 Bft)
08.10.2022 01:16 6,5 C 4,4 C 89 % 1021,3 hPa 0,0 l/m 4,8 km/h (1 Bft) W-SW 247 0 min 0,0 UV-I 0 W/m 4,8 C 6,5 C 8,0 km/h (2 Bft)
08.10.2022 01:17 6,6 C 4,4 C 89 % 1021,3 hPa 0,0 l/m 4,8 km/h (1 Bft) W-SW 247 0 min 0,0 UV-I 0 W/m 4,9 C 6,6 C 8,0 km/h (2 Bft)
08.10.2022 01:18 6,5 C 4,4 C 89 % 1021,2 hPa 0,0 l/m 4,8 km/h (1 Bft) SW 225 0 min 0,0 UV-I 0 W/m 4,8 C 6,5 C 8,0 km/h (2 Bft)
08.10.2022 01:19 6,5 C 4,4 C 89 % 1021,2 hPa 0,0 l/m 4,8 km/h (1 Bft) W-SW 247 0 min 0,0 UV-I 0 W/m 4,8 C 6,5 C 4,8 km/h (1 Bft)
08.10.2022 01:20 6,5 C 4,4 C 89 % 1021,2 hPa 0,0 l/m 4,8 km/h (1 Bft) W-SW 247 0 min 0,0 UV-I 0 W/m 4,8 C 6,5 C 8,0 km/h (2 Bft)
08.10.2022 01:21 6,5 C 4,4 C 89 % 1021,2 hPa 0,0 l/m 4,8 km/h (1 Bft) SW 225 0 min 0,0 UV-I 0 W/m 4,8 C 6,5 C 6,4 km/h (2 Bft)
08.10.2022 01:22 6,5 C 4,4 C 89 % 1021,2 hPa 0,0 l/m 3,2 km/h (1 Bft) W-SW 247 0 min 0,0 UV-I 0 W/m 4,8 C 6,5 C 4,8 km/h (1 Bft)
08.10.2022 01:23 6,5 C 4,4 C 89 % 1021,1 hPa 0,0 l/m 3,2 km/h (1 Bft) W-SW 247 0 min 0,0 UV-I 0 W/m 4,8 C 6,5 C 4,8 km/h (1 Bft)
08.10.2022 01:24 6,5 C 4,4 C 89 % 1021,1 hPa 0,0 l/m 4,8 km/h (1 Bft) W-SW 247 0 min 0,0 UV-I 0 W/m 4,8 C 6,5 C 6,4 km/h (2 Bft)
08.10.2022 01:25 6,5 C 3,9 C 89 % 1021,1 hPa 0,0 l/m 3,2 km/h (1 Bft) SW 225 0 min 0,0 UV-I 0 W/m 4,8 C 6,5 C 4,8 km/h (1 Bft)
08.10.2022 01:26 6,4 C 3,9 C 89 % 1021,1 hPa 0,0 l/m 3,2 km/h (1 Bft) SW 225 0 min 0,0 UV-I 0 W/m 4,7 C 6,4 C 4,8 km/h (1 Bft)
08.10.2022 01:27 6,4 C 3,9 C 89 % 1021,1 hPa 0,0 l/m 4,8 km/h (1 Bft) SW 225 0 min 0,0 UV-I 0 W/m 4,7 C 6,4 C 6,4 km/h (2 Bft)
08.10.2022 01:28 6,4 C 3,9 C 89 % 1021,1 hPa 0,0 l/m 4,8 km/h (1 Bft) W-SW 247 0 min 0,0 UV-I 0 W/m 4,7 C 6,4 C 6,4 km/h (2 Bft)
08.10.2022 01:29 6,4 C 3,9 C 89 % 1021,1 hPa 0,0 l/m 3,2 km/h (1 Bft) W-SW 247 0 min 0,0 UV-I 0 W/m 4,7 C 6,4 C 6,4 km/h (2 Bft)
08.10.2022 01:30 6,4 C 3,3 C 89 % 1021,1 hPa 0,0 l/m 3,2 km/h (1 Bft) SW 225 0 min 0,0 UV-I 0 W/m 4,7 C 6,4 C 6,4 km/h (2 Bft)
08.10.2022 01:31 6,4 C 3,9 C 89 % 1021,1 hPa 0,0 l/m 3,2 km/h (1 Bft) SW 225 0 min 0,0 UV-I 0 W/m 4,7 C 6,4 C 4,8 km/h (1 Bft)
08.10.2022 01:32 6,4 C 3,9 C 89 % 1021,1 hPa 0,0 l/m 3,2 km/h (1 Bft) SW 225 0 min 0,0 UV-I 0 W/m 4,7 C 6,4 C 4,8 km/h (1 Bft)
08.10.2022 01:33 6,4 C 3,9 C 89 % 1021,2 hPa 0,0 l/m 3,2 km/h (1 Bft) SW 225 0 min 0,0 UV-I 0 W/m 4,7 C 6,4 C 4,8 km/h (1 Bft)
08.10.2022 01:34 6,4 C 3,9 C 89 % 1021,1 hPa 0,0 l/m 3,2 km/h (1 Bft) SW 225 0 min 0,0 UV-I 0 W/m 4,7 C 6,4 C 4,8 km/h (1 Bft)
08.10.2022 01:35 6,4 C 3,9 C 89 % 1021,1 hPa 0,0 l/m 3,2 km/h (1 Bft) SW 225 0 min 0,0 UV-I 0 W/m 4,7 C 6,4 C 4,8 km/h (1 Bft)
08.10.2022 01:36 6,4 C 3,9 C 89 % 1021,0 hPa 0,0 l/m 4,8 km/h (1 Bft) W-SW 247 0 min 0,0 UV-I 0 W/m 4,7 C 6,4 C 8,0 km/h (2 Bft)
08.10.2022 01:37 6,4 C 3,9 C 89 % 1021,1 hPa 0,0 l/m 1,6 km/h (1 Bft) W-SW 247 0 min 0,0 UV-I 0 W/m 4,7 C 6,4 C 3,2 km/h (1 Bft)
08.10.2022 01:38 6,3 C 3,9 C 89 % 1021,0 hPa 0,0 l/m 3,2 km/h (1 Bft) W-SW 247 0 min 0,0 UV-I 0 W/m 4,6 C 6,3 C 4,8 km/h (1 Bft)
08.10.2022 01:39 6,3 C 3,9 C 89 % 1021,0 hPa 0,0 l/m 1,6 km/h (1 Bft) W-SW 247 0 min 0,0 UV-I 0 W/m 4,6 C 6,3 C 6,4 km/h (2 Bft)
08.10.2022 01:40 6,3 C 3,9 C 89 % 1020,9 hPa 0,0 l/m 3,2 km/h (1 Bft) W-SW 247 0 min 0,0 UV-I 0 W/m 4,6 C 6,3 C 4,8 km/h (1 Bft)
08.10.2022 01:41 6,4 C 3,9 C 90 % 1020,9 hPa 0,0 l/m 1,6 km/h (1 Bft) W-SW 247 0 min 0,0 UV-I 0 W/m 4,9 C 6,4 C 4,8 km/h (1 Bft)
08.10.2022 01:42 6,3 C 3,9 C 89 % 1021,0 hPa 0,0 l/m 1,6 km/h (1 Bft) W-SW 247 0 min 0,0 UV-I 0 W/m 4,6 C 6,3 C 4,8 km/h (1 Bft)
08.10.2022 01:43 6,3 C 3,9 C 89 % 1020,9 hPa 0,0 l/m 3,2 km/h (1 Bft) SW 225 0 min 0,0 UV-I 0 W/m 4,6 C 6,3 C 4,8 km/h (1 Bft)
08.10.2022 01:44 6,3 C 3,3 C 89 % 1020,9 hPa 0,0 l/m 1,6 km/h (1 Bft) SW 225 0 min 0,0 UV-I 0 W/m 4,6 C 6,3 C 3,2 km/h (1 Bft)
08.10.2022 01:45 6,3 C 3,3 C 90 % 1021,0 hPa 0,0 l/m 4,8 km/h (1 Bft) SW 225 0 min 0,0 UV-I 0 W/m 4,8 C 6,3 C 4,8 km/h (1 Bft)
08.10.2022 01:46 6,3 C 3,3 C 90 % 1021,0 hPa 0,0 l/m 3,2 km/h (1 Bft) SW 225 0 min 0,0 UV-I 0 W/m 4,8 C 6,3 C 4,8 km/h (1 Bft)
08.10.2022 01:47 6,3 C 3,3 C 90 % 1020,9 hPa 0,0 l/m 3,2 km/h (1 Bft) SW 225 0 min 0,0 UV-I 0 W/m 4,8 C 6,3 C 4,8 km/h (1 Bft)
08.10.2022 01:48 6,3 C 3,9 C 90 % 1021,0 hPa 0,0 l/m 1,6 km/h (1 Bft) SW 225 0 min 0,0 UV-I 0 W/m 4,8 C 6,3 C 6,4 km/h (2 Bft)
08.10.2022 01:49 6,3 C 3,3 C 90 % 1021,0 hPa 0,0 l/m 3,2 km/h (1 Bft) SW 225 0 min 0,0 UV-I 0 W/m 4,8 C 6,3 C 4,8 km/h (1 Bft)
08.10.2022 01:50 6,3 C 3,3 C 89 % 1021,0 hPa 0,0 l/m 1,6 km/h (1 Bft) SW 225 0 min 0,0 UV-I 0 W/m 4,6 C 6,3 C 3,2 km/h (1 Bft)
08.10.2022 01:51 6,3 C 3,3 C 89 % 1021,0 hPa 0,0 l/m 1,6 km/h (1 Bft) SW 225 0 min 0,0 UV-I 0 W/m 4,6 C 6,3 C 3,2 km/h (1 Bft)
08.10.2022 01:52 6,3 C 3,3 C 90 % 1020,9 hPa 0,0 l/m 3,2 km/h (1 Bft) SW 225 0 min 0,0 UV-I 0 W/m 4,8 C 6,3 C 6,4 km/h (2 Bft)
08.10.2022 01:53 6,3 C 3,9 C 90 % 1021,0 hPa 0,0 l/m 4,8 km/h (1 Bft) SW 225 0 min 0,0 UV-I 0 W/m 4,8 C 6,3 C 6,4 km/h (2 Bft)
08.10.2022 01:54 6,3 C 3,9 C 90 % 1020,8 hPa 0,0 l/m 3,2 km/h (1 Bft) SW 225 0 min 0,0 UV-I 0 W/m 4,8 C 6,3 C 6,4 km/h (2 Bft)
08.10.2022 01:55 6,4 C 3,9 C 90 % 1020,8 hPa 0,0 l/m 3,2 km/h (1 Bft) S-SW 202 0 min 0,0 UV-I 0 W/m 4,9 C 6,4 C 4,8 km/h (1 Bft)
08.10.2022 01:56 6,3 C 3,9 C 90 % 1020,8 hPa 0,0 l/m 4,8 km/h (1 Bft) SW 225 0 min 0,0 UV-I 0 W/m 4,8 C 6,3 C 4,8 km/h (1 Bft)
08.10.2022 01:57 6,4 C 3,9 C 90 % 1020,8 hPa 0,0 l/m 6,4 km/h (2 Bft) S 180 0 min 0,0 UV-I 0 W/m 4,9 C 6,4 C 9,7 km/h (2 Bft)
08.10.2022 01:58 6,4 C 3,9 C 90 % 1021,0 hPa 0,0 l/m 4,8 km/h (1 Bft) SW 225 0 min 0,0 UV-I 0 W/m 4,9 C 6,4 C 8,0 km/h (2 Bft)
08.10.2022 01:59 6,4 C 3,9 C 90 % 1020,9 hPa 0,0 l/m 6,4 km/h (2 Bft) S-SW 202 0 min 0,0 UV-I 0 W/m 4,9 C 6,4 C 11,3 km/h (2 Bft)
08.10.2022 02:00 6,4 C 4,4 C 90 % 1020,8 hPa 0,0 l/m 4,8 km/h (1 Bft) S-SW 202 0 min 0,0 UV-I 0 W/m 4,9 C 6,4 C 11,3 km/h (2 Bft)
08.10.2022 02:01 6,4 C 4,4 C 90 % 1020,9 hPa 0,0 l/m 6,4 km/h (2 Bft) S-SW 202 0 min 0,0 UV-I 0 W/m 4,9 C 6,4 C 9,7 km/h (2 Bft)
08.10.2022 02:02 6,4 C 4,4 C 90 % 1020,9 hPa 0,0 l/m 4,8 km/h (1 Bft) S-SW 202 0 min 0,0 UV-I 0 W/m 4,9 C 6,4 C 6,4 km/h (2 Bft)
08.10.2022 02:03 6,4 C 4,4 C 90 % 1020,9 hPa 0,0 l/m 4,8 km/h (1 Bft) S-SW 202 0 min 0,0 UV-I 0 W/m 4,9 C 6,4 C 6,4 km/h (2 Bft)
08.10.2022 02:04 6,4 C 4,4 C 90 % 1020,9 hPa 0,0 l/m 4,8 km/h (1 Bft) S-SW 202 0 min 0,0 UV-I 0 W/m 4,9 C 6,4 C 6,4 km/h (2 Bft)
08.10.2022 02:05 6,5 C 4,4 C 90 % 1020,9 hPa 0,0 l/m 4,8 km/h (1 Bft) SW 225 0 min 0,0 UV-I 0 W/m 5,0 C 6,5 C 6,4 km/h (2 Bft)
08.10.2022 02:06 6,5 C 4,4 C 90 % 1020,9 hPa 0,0 l/m 3,2 km/h (1 Bft) SW 225 0 min 0,0 UV-I 0 W/m 5,0 C 6,5 C 4,8 km/h (1 Bft)
08.10.2022 02:07 6,5 C 4,4 C 90 % 1020,9 hPa 0,0 l/m 4,8 km/h (1 Bft) S-SW 202 0 min 0,0 UV-I 0 W/m 5,0 C 6,5 C 8,0 km/h (2 Bft)
08.10.2022 02:08 6,4 C 4,4 C 90 % 1020,9 hPa 0,0 l/m 3,2 km/h (1 Bft) S-SW 202 0 min 0,0 UV-I 0 W/m 4,9 C 6,4 C 4,8 km/h (1 Bft)
08.10.2022 02:09 6,5 C 4,4 C 90 % 1020,8 hPa 0,0 l/m 4,8 km/h (1 Bft) S-SW 202 0 min 0,0 UV-I 0 W/m 5,0 C 6,5 C 6,4 km/h (2 Bft)
08.10.2022 02:10 6,4 C 3,9 C 90 % 1020,8 hPa 0,0 l/m 6,4 km/h (2 Bft) S-SW 202 0 min 0,0 UV-I 0 W/m 4,9 C 6,4 C 8,0 km/h (2 Bft)
08.10.2022 02:11 6,4 C 3,9 C 90 % 1020,8 hPa 0,0 l/m 3,2 km/h (1 Bft) SW 225 0 min 0,0 UV-I 0 W/m 4,9 C 6,4 C 4,8 km/h (1 Bft)
08.10.2022 02:12 6,5 C 3,9 C 90 % 1020,8 hPa 0,0 l/m 4,8 km/h (1 Bft) SW 225 0 min 0,0 UV-I 0 W/m 5,0 C 6,5 C 8,0 km/h (2 Bft)
08.10.2022 02:13 6,5 C 4,4 C 90 % 1020,8 hPa 0,0 l/m 6,4 km/h (2 Bft) SW 225 0 min 0,0 UV-I 0 W/m 5,0 C 6,5 C 8,0 km/h (2 Bft)
08.10.2022 02:14 6,6 C 4,4 C 90 % 1020,8 hPa 0,0 l/m 4,8 km/h (1 Bft) SW 225 0 min 0,0 UV-I 0 W/m 5,1 C 6,6 C 8,0 km/h (2 Bft)
08.10.2022 02:15 6,6 C 4,4 C 90 % 1020,8 hPa 0,0 l/m 6,4 km/h (2 Bft) SW 225 0 min 0,0 UV-I 0 W/m 5,1 C 6,6 C 8,0 km/h (2 Bft)
08.10.2022 02:16 6,6 C 4,4 C 90 % 1020,8 hPa 0,0 l/m 3,2 km/h (1 Bft) SW 225 0 min 0,0 UV-I 0 W/m 5,1 C 6,6 C 4,8 km/h (1 Bft)
08.10.2022 02:17 6,6 C 4,4 C 90 % 1020,8 hPa 0,0 l/m 6,4 km/h (2 Bft) S-SW 202 0 min 0,0 UV-I 0 W/m 5,1 C 6,6 C 9,7 km/h (2 Bft)
08.10.2022 02:18 6,6 C 5,0 C 90 % 1020,7 hPa 0,0 l/m 6,4 km/h (2 Bft) S-SW 202 0 min 0,0 UV-I 0 W/m 5,1 C 6,6 C 9,7 km/h (2 Bft)
08.10.2022 02:19 6,6 C 5,0 C 90 % 1020,8 hPa 0,0 l/m 6,4 km/h (2 Bft) SW 225 0 min 0,0 UV-I 0 W/m 5,1 C 6,6 C 9,7 km/h (2 Bft)
08.10.2022 02:20 6,6 C 5,0 C 90 % 1020,8 hPa 0,0 l/m 4,8 km/h (1 Bft) S-SW 202 0 min 0,0 UV-I 0 W/m 5,1 C 6,6 C 8,0 km/h (2 Bft)
08.10.2022 02:21 6,6 C 4,4 C 90 % 1020,8 hPa 0,0 l/m 4,8 km/h (1 Bft) SW 225 0 min 0,0 UV-I 0 W/m 5,1 C 6,6 C 8,0 km/h (2 Bft)
08.10.2022 02:22 6,6 C 4,4 C 90 % 1020,8 hPa 0,0 l/m 4,8 km/h (1 Bft) SW 225 0 min 0,0 UV-I 0 W/m 5,1 C 6,6 C 9,7 km/h (2 Bft)
08.10.2022 02:23 6,6 C 4,4 C 89 % 1020,7 hPa 0,0 l/m 4,8 km/h (1 Bft) SW 225 0 min 0,0 UV-I 0 W/m 4,9 C 6,6 C 6,4 km/h (2 Bft)
08.10.2022 02:24 6,7 C 5,0 C 90 % 1020,8 hPa 0,0 l/m 8,0 km/h (2 Bft) SW 225 0 min 0,0 UV-I 0 W/m 5,2 C 5,4 C 12,9 km/h (3 Bft)
08.10.2022 02:25 6,7 C 5,0 C 90 % 1020,7 hPa 0,0 l/m 6,4 km/h (2 Bft) SW 225 0 min 0,0 UV-I 0 W/m 5,2 C 6,7 C 12,9 km/h (3 Bft)
08.10.2022 02:26 6,8 C 5,0 C 90 % 1020,8 hPa 0,0 l/m 6,4 km/h (2 Bft) SW 225 0 min 0,0 UV-I 0 W/m 5,3 C 6,8 C 9,7 km/h (2 Bft)
08.10.2022 02:27 6,8 C 5,0 C 90 % 1020,8 hPa 0,0 l/m 8,0 km/h (2 Bft) SW 225 0 min 0,0 UV-I 0 W/m 5,3 C 5,5 C 11,3 km/h (2 Bft)
08.10.2022 02:28 6,8 C 5,0 C 90 % 1020,8 hPa 0,0 l/m 8,0 km/h (2 Bft) SW 225 0 min 0,0 UV-I 0 W/m 5,3 C 5,5 C 11,3 km/h (2 Bft)
08.10.2022 02:29 6,8 C 5,0 C 90 % 1020,8 hPa 0,0 l/m 4,8 km/h (1 Bft) SW 225 0 min 0,0 UV-I 0 W/m 5,3 C 6,8 C 6,4 km/h (2 Bft)
08.10.2022 02:30 6,8 C 5,6 C 89 % 1020,8 hPa 0,0 l/m 6,4 km/h (2 Bft) SW 225 0 min 0,0 UV-I 0 W/m 5,1 C 6,8 C 11,3 km/h (2 Bft)
08.10.2022 02:31 6,9 C 5,0 C 89 % 1020,8 hPa 0,0 l/m 6,4 km/h (2 Bft) SW 225 0 min 0,0 UV-I 0 W/m 5,2 C 6,9 C 9,7 km/h (2 Bft)
08.10.2022 02:32 6,8 C 5,6 C 89 % 1020,9 hPa 0,0 l/m 6,4 km/h (2 Bft) SW 225 0 min 0,0 UV-I 0 W/m 5,1 C 6,8 C 9,7 km/h (2 Bft)
08.10.2022 02:33 6,9 C 5,0 C 89 % 1020,8 hPa 0,0 l/m 3,2 km/h (1 Bft) SW 225 0 min 0,0 UV-I 0 W/m 5,2 C 6,9 C 4,8 km/h (1 Bft)
08.10.2022 02:34 6,8 C 5,0 C 89 % 1020,8 hPa 0,0 l/m 4,8 km/h (1 Bft) SW 225 0 min 0,0 UV-I 0 W/m 5,1 C 6,8 C 6,4 km/h (2 Bft)
08.10.2022 02:35 6,8 C 5,0 C 89 % 1020,9 hPa 0,0 l/m 4,8 km/h (1 Bft) W-SW 247 0 min 0,0 UV-I 0 W/m 5,1 C 6,8 C 8,0 km/h (2 Bft)
08.10.2022 02:36 6,9 C 5,0 C 89 % 1020,8 hPa 0,0 l/m 4,8 km/h (1 Bft) SW 225 0 min 0,0 UV-I 0 W/m 5,2 C 6,9 C 6,4 km/h (2 Bft)
08.10.2022 02:37 6,8 C 5,0 C 89 % 1020,9 hPa 0,0 l/m 4,8 km/h (1 Bft) SW 225 0 min 0,0 UV-I 0 W/m 5,1 C 6,8 C 8,0 km/h (2 Bft)
08.10.2022 02:38 6,8 C 5,0 C 89 % 1020,9 hPa 0,0 l/m 4,8 km/h (1 Bft) SW 225 0 min 0,0 UV-I 0 W/m 5,1 C 6,8 C 6,4 km/h (2 Bft)
08.10.2022 02:39 6,8 C 5,0 C 89 % 1020,9 hPa 0,0 l/m 4,8 km/h (1 Bft) SW 225 0 min 0,0 UV-I 0 W/m 5,1 C 6,8 C 6,4 km/h (2 Bft)
08.10.2022 02:40 6,8 C 5,0 C 89 % 1020,9 hPa 0,0 l/m 4,8 km/h (1 Bft) SW 225 0 min 0,0 UV-I 0 W/m 5,1 C 6,8 C 6,4 km/h (2 Bft)
08.10.2022 02:41 6,8 C 5,0 C 89 % 1020,9 hPa 0,0 l/m 3,2 km/h (1 Bft) SW 225 0 min 0,0 UV-I 0 W/m 5,1 C 6,8 C 6,4 km/h (2 Bft)
08.10.2022 02:42 6,8 C 4,4 C 89 % 1020,9 hPa 0,0 l/m 4,8 km/h (1 Bft) SW 225 0 min 0,0 UV-I 0 W/m 5,1 C 6,8 C 6,4 km/h (2 Bft)
08.10.2022 02:43 6,8 C 4,4 C 89 % 1021,0 hPa 0,0 l/m 4,8 km/h (1 Bft) S-SW 202 0 min 0,0 UV-I 0 W/m 5,1 C 6,8 C 8,0 km/h (2 Bft)
08.10.2022 02:44 6,7 C 4,4 C 89 % 1020,9 hPa 0,0 l/m 4,8 km/h (1 Bft) S-SW 202 0 min 0,0 UV-I 0 W/m 5,0 C 6,7 C 6,4 km/h (2 Bft)
08.10.2022 02:45 6,7 C 4,4 C 89 % 1020,9 hPa 0,0 l/m 6,4 km/h (2 Bft) SW 225 0 min 0,0 UV-I 0 W/m 5,0 C 6,7 C 8,0 km/h (2 Bft)
08.10.2022 02:46 6,7 C 4,4 C 89 % 1020,8 hPa 0,0 l/m 4,8 km/h (1 Bft) S-SW 202 0 min 0,0 UV-I 0 W/m 5,0 C 6,7 C 8,0 km/h (2 Bft)
08.10.2022 02:47 6,7 C 4,4 C 89 % 1020,8 hPa 0,0 l/m 4,8 km/h (1 Bft) S-SW 202 0 min 0,0 UV-I 0 W/m 5,0 C 6,7 C 8,0 km/h (2 Bft)
08.10.2022 02:48 6,7 C 5,0 C 89 % 1020,8 hPa 0,0 l/m 3,2 km/h (1 Bft) S-SW 202 0 min 0,0 UV-I 0 W/m 5,0 C 6,7 C 4,8 km/h (1 Bft)
08.10.2022 02:49 6,7 C 5,0 C 89 % 1020,8 hPa 0,0 l/m 3,2 km/h (1 Bft) S-SW 202 0 min 0,0 UV-I 0 W/m 5,0 C 6,7 C 4,8 km/h (1 Bft)
08.10.2022 02:50 6,7 C 5,0 C 89 % 1020,9 hPa 0,0 l/m 3,2 km/h (1 Bft) S-SW 202 0 min 0,0 UV-I 0 W/m 5,0 C 6,7 C 6,4 km/h (2 Bft)
08.10.2022 02:51 6,7 C 5,0 C 89 % 1020,9 hPa 0,0 l/m 4,8 km/h (1 Bft) S-SW 202 0 min 0,0 UV-I 0 W/m 5,0 C 6,7 C 6,4 km/h (2 Bft)
08.10.2022 02:52 6,7 C 4,4 C 89 % 1020,9 hPa 0,0 l/m 3,2 km/h (1 Bft) S-SW 202 0 min 0,0 UV-I 0 W/m 5,0 C 6,7 C 4,8 km/h (1 Bft)
08.10.2022 02:53 6,6 C 4,4 C 89 % 1020,9 hPa 0,0 l/m 4,8 km/h (1 Bft) SW 225 0 min 0,0 UV-I 0 W/m 4,9 C 6,6 C 8,0 km/h (2 Bft)
08.10.2022 02:54 6,6 C 4,4 C 89 % 1020,9 hPa 0,0 l/m 4,8 km/h (1 Bft) SW 225 0 min 0,0 UV-I 0 W/m 4,9 C 6,6 C 6,4 km/h (2 Bft)
08.10.2022 02:55 6,6 C 4,4 C 89 % 1020,8 hPa 0,0 l/m 3,2 km/h (1 Bft) W-SW 247 0 min 0,0 UV-I 0 W/m 4,9 C 6,6 C 6,4 km/h (2 Bft)
08.10.2022 02:56 6,6 C 4,4 C 89 % 1020,9 hPa 0,0 l/m 4,8 km/h (1 Bft) W-SW 247 0 min 0,0 UV-I 0 W/m 4,9 C 6,6 C 8,0 km/h (2 Bft)
08.10.2022 02:57 6,6 C 4,4 C 89 % 1020,9 hPa 0,0 l/m 4,8 km/h (1 Bft) SW 225 0 min 0,0 UV-I 0 W/m 4,9 C 6,6 C 9,7 km/h (2 Bft)
08.10.2022 02:58 6,5 C 4,4 C 89 % 1020,9 hPa 0,0 l/m 3,2 km/h (1 Bft) W-SW 247 0 min 0,0 UV-I 0 W/m 4,8 C 6,5 C 6,4 km/h (2 Bft)
08.10.2022 02:59 6,5 C 4,4 C 89 % 1020,9 hPa 0,0 l/m 4,8 km/h (1 Bft) SW 225 0 min 0,0 UV-I 0 W/m 4,8 C 6,5 C 8,0 km/h (2 Bft)
08.10.2022 03:00 6,5 C 4,4 C 89 % 1020,9 hPa 0,0 l/m 3,2 km/h (1 Bft) SW 225 0 min 0,0 UV-I 0 W/m 4,8 C 6,5 C 6,4 km/h (2 Bft)
08.10.2022 03:01 6,5 C 4,4 C 89 % 1020,9 hPa 0,0 l/m 4,8 km/h (1 Bft) S-SW 202 0 min 0,0 UV-I 0 W/m 4,8 C 6,5 C 6,4 km/h (2 Bft)
08.10.2022 03:02 6,5 C 4,4 C 89 % 1020,9 hPa 0,0 l/m 4,8 km/h (1 Bft) SW 225 0 min 0,0 UV-I 0 W/m 4,8 C 6,5 C 9,7 km/h (2 Bft)
08.10.2022 03:03 6,4 C 4,4 C 89 % 1020,8 hPa 0,0 l/m 1,6 km/h (1 Bft) SW 225 0 min 0,0 UV-I 0 W/m 4,7 C 6,4 C 4,8 km/h (1 Bft)
08.10.2022 03:04 6,4 C 4,4 C 89 % 1020,9 hPa 0,0 l/m 3,2 km/h (1 Bft) SW 225 0 min 0,0 UV-I 0 W/m 4,7 C 6,4 C 6,4 km/h (2 Bft)
08.10.2022 03:05 6,4 C 4,4 C 89 % 1020,9 hPa 0,0 l/m 3,2 km/h (1 Bft) S-SW 202 0 min 0,0 UV-I 0 W/m 4,7 C 6,4 C 4,8 km/h (1 Bft)
08.10.2022 03:06 6,4 C 3,9 C 89 % 1021,0 hPa 0,0 l/m 4,8 km/h (1 Bft) S-SW 202 0 min 0,0 UV-I 0 W/m 4,7 C 6,4 C 6,4 km/h (2 Bft)
08.10.2022 03:07 6,4 C 4,4 C 89 % 1020,8 hPa 0,0 l/m 4,8 km/h (1 Bft) SW 225 0 min 0,0 UV-I 0 W/m 4,7 C 6,4 C 6,4 km/h (2 Bft)
08.10.2022 03:08 6,5 C 4,4 C 89 % 1020,8 hPa 0,0 l/m 3,2 km/h (1 Bft) SW 225 0 min 0,0 UV-I 0 W/m 4,8 C 6,5 C 4,8 km/h (1 Bft)
08.10.2022 03:09 6,5 C 4,4 C 89 % 1020,9 hPa 0,0 l/m 3,2 km/h (1 Bft) SW 225 0 min 0,0 UV-I 0 W/m 4,8 C 6,5 C 4,8 km/h (1 Bft)
08.10.2022 03:10 6,4 C 4,4 C 89 % 1020,9 hPa 0,0 l/m 6,4 km/h (2 Bft) SW 225 0 min 0,0 UV-I 0 W/m 4,7 C 6,4 C 8,0 km/h (2 Bft)
08.10.2022 03:11 6,4 C 4,4 C 89 % 1020,9 hPa 0,0 l/m 4,8 km/h (1 Bft) SW 225 0 min 0,0 UV-I 0 W/m 4,7 C 6,4 C 6,4 km/h (2 Bft)
08.10.2022 03:12 6,4 C 4,4 C 89 % 1020,7 hPa 0,0 l/m 3,2 km/h (1 Bft) SW 225 0 min 0,0 UV-I 0 W/m 4,7 C 6,4 C 4,8 km/h (1 Bft)
08.10.2022 03:13 6,4 C 4,4 C 89 % 1020,7 hPa 0,0 l/m 3,2 km/h (1 Bft) SW 225 0 min 0,0 UV-I 0 W/m 4,7 C 6,4 C 4,8 km/h (1 Bft)
08.10.2022 03:14 6,4 C 4,4 C 89 % 1020,7 hPa 0,0 l/m 3,2 km/h (1 Bft) S-SW 202 0 min 0,0 UV-I 0 W/m 4,7 C 6,4 C 6,4 km/h (2 Bft)
08.10.2022 03:15 6,3 C 4,4 C 89 % 1020,7 hPa 0,0 l/m 3,2 km/h (1 Bft) S-SW 202 0 min 0,0 UV-I 0 W/m 4,6 C 6,3 C 4,8 km/h (1 Bft)
08.10.2022 03:16 6,4 C 4,4 C 89 % 1020,8 hPa 0,0 l/m 3,2 km/h (1 Bft) S-SW 202 0 min 0,0 UV-I 0 W/m 4,7 C 6,4 C 6,4 km/h (2 Bft)
08.10.2022 03:17 6,3 C 4,4 C 90 % 1020,8 hPa 0,0 l/m 4,8 km/h (1 Bft) SW 225 0 min 0,0 UV-I 0 W/m 4,8 C 6,3 C 6,4 km/h (2 Bft)
08.10.2022 03:18 6,3 C 4,4 C 90 % 1020,9 hPa 0,0 l/m 4,8 km/h (1 Bft) S-SW 202 0 min 0,0 UV-I 0 W/m 4,8 C 6,3 C 6,4 km/h (2 Bft)
08.10.2022 03:19 6,3 C 4,4 C 89 % 1020,8 hPa 0,0 l/m 4,8 km/h (1 Bft) SW 225 0 min 0,0 UV-I 0 W/m 4,6 C 6,3 C 6,4 km/h (2 Bft)
08.10.2022 03:20 6,3 C 4,4 C 90 % 1020,7 hPa 0,0 l/m 4,8 km/h (1 Bft) SW 225 0 min 0,0 UV-I 0 W/m 4,8 C 6,3 C 6,4 km/h (2 Bft)
08.10.2022 03:21 6,4 C 4,4 C 90 % 1020,7 hPa 0,0 l/m 6,4 km/h (2 Bft) S-SW 202 0 min 0,0 UV-I 0 W/m 4,9 C 6,4 C 8,0 km/h (2 Bft)
08.10.2022 03:22 6,4 C 4,4 C 90 % 1020,7 hPa 0,0 l/m 4,8 km/h (1 Bft) SW 225 0 min 0,0 UV-I 0 W/m 4,9 C 6,4 C 8,0 km/h (2 Bft)
08.10.2022 03:23 6,4 C 4,4 C 90 % 1020,7 hPa 0,0 l/m 3,2 km/h (1 Bft) SW 225 0 min 0,0 UV-I 0 W/m 4,9 C 6,4 C 4,8 km/h (1 Bft)
08.10.2022 03:24 6,4 C 4,4 C 90 % 1020,8 hPa 0,0 l/m 4,8 km/h (1 Bft) SW 225 0 min 0,0 UV-I 0 W/m 4,9 C 6,4 C 6,4 km/h (2 Bft)
08.10.2022 03:25 6,4 C 4,4 C 90 % 1020,7 hPa 0,0 l/m 4,8 km/h (1 Bft) SW 225 0 min 0,0 UV-I 0 W/m 4,9 C 6,4 C 6,4 km/h (2 Bft)
08.10.2022 03:26 6,4 C 4,4 C 90 % 1020,8 hPa 0,0 l/m 4,8 km/h (1 Bft) SW 225 0 min 0,0 UV-I 0 W/m 4,9 C 6,4 C 6,4 km/h (2 Bft)
08.10.2022 03:27 6,4 C 4,4 C 90 % 1020,7 hPa 0,0 l/m 4,8 km/h (1 Bft) SW 225 0 min 0,0 UV-I 0 W/m 4,9 C 6,4 C 8,0 km/h (2 Bft)
08.10.2022 03:28 6,4 C 4,4 C 90 % 1020,7 hPa 0,0 l/m 4,8 km/h (1 Bft) W-SW 247 0 min 0,0 UV-I 0 W/m 4,9 C 6,4 C 6,4 km/h (2 Bft)
08.10.2022 03:29 6,3 C 4,4 C 90 % 1020,8 hPa 0,0 l/m 4,8 km/h (1 Bft) SW 225 0 min 0,0 UV-I 0 W/m 4,8 C 6,3 C 6,4 km/h (2 Bft)
08.10.2022 03:30 6,4 C 4,4 C 90 % 1020,7 hPa 0,0 l/m 3,2 km/h (1 Bft) SW 225 0 min 0,0 UV-I 0 W/m 4,9 C 6,4 C 6,4 km/h (2 Bft)
08.10.2022 03:31 6,3 C 4,4 C 90 % 1020,7 hPa 0,0 l/m 3,2 km/h (1 Bft) W-SW 247 0 min 0,0 UV-I 0 W/m 4,8 C 6,3 C 4,8 km/h (1 Bft)
08.10.2022 03:32 6,3 C 4,4 C 90 % 1020,7 hPa 0,0 l/m 3,2 km/h (1 Bft) W-SW 247 0 min 0,0 UV-I 0 W/m 4,8 C 6,3 C 4,8 km/h (1 Bft)
08.10.2022 03:33 6,3 C 4,4 C 89 % 1020,7 hPa 0,0 l/m 1,6 km/h (1 Bft) W-SW 247 0 min 0,0 UV-I 0 W/m 4,6 C 6,3 C 3,2 km/h (1 Bft)
08.10.2022 03:34 6,3 C 4,4 C 90 % 1020,7 hPa 0,0 l/m 3,2 km/h (1 Bft) W-SW 247 0 min 0,0 UV-I 0 W/m 4,8 C 6,3 C 3,2 km/h (1 Bft)
08.10.2022 03:35 6,3 C 4,4 C 90 % 1020,6 hPa 0,0 l/m 3,2 km/h (1 Bft) W-SW 247 0 min 0,0 UV-I 0 W/m 4,8 C 6,3 C 4,8 km/h (1 Bft)
08.10.2022 03:36 6,3 C 4,4 C 90 % 1020,6 hPa 0,0 l/m 3,2 km/h (1 Bft) W-SW 247 0 min 0,0 UV-I 0 W/m 4,8 C 6,3 C 4,8 km/h (1 Bft)
08.10.2022 03:37 6,3 C 3,9 C 90 % 1020,6 hPa 0,0 l/m 3,2 km/h (1 Bft) SW 225 0 min 0,0 UV-I 0 W/m 4,8 C 6,3 C 4,8 km/h (1 Bft)
08.10.2022 03:38 6,3 C 3,9 C 90 % 1020,6 hPa 0,0 l/m 4,8 km/h (1 Bft) W-SW 247 0 min 0,0 UV-I 0 W/m 4,8 C 6,3 C 6,4 km/h (2 Bft)
08.10.2022 03:39 6,3 C 4,4 C 90 % 1020,6 hPa 0,0 l/m 4,8 km/h (1 Bft) SW 225 0 min 0,0 UV-I 0 W/m 4,8 C 6,3 C 8,0 km/h (2 Bft)
08.10.2022 03:40 6,2 C 4,4 C 90 % 1020,6 hPa 0,0 l/m 6,4 km/h (2 Bft) W-SW 247 0 min 0,0 UV-I 0 W/m 4,7 C 6,2 C 8,0 km/h (2 Bft)
08.10.2022 03:41 6,3 C 4,4 C 90 % 1020,7 hPa 0,0 l/m 4,8 km/h (1 Bft) SW 225 0 min 0,0 UV-I 0 W/m 4,8 C 6,3 C 8,0 km/h (2 Bft)
08.10.2022 03:42 6,2 C 4,4 C 90 % 1020,6 hPa 0,0 l/m 4,8 km/h (1 Bft) SW 225 0 min 0,0 UV-I 0 W/m 4,7 C 6,2 C 8,0 km/h (2 Bft)
08.10.2022 03:43 6,2 C 4,4 C 90 % 1020,6 hPa 0,0 l/m 4,8 km/h (1 Bft) SW 225 0 min 0,0 UV-I 0 W/m 4,7 C 6,2 C 6,4 km/h (2 Bft)
08.10.2022 03:44 6,2 C 4,4 C 90 % 1020,6 hPa 0,0 l/m 4,8 km/h (1 Bft) SW 225 0 min 0,0 UV-I 0 W/m 4,7 C 6,2 C 6,4 km/h (2 Bft)
08.10.2022 03:45 6,2 C 4,4 C 90 % 1020,6 hPa 0,0 l/m 4,8 km/h (1 Bft) SW 225 0 min 0,0 UV-I 0 W/m 4,7 C 6,2 C 8,0 km/h (2 Bft)
08.10.2022 03:46 6,2 C 4,4 C 90 % 1020,7 hPa 0,0 l/m 3,2 km/h (1 Bft) SW 225 0 min 0,0 UV-I 0 W/m 4,7 C 6,2 C 6,4 km/h (2 Bft)
08.10.2022 03:47 6,2 C 4,4 C 90 % 1020,7 hPa 0,0 l/m 3,2 km/h (1 Bft) SW 225 0 min 0,0 UV-I 0 W/m 4,7 C 6,2 C 4,8 km/h (1 Bft)
08.10.2022 03:48 6,2 C 3,9 C 90 % 1020,6 hPa 0,0 l/m 3,2 km/h (1 Bft) SW 225 0 min 0,0 UV-I 0 W/m 4,7 C 6,2 C 4,8 km/h (1 Bft)
08.10.2022 03:49 6,1 C 3,9 C 90 % 1020,7 hPa 0,0 l/m 3,2 km/h (1 Bft) S-SW 202 0 min 0,0 UV-I 0 W/m 4,6 C 6,1 C 4,8 km/h (1 Bft)
08.10.2022 03:50 6,0 C 3,9 C 90 % 1020,7 hPa 0,0 l/m 3,2 km/h (1 Bft) S-SW 202 0 min 0,0 UV-I 0 W/m 4,5 C 6,0 C 4,8 km/h (1 Bft)
08.10.2022 03:51 5,9 C 3,9 C 90 % 1020,7 hPa 0,0 l/m 3,2 km/h (1 Bft) S-SW 202 0 min 0,0 UV-I 0 W/m 4,4 C 5,9 C 4,8 km/h (1 Bft)
08.10.2022 03:52 5,8 C 3,9 C 89 % 1020,6 hPa 0,0 l/m 4,8 km/h (1 Bft) S-SW 202 0 min 0,0 UV-I 0 W/m 4,1 C 5,8 C 6,4 km/h (2 Bft)
08.10.2022 03:53 5,8 C 3,9 C 90 % 1020,6 hPa 0,0 l/m 4,8 km/h (1 Bft) S-SW 202 0 min 0,0 UV-I 0 W/m 4,3 C 5,8 C 8,0 km/h (2 Bft)
08.10.2022 03:54 5,8 C 3,9 C 90 % 1020,7 hPa 0,0 l/m 6,4 km/h (2 Bft) S-SW 202 0 min 0,0 UV-I 0 W/m 4,3 C 5,8 C 11,3 km/h (2 Bft)
08.10.2022 03:55 5,8 C 3,9 C 90 % 1020,6 hPa 0,0 l/m 3,2 km/h (1 Bft) SW 225 0 min 0,0 UV-I 0 W/m 4,3 C 5,8 C 8,0 km/h (2 Bft)
08.10.2022 03:56 5,8 C 3,9 C 90 % 1020,6 hPa 0,0 l/m 4,8 km/h (1 Bft) SW 225 0 min 0,0 UV-I 0 W/m 4,3 C 5,8 C 9,7 km/h (2 Bft)
08.10.2022 03:57 5,9 C 3,9 C 90 % 1020,6 hPa 0,0 l/m 6,4 km/h (2 Bft) S-SW 202 0 min 0,0 UV-I 0 W/m 4,4 C 5,9 C 9,7 km/h (2 Bft)
08.10.2022 03:58 5,9 C 3,9 C 90 % 1020,6 hPa 0,0 l/m 6,4 km/h (2 Bft) S-SW 202 0 min 0,0 UV-I 0 W/m 4,4 C 5,9 C 8,0 km/h (2 Bft)
08.10.2022 03:59 5,9 C 3,9 C 90 % 1020,6 hPa 0,0 l/m 6,4 km/h (2 Bft) S-SW 202 0 min 0,0 UV-I 0 W/m 4,4 C 5,9 C 11,3 km/h (2 Bft)
08.10.2022 04:00 5,9 C 4,4 C 90 % 1020,6 hPa 0,0 l/m 4,8 km/h (1 Bft) S-SW 202 0 min 0,0 UV-I 0 W/m 4,4 C 5,9 C 9,7 km/h (2 Bft)
08.10.2022 04:01 5,9 C 4,4 C 90 % 1020,7 hPa 0,0 l/m 3,2 km/h (1 Bft) SW 225 0 min 0,0 UV-I 0 W/m 4,4 C 5,9 C 8,0 km/h (2 Bft)
08.10.2022 04:02 5,9 C 4,4 C 90 % 1020,6 hPa 0,0 l/m 6,4 km/h (2 Bft) S-SW 202 0 min 0,0 UV-I 0 W/m 4,4 C 5,9 C 8,0 km/h (2 Bft)
08.10.2022 04:03 6,0 C 4,4 C 90 % 1020,5 hPa 0,0 l/m 4,8 km/h (1 Bft) SW 225 0 min 0,0 UV-I 0 W/m 4,5 C 6,0 C 6,4 km/h (2 Bft)
08.10.2022 04:04 6,0 C 4,4 C 90 % 1020,6 hPa 0,0 l/m 4,8 km/h (1 Bft) SW 225 0 min 0,0 UV-I 0 W/m 4,5 C 6,0 C 6,4 km/h (2 Bft)
08.10.2022 04:05 5,9 C 4,4 C 90 % 1020,6 hPa 0,0 l/m 3,2 km/h (1 Bft) SW 225 0 min 0,0 UV-I 0 W/m 4,4 C 5,9 C 4,8 km/h (1 Bft)
08.10.2022 04:06 6,0 C 4,4 C 90 % 1020,5 hPa 0,0 l/m 4,8 km/h (1 Bft) SW 225 0 min 0,0 UV-I 0 W/m 4,5 C 6,0 C 6,4 km/h (2 Bft)
08.10.2022 04:07 6,0 C 3,9 C 90 % 1020,5 hPa 0,0 l/m 3,2 km/h (1 Bft) SW 225 0 min 0,0 UV-I 0 W/m 4,5 C 6,0 C 3,2 km/h (1 Bft)
08.10.2022 04:08 5,9 C 3,9 C 90 % 1020,6 hPa 0,0 l/m 4,8 km/h (1 Bft) SW 225 0 min 0,0 UV-I 0 W/m 4,4 C 5,9 C 6,4 km/h (2 Bft)
08.10.2022 04:09 5,9 C 3,9 C 90 % 1020,5 hPa 0,0 l/m 4,8 km/h (1 Bft) SW 225 0 min 0,0 UV-I 0 W/m 4,4 C 5,9 C 8,0 km/h (2 Bft)
08.10.2022 04:10 5,9 C 3,9 C 90 % 1020,5 hPa 0,0 l/m 3,2 km/h (1 Bft) SW 225 0 min 0,0 UV-I 0 W/m 4,4 C 5,9 C 6,4 km/h (2 Bft)
08.10.2022 04:11 5,9 C 3,9 C 90 % 1020,6 hPa 0,0 l/m 3,2 km/h (1 Bft) SW 225 0 min 0,0 UV-I 0 W/m 4,4 C 5,9 C 6,4 km/h (2 Bft)
08.10.2022 04:12 5,9 C 3,9 C 90 % 1020,5 hPa 0,0 l/m 4,8 km/h (1 Bft) SW 225 0 min 0,0 UV-I 0 W/m 4,4 C 5,9 C 9,7 km/h (2 Bft)
08.10.2022 04:13 5,9 C 3,9 C 90 % 1020,6 hPa 0,0 l/m 6,4 km/h (2 Bft) S-SW 202 0 min 0,0 UV-I 0 W/m 4,4 C 5,9 C 11,3 km/h (2 Bft)
08.10.2022 04:14 5,9 C 3,9 C 90 % 1020,6 hPa 0,0 l/m 4,8 km/h (1 Bft) S-SW 202 0 min 0,0 UV-I 0 W/m 4,4 C 5,9 C 9,7 km/h (2 Bft)
08.10.2022 04:15 5,9 C 3,9 C 91 % 1020,6 hPa 0,0 l/m 6,4 km/h (2 Bft) SW 225 0 min 0,0 UV-I 0 W/m 4,5 C 5,9 C 9,7 km/h (2 Bft)
08.10.2022 04:16 5,9 C 3,9 C 91 % 1020,6 hPa 0,0 l/m 4,8 km/h (1 Bft) SW 225 0 min 0,0 UV-I 0 W/m 4,5 C 5,9 C 9,7 km/h (2 Bft)
08.10.2022 04:17 5,9 C 3,9 C 91 % 1020,5 hPa 0,0 l/m 6,4 km/h (2 Bft) S-SW 202 0 min 0,0 UV-I 0 W/m 4,5 C 5,9 C 9,7 km/h (2 Bft)
08.10.2022 04:18 6,0 C 4,4 C 91 % 1020,5 hPa 0,0 l/m 4,8 km/h (1 Bft) S-SW 202 0 min 0,0 UV-I 0 W/m 4,6 C 6,0 C 6,4 km/h (2 Bft)
08.10.2022 04:19 5,9 C 4,4 C 90 % 1020,6 hPa 0,0 l/m 4,8 km/h (1 Bft) SW 225 0 min 0,0 UV-I 0 W/m 4,4 C 5,9 C 8,0 km/h (2 Bft)
08.10.2022 04:20 5,9 C 4,4 C 90 % 1020,6 hPa 0,0 l/m 4,8 km/h (1 Bft) SW 225 0 min 0,0 UV-I 0 W/m 4,4 C 5,9 C 6,4 km/h (2 Bft)
08.10.2022 04:21 5,9 C 3,9 C 90 % 1020,5 hPa 0,0 l/m 4,8 km/h (1 Bft) SW 225 0 min 0,0 UV-I 0 W/m 4,4 C 5,9 C 8,0 km/h (2 Bft)
08.10.2022 04:22 5,9 C 3,9 C 90 % 1020,6 hPa 0,0 l/m 3,2 km/h (1 Bft) W-SW 247 0 min 0,0 UV-I 0 W/m 4,4 C 5,9 C 6,4 km/h (2 Bft)
08.10.2022 04:23 5,9 C 4,4 C 90 % 1020,5 hPa 0,0 l/m 3,2 km/h (1 Bft) W-SW 247 0 min 0,0 UV-I 0 W/m 4,4 C 5,9 C 6,4 km/h (2 Bft)
08.10.2022 04:24 5,9 C 3,9 C 90 % 1020,6 hPa 0,0 l/m 4,8 km/h (1 Bft) SW 225 0 min 0,0 UV-I 0 W/m 4,4 C 5,9 C 8,0 km/h (2 Bft)
08.10.2022 04:25 5,9 C 3,9 C 90 % 1020,6 hPa 0,0 l/m 6,4 km/h (2 Bft) W-SW 247 0 min 0,0 UV-I 0 W/m 4,4 C 5,9 C 8,0 km/h (2 Bft)
08.10.2022 04:26 5,9 C 3,9 C 91 % 1020,6 hPa 0,0 l/m 4,8 km/h (1 Bft) SW 225 0 min 0,0 UV-I 0 W/m 4,5 C 5,9 C 6,4 km/h (2 Bft)
08.10.2022 04:27 5,9 C 4,4 C 90 % 1020,6 hPa 0,0 l/m 4,8 km/h (1 Bft) S 180 0 min 0,0 UV-I 0 W/m 4,4 C 5,9 C 8,0 km/h (2 Bft)
08.10.2022 04:28 5,9 C 3,9 C 90 % 1020,6 hPa 0,0 l/m 3,2 km/h (1 Bft) SW 225 0 min 0,0 UV-I 0 W/m 4,4 C 5,9 C 4,8 km/h (1 Bft)
08.10.2022 04:29 5,9 C 3,9 C 90 % 1020,6 hPa 0,0 l/m 6,4 km/h (2 Bft) SW 225 0 min 0,0 UV-I 0 W/m 4,4 C 5,9 C 9,7 km/h (2 Bft)
08.10.2022 04:30 5,9 C 3,9 C 90 % 1020,6 hPa 0,0 l/m 4,8 km/h (1 Bft) S-SW 202 0 min 0,0 UV-I 0 W/m 4,4 C 5,9 C 6,4 km/h (2 Bft)
08.10.2022 04:31 5,9 C 3,9 C 91 % 1020,6 hPa 0,0 l/m 4,8 km/h (1 Bft) S-SW 202 0 min 0,0 UV-I 0 W/m 4,5 C 5,9 C 8,0 km/h (2 Bft)
08.10.2022 04:32 5,9 C 3,9 C 90 % 1020,5 hPa 0,0 l/m 4,8 km/h (1 Bft) SW 225 0 min 0,0 UV-I 0 W/m 4,4 C 5,9 C 8,0 km/h (2 Bft)
08.10.2022 04:33 5,9 C 4,4 C 91 % 1020,5 hPa 0,0 l/m 4,8 km/h (1 Bft) W-SW 247 0 min 0,0 UV-I 0 W/m 4,5 C 5,9 C 8,0 km/h (2 Bft)
08.10.2022 04:34 5,9 C 3,9 C 91 % 1020,5 hPa 0,0 l/m 4,8 km/h (1 Bft) SW 225 0 min 0,0 UV-I 0 W/m 4,5 C 5,9 C 6,4 km/h (2 Bft)
08.10.2022 04:35 5,9 C 3,9 C 91 % 1020,5 hPa 0,0 l/m 4,8 km/h (1 Bft) SW 225 0 min 0,0 UV-I 0 W/m 4,5 C 5,9 C 6,4 km/h (2 Bft)
08.10.2022 04:36 5,9 C 3,9 C 91 % 1020,6 hPa 0,0 l/m 3,2 km/h (1 Bft) SW 225 0 min 0,0 UV-I 0 W/m 4,5 C 5,9 C 6,4 km/h (2 Bft)
08.10.2022 04:37 5,9 C 3,9 C 90 % 1020,5 hPa 0,0 l/m 4,8 km/h (1 Bft) SW 225 0 min 0,0 UV-I 0 W/m 4,4 C 5,9 C 6,4 km/h (2 Bft)
08.10.2022 04:38 5,9 C 3,9 C 91 % 1020,5 hPa 0,0 l/m 3,2 km/h (1 Bft) SW 225 0 min 0,0 UV-I 0 W/m 4,5 C 5,9 C 3,2 km/h (1 Bft)
08.10.2022 04:39 5,9 C 3,9 C 91 % 1020,5 hPa 0,0 l/m 3,2 km/h (1 Bft) SW 225 0 min 0,0 UV-I 0 W/m 4,5 C 5,9 C 4,8 km/h (1 Bft)
08.10.2022 04:40 5,9 C 3,9 C 91 % 1020,5 hPa 0,0 l/m 4,8 km/h (1 Bft) SW 225 0 min 0,0 UV-I 0 W/m 4,5 C 5,9 C 6,4 km/h (2 Bft)
08.10.2022 04:41 5,9 C 3,9 C 90 % 1020,4 hPa 0,0 l/m 3,2 km/h (1 Bft) SW 225 0 min 0,0 UV-I 0 W/m 4,4 C 5,9 C 6,4 km/h (2 Bft)
08.10.2022 04:42 5,9 C 3,9 C 90 % 1020,5 hPa 0,0 l/m 3,2 km/h (1 Bft) SW 225 0 min 0,0 UV-I 0 W/m 4,4 C 5,9 C 4,8 km/h (1 Bft)
08.10.2022 04:43 5,8 C 3,9 C 90 % 1020,5 hPa 0,0 l/m 3,2 km/h (1 Bft) SW 225 0 min 0,0 UV-I 0 W/m 4,3 C 5,8 C 4,8 km/h (1 Bft)
08.10.2022 04:44 5,8 C 3,9 C 90 % 1020,4 hPa 0,0 l/m 4,8 km/h (1 Bft) SW 225 0 min 0,0 UV-I 0 W/m 4,3 C 5,8 C 6,4 km/h (2 Bft)
08.10.2022 04:45 5,9 C 3,9 C 91 % 1020,5 hPa 0,0 l/m 3,2 km/h (1 Bft) W-SW 247 0 min 0,0 UV-I 0 W/m 4,5 C 5,9 C 4,8 km/h (1 Bft)
08.10.2022 04:46 5,9 C 3,9 C 91 % 1020,5 hPa 0,0 l/m 3,2 km/h (1 Bft) SW 225 0 min 0,0 UV-I 0 W/m 4,5 C 5,9 C 6,4 km/h (2 Bft)
08.10.2022 04:47 5,9 C 3,3 C 91 % 1020,4 hPa 0,0 l/m 3,2 km/h (1 Bft) SW 225 0 min 0,0 UV-I 0 W/m 4,5 C 5,9 C 4,8 km/h (1 Bft)
08.10.2022 04:48 5,9 C 3,3 C 90 % 1020,4 hPa 0,0 l/m 4,8 km/h (1 Bft) SW 225 0 min 0,0 UV-I 0 W/m 4,4 C 5,9 C 6,4 km/h (2 Bft)
08.10.2022 04:49 5,9 C 3,3 C 90 % 1020,4 hPa 0,0 l/m 4,8 km/h (1 Bft) SW 225 0 min 0,0 UV-I 0 W/m 4,4 C 5,9 C 6,4 km/h (2 Bft)
08.10.2022 04:50 5,9 C 3,3 C 91 % 1020,4 hPa 0,0 l/m 3,2 km/h (1 Bft) SW 225 0 min 0,0 UV-I 0 W/m 4,5 C 5,9 C 6,4 km/h (2 Bft)
08.10.2022 04:51 5,9 C 3,9 C 91 % 1020,4 hPa 0,0 l/m 4,8 km/h (1 Bft) SW 225 0 min 0,0 UV-I 0 W/m 4,5 C 5,9 C 6,4 km/h (2 Bft)
08.10.2022 04:52 5,9 C 3,9 C 91 % 1020,5 hPa 0,0 l/m 3,2 km/h (1 Bft) SW 225 0 min 0,0 UV-I 0 W/m 4,5 C 5,9 C 4,8 km/h (1 Bft)
08.10.2022 04:53 5,9 C 3,9 C 91 % 1020,4 hPa 0,0 l/m 3,2 km/h (1 Bft) SW 225 0 min 0,0 UV-I 0 W/m 4,5 C 5,9 C 4,8 km/h (1 Bft)
08.10.2022 04:54 6,0 C 3,9 C 91 % 1020,4 hPa 0,0 l/m 4,8 km/h (1 Bft) SW 225 0 min 0,0 UV-I 0 W/m 4,6 C 6,0 C 6,4 km/h (2 Bft)
08.10.2022 04:55 5,9 C 3,9 C 90 % 1020,5 hPa 0,0 l/m 3,2 km/h (1 Bft) SW 225 0 min 0,0 UV-I 0 W/m 4,4 C 5,9 C 4,8 km/h (1 Bft)
08.10.2022 04:56 5,9 C 3,9 C 90 % 1020,5 hPa 0,0 l/m 3,2 km/h (1 Bft) SW 225 0 min 0,0 UV-I 0 W/m 4,4 C 5,9 C 4,8 km/h (1 Bft)
08.10.2022 04:57 5,8 C 3,9 C 90 % 1020,5 hPa 0,0 l/m 1,6 km/h (1 Bft) SW 225 0 min 0,0 UV-I 0 W/m 4,3 C 5,8 C 4,8 km/h (1 Bft)
08.10.2022 04:58 5,8 C 3,3 C 90 % 1020,5 hPa 0,0 l/m 0,0 km/h (0 Bft) SW 225 0 min 0,0 UV-I 0 W/m 4,3 C 5,8 C 1,6 km/h (1 Bft)
08.10.2022 04:59 5,8 C 3,3 C 90 % 1020,5 hPa 0,0 l/m 1,6 km/h (1 Bft) SW 225 0 min 0,0 UV-I 0 W/m 4,3 C 5,8 C 3,2 km/h (1 Bft)
08.10.2022 05:00 5,7 C 3,3 C 90 % 1020,4 hPa 0,0 l/m 1,6 km/h (1 Bft) SW 225 0 min 0,0 UV-I 0 W/m 4,2 C 5,7 C 1,6 km/h (1 Bft)
08.10.2022 05:01 5,7 C 2,8 C 90 % 1020,5 hPa 0,0 l/m 1,6 km/h (1 Bft) SW 225 0 min 0,0 UV-I 0 W/m 4,2 C 5,7 C 3,2 km/h (1 Bft)
08.10.2022 05:02 5,6 C 2,8 C 90 % 1020,6 hPa 0,0 l/m 3,2 km/h (1 Bft) SW 225 0 min 0,0 UV-I 0 W/m 4,1 C 5,6 C 4,8 km/h (1 Bft)
08.10.2022 05:03 5,6 C 2,8 C 90 % 1020,4 hPa 0,0 l/m 1,6 km/h (1 Bft) SW 225 0 min 0,0 UV-I 0 W/m 4,1 C 5,6 C 3,2 km/h (1 Bft)
08.10.2022 05:04 5,5 C 2,8 C 90 % 1020,4 hPa 0,0 l/m 1,6 km/h (1 Bft) SW 225 0 min 0,0 UV-I 0 W/m 4,0 C 5,5 C 4,8 km/h (1 Bft)
08.10.2022 05:05 5,5 C 2,8 C 90 % 1020,4 hPa 0,0 l/m 3,2 km/h (1 Bft) S-SW 202 0 min 0,0 UV-I 0 W/m 4,0 C 5,5 C 6,4 km/h (2 Bft)
08.10.2022 05:06 5,4 C 2,8 C 91 % 1020,4 hPa 0,0 l/m 3,2 km/h (1 Bft) S-SW 202 0 min 0,0 UV-I 0 W/m 4,1 C 5,4 C 6,4 km/h (2 Bft)
08.10.2022 05:07 5,5 C 2,8 C 91 % 1020,5 hPa 0,0 l/m 3,2 km/h (1 Bft) S-SW 202 0 min 0,0 UV-I 0 W/m 4,2 C 5,5 C 4,8 km/h (1 Bft)
08.10.2022 05:08 5,6 C 2,8 C 91 % 1020,4 hPa 0,0 l/m 4,8 km/h (1 Bft) S-SW 202 0 min 0,0 UV-I 0 W/m 4,2 C 5,6 C 4,8 km/h (1 Bft)
08.10.2022 05:09 5,6 C 3,3 C 91 % 1020,5 hPa 0,0 l/m 3,2 km/h (1 Bft) SW 225 0 min 0,0 UV-I 0 W/m 4,2 C 5,6 C 4,8 km/h (1 Bft)
08.10.2022 05:10 5,6 C 3,3 C 91 % 1020,5 hPa 0,0 l/m 4,8 km/h (1 Bft) W-SW 247 0 min 0,0 UV-I 0 W/m 4,2 C 5,6 C 6,4 km/h (2 Bft)
08.10.2022 05:11 5,7 C 3,9 C 91 % 1020,5 hPa 0,0 l/m 4,8 km/h (1 Bft) SW 225 0 min 0,0 UV-I 0 W/m 4,3 C 5,7 C 4,8 km/h (1 Bft)
08.10.2022 05:12 5,8 C 3,9 C 91 % 1020,5 hPa 0,0 l/m 3,2 km/h (1 Bft) SW 225 0 min 0,0 UV-I 0 W/m 4,4 C 5,8 C 6,4 km/h (2 Bft)
08.10.2022 05:13 5,8 C 3,9 C 91 % 1020,5 hPa 0,0 l/m 3,2 km/h (1 Bft) SW 225 0 min 0,0 UV-I 0 W/m 4,4 C 5,8 C 4,8 km/h (1 Bft)
08.10.2022 05:14 5,8 C 3,9 C 91 % 1020,5 hPa 0,0 l/m 1,6 km/h (1 Bft) SW 225 0 min 0,0 UV-I 0 W/m 4,4 C 5,8 C 4,8 km/h (1 Bft)
08.10.2022 05:15 5,9 C 3,9 C 91 % 1020,5 hPa 0,0 l/m 3,2 km/h (1 Bft) SW 225 0 min 0,0 UV-I 0 W/m 4,5 C 5,9 C 4,8 km/h (1 Bft)
08.10.2022 05:16 5,8 C 3,3 C 91 % 1020,5 hPa 0,0 l/m 1,6 km/h (1 Bft) SW 225 0 min 0,0 UV-I 0 W/m 4,4 C 5,8 C 3,2 km/h (1 Bft)
08.10.2022 05:17 5,8 C 3,3 C 91 % 1020,4 hPa 0,0 l/m 1,6 km/h (1 Bft) SW 225 0 min 0,0 UV-I 0 W/m 4,4 C 5,8 C 3,2 km/h (1 Bft)
08.10.2022 05:18 5,9 C 3,9 C 91 % 1020,4 hPa 0,0 l/m 1,6 km/h (1 Bft) SW 225 0 min 0,0 UV-I 0 W/m 4,5 C 5,9 C 3,2 km/h (1 Bft)
08.10.2022 05:19 5,9 C 3,9 C 91 % 1020,4 hPa 0,0 l/m 1,6 km/h (1 Bft) SW 225 0 min 0,0 UV-I 0 W/m 4,5 C 5,9 C 1,6 km/h (1 Bft)
08.10.2022 05:20 5,8 C 3,3 C 90 % 1020,5 hPa 0,0 l/m 1,6 km/h (1 Bft) SW 225 0 min 0,0 UV-I 0 W/m 4,3 C 5,8 C 3,2 km/h (1 Bft)
08.10.2022 05:21 5,8 C 3,3 C 90 % 1020,5 hPa 0,0 l/m 0,0 km/h (0 Bft) SW 225 0 min 0,0 UV-I 0 W/m 4,3 C 5,8 C 1,6 km/h (1 Bft)
08.10.2022 05:22 5,7 C 3,3 C 91 % 1020,5 hPa 0,0 l/m 0,0 km/h (0 Bft) SW 225 0 min 0,0 UV-I 0 W/m 4,3 C 5,7 C 1,6 km/h (1 Bft)
08.10.2022 05:23 5,7 C 3,3 C 91 % 1020,4 hPa 0,0 l/m 0,0 km/h (0 Bft) SW 225 0 min 0,0 UV-I 0 W/m 4,3 C 5,7 C 1,6 km/h (1 Bft)
08.10.2022 05:24 5,7 C 3,3 C 91 % 1020,4 hPa 0,0 l/m 1,6 km/h (1 Bft) SW 225 0 min 0,0 UV-I 0 W/m 4,3 C 5,7 C 4,8 km/h (1 Bft)
08.10.2022 05:25 5,8 C 3,3 C 91 % 1020,4 hPa 0,0 l/m 0,0 km/h (0 Bft) SW 225 0 min 0,0 UV-I 0 W/m 4,4 C 5,8 C 1,6 km/h (1 Bft)
08.10.2022 05:26 5,7 C 3,3 C 91 % 1020,5 hPa 0,0 l/m 1,6 km/h (1 Bft) SW 225 0 min 0,0 UV-I 0 W/m 4,3 C 5,7 C 3,2 km/h (1 Bft)
08.10.2022 05:27 5,7 C 3,3 C 91 % 1020,4 hPa 0,0 l/m 1,6 km/h (1 Bft) SW 225 0 min 0,0 UV-I 0 W/m 4,3 C 5,7 C 3,2 km/h (1 Bft)
08.10.2022 05:28 5,7 C 3,3 C 91 % 1020,4 hPa 0,0 l/m 1,6 km/h (1 Bft) SW 225 0 min 0,0 UV-I 0 W/m 4,3 C 5,7 C 3,2 km/h (1 Bft)
08.10.2022 05:29 5,7 C 3,9 C 91 % 1020,5 hPa 0,0 l/m 1,6 km/h (1 Bft) SW 225 0 min 0,0 UV-I 0 W/m 4,3 C 5,7 C 3,2 km/h (1 Bft)
08.10.2022 05:30 5,7 C 3,9 C 91 % 1020,5 hPa 0,0 l/m 1,6 km/h (1 Bft) SW 225 0 min 0,0 UV-I 0 W/m 4,3 C 5,7 C 3,2 km/h (1 Bft)
08.10.2022 05:31 5,7 C 3,9 C 91 % 1020,5 hPa 0,0 l/m 1,6 km/h (1 Bft) SW 225 0 min 0,0 UV-I 0 W/m 4,3 C 5,7 C 3,2 km/h (1 Bft)
08.10.2022 05:32 5,7 C 3,9 C 91 % 1020,5 hPa 0,0 l/m 1,6 km/h (1 Bft) SW 225 0 min 0,0 UV-I 0 W/m 4,3 C 5,7 C 3,2 km/h (1 Bft)
08.10.2022 05:33 5,7 C 3,3 C 91 % 1020,5 hPa 0,0 l/m 0,0 km/h (0 Bft) SW 225 0 min 0,0 UV-I 0 W/m 4,3 C 5,7 C 1,6 km/h (1 Bft)
08.10.2022 05:34 5,8 C 3,3 C 91 % 1020,6 hPa 0,0 l/m 0,0 km/h (0 Bft) N 0 0 min 0,0 UV-I 0 W/m 4,4 C 5,8 C 0,0 km/h (0 Bft)
08.10.2022 05:35 5,7 C 3,3 C 91 % 1020,5 hPa 0,0 l/m 1,6 km/h (1 Bft) SW 225 0 min 0,0 UV-I 0 W/m 4,3 C 5,7 C 1,6 km/h (1 Bft)
08.10.2022 05:36 5,7 C 3,3 C 91 % 1020,6 hPa 0,0 l/m 0,0 km/h (0 Bft) SW 225 0 min 0,0 UV-I 0 W/m 4,3 C 5,7 C 1,6 km/h (1 Bft)
08.10.2022 05:37 5,7 C 3,3 C 91 % 1020,5 hPa 0,0 l/m 0,0 km/h (0 Bft) SW 225 0 min 0,0 UV-I 0 W/m 4,3 C 5,7 C 1,6 km/h (1 Bft)
08.10.2022 05:38 5,6 C 3,3 C 91 % 1020,5 hPa 0,0 l/m 0,0 km/h (0 Bft) N 0 0 min 0,0 UV-I 0 W/m 4,2 C 5,6 C 0,0 km/h (0 Bft)
08.10.2022 05:39 5,6 C 3,3 C 91 % 1020,6 hPa 0,0 l/m 0,0 km/h (0 Bft) SW 225 0 min 0,0 UV-I 0 W/m 4,2 C 5,6 C 1,6 km/h (1 Bft)
08.10.2022 05:40 5,6 C 3,3 C 91 % 1020,5 hPa 0,0 l/m 0,0 km/h (0 Bft) SW 225 0 min 0,0 UV-I 0 W/m 4,2 C 5,6 C 1,6 km/h (1 Bft)
08.10.2022 05:41 5,6 C 3,3 C 91 % 1020,5 hPa 0,0 l/m 1,6 km/h (1 Bft) SW 225 0 min 0,0 UV-I 0 W/m 4,2 C 5,6 C 3,2 km/h (1 Bft)
08.10.2022 05:42 5,6 C 3,3 C 91 % 1020,5 hPa 0,0 l/m 0,0 km/h (0 Bft) SW 225 0 min 0,0 UV-I 0 W/m 4,2 C 5,6 C 1,6 km/h (1 Bft)
08.10.2022 05:43 5,6 C 3,3 C 91 % 1020,6 hPa 0,0 l/m 0,0 km/h (0 Bft) SW 225 0 min 0,0 UV-I 0 W/m 4,2 C 5,6 C 1,6 km/h (1 Bft)
08.10.2022 05:44 5,6 C 3,3 C 91 % 1020,6 hPa 0,0 l/m 0,0 km/h (0 Bft) SW 225 0 min 0,0 UV-I 0 W/m 4,2 C 5,6 C 1,6 km/h (1 Bft)
08.10.2022 05:45 5,6 C 3,3 C 91 % 1020,6 hPa 0,0 l/m 3,2 km/h (1 Bft) SW 225 0 min 0,0 UV-I 0 W/m 4,2 C 5,6 C 4,8 km/h (1 Bft)
08.10.2022 05:46 5,6 C 3,3 C 91 % 1020,6 hPa 0,0 l/m 1,6 km/h (1 Bft) SW 225 0 min 0,0 UV-I 0 W/m 4,2 C 5,6 C 4,8 km/h (1 Bft)
08.10.2022 05:47 5,6 C 3,3 C 91 % 1020,6 hPa 0,0 l/m 1,6 km/h (1 Bft) SW 225 0 min 0,0 UV-I 0 W/m 4,2 C 5,6 C 4,8 km/h (1 Bft)
08.10.2022 05:48 5,6 C 2,8 C 91 % 1020,6 hPa 0,0 l/m 3,2 km/h (1 Bft) SW 225 0 min 0,0 UV-I 0 W/m 4,2 C 5,6 C 4,8 km/h (1 Bft)
08.10.2022 05:49 5,6 C 2,8 C 91 % 1020,6 hPa 0,0 l/m 3,2 km/h (1 Bft) SW 225 0 min 0,0 UV-I 0 W/m 4,2 C 5,6 C 4,8 km/h (1 Bft)
08.10.2022 05:50 5,6 C 2,8 C 91 % 1020,6 hPa 0,0 l/m 1,6 km/h (1 Bft) SW 225 0 min 0,0 UV-I 0 W/m 4,2 C 5,6 C 3,2 km/h (1 Bft)
08.10.2022 05:51 5,6 C 2,8 C 91 % 1020,7 hPa 0,0 l/m 1,6 km/h (1 Bft) SW 225 0 min 0,0 UV-I 0 W/m 4,2 C 5,6 C 3,2 km/h (1 Bft)
08.10.2022 05:52 5,6 C 2,8 C 91 % 1020,7 hPa 0,0 l/m 1,6 km/h (1 Bft) SW 225 0 min 0,0 UV-I 0 W/m 4,2 C 5,6 C 4,8 km/h (1 Bft)
08.10.2022 05:53 5,5 C 3,3 C 91 % 1020,6 hPa 0,0 l/m 1,6 km/h (1 Bft) SW 225 0 min 0,0 UV-I 0 W/m 4,2 C 5,5 C 3,2 km/h (1 Bft)
08.10.2022 05:54 5,5 C 2,8 C 91 % 1020,6 hPa 0,0 l/m 0,0 km/h (0 Bft) SW 225 0 min 0,0 UV-I 0 W/m 4,2 C 5,5 C 1,6 km/h (1 Bft)
08.10.2022 05:55 5,5 C 2,8 C 91 % 1020,6 hPa 0,0 l/m 1,6 km/h (1 Bft) SW 225 0 min 0,0 UV-I 0 W/m 4,2 C 5,5 C 4,8 km/h (1 Bft)
08.10.2022 05:56 5,6 C 2,8 C 91 % 1020,5 hPa 0,0 l/m 3,2 km/h (1 Bft) SW 225 0 min 0,0 UV-I 0 W/m 4,2 C 5,6 C 4,8 km/h (1 Bft)
08.10.2022 05:57 5,6 C 2,8 C 91 % 1020,6 hPa 0,0 l/m 1,6 km/h (1 Bft) SW 225 0 min 0,0 UV-I 0 W/m 4,2 C 5,6 C 3,2 km/h (1 Bft)
08.10.2022 05:58 5,6 C 3,3 C 91 % 1020,4 hPa 0,0 l/m 3,2 km/h (1 Bft) SW 225 0 min 0,0 UV-I 0 W/m 4,2 C 5,6 C 6,4 km/h (2 Bft)
08.10.2022 05:59 5,6 C 3,3 C 91 % 1020,5 hPa 0,0 l/m 3,2 km/h (1 Bft) SW 225 0 min 0,0 UV-I 0 W/m 4,2 C 5,6 C 4,8 km/h (1 Bft)
08.10.2022 06:00 5,7 C 2,8 C 91 % 1020,5 hPa 0,0 l/m 3,2 km/h (1 Bft) SW 225 0 min 0,0 UV-I 0 W/m 4,3 C 5,7 C 4,8 km/h (1 Bft)
08.10.2022 06:01 5,7 C 3,3 C 92 % 1020,5 hPa 0,0 l/m 8,0 km/h (2 Bft) SW 225 0 min 0,0 UV-I 0 W/m 4,5 C 4,3 C 11,3 km/h (2 Bft)
08.10.2022 06:02 5,7 C 3,9 C 92 % 1020,4 hPa 0,0 l/m 4,8 km/h (1 Bft) SW 225 0 min 0,0 UV-I 0 W/m 4,5 C 5,7 C 6,4 km/h (2 Bft)
08.10.2022 06:03 5,8 C 3,9 C 92 % 1020,5 hPa 0,0 l/m 8,0 km/h (2 Bft) SW 225 0 min 0,0 UV-I 0 W/m 4,6 C 4,4 C 12,9 km/h (3 Bft)
08.10.2022 06:04 5,9 C 4,4 C 92 % 1020,5 hPa 0,0 l/m 6,4 km/h (2 Bft) S-SW 202 0 min 0,0 UV-I 0 W/m 4,7 C 5,9 C 11,3 km/h (2 Bft)
08.10.2022 06:05 6,0 C 5,0 C 92 % 1020,5 hPa 0,0 l/m 6,4 km/h (2 Bft) S-SW 202 0 min 0,0 UV-I 0 W/m 4,8 C 6,0 C 11,3 km/h (2 Bft)
08.10.2022 06:06 6,1 C 5,0 C 92 % 1020,5 hPa 0,0 l/m 6,4 km/h (2 Bft) SW 225 0 min 0,0 UV-I 0 W/m 4,9 C 6,1 C 8,0 km/h (2 Bft)
08.10.2022 06:07 6,2 C 5,0 C 92 % 1020,5 hPa 0,0 l/m 6,4 km/h (2 Bft) S-SW 202 0 min 0,0 UV-I 0 W/m 5,0 C 6,2 C 8,0 km/h (2 Bft)
08.10.2022 06:08 6,2 C 5,0 C 92 % 1020,5 hPa 0,0 l/m 4,8 km/h (1 Bft) SW 225 0 min 0,0 UV-I 0 W/m 5,0 C 6,2 C 6,4 km/h (2 Bft)
08.10.2022 06:09 6,2 C 5,0 C 92 % 1020,5 hPa 0,0 l/m 4,8 km/h (1 Bft) SW 225 0 min 0,0 UV-I 0 W/m 5,0 C 6,2 C 8,0 km/h (2 Bft)
08.10.2022 06:10 6,3 C 5,0 C 92 % 1020,6 hPa 0,0 l/m 3,2 km/h (1 Bft) SW 225 0 min 0,0 UV-I 0 W/m 5,1 C 6,3 C 9,7 km/h (2 Bft)
08.10.2022 06:11 6,3 C 5,6 C 92 % 1020,5 hPa 0,0 l/m 8,0 km/h (2 Bft) SW 225 0 min 0,0 UV-I 0 W/m 5,1 C 5,0 C 12,9 km/h (3 Bft)
08.10.2022 06:12 6,3 C 5,6 C 92 % 1020,6 hPa 0,0 l/m 6,4 km/h (2 Bft) SW 225 0 min 0,0 UV-I 0 W/m 5,1 C 6,3 C 8,0 km/h (2 Bft)
08.10.2022 06:13 6,4 C 5,6 C 92 % 1020,6 hPa 0,0 l/m 3,2 km/h (1 Bft) SW 225 0 min 0,0 UV-I 0 W/m 5,2 C 6,4 C 4,8 km/h (1 Bft)
08.10.2022 06:14 6,4 C 5,6 C 92 % 1020,6 hPa 0,0 l/m 6,4 km/h (2 Bft) S-SW 202 0 min 0,0 UV-I 0 W/m 5,2 C 6,4 C 9,7 km/h (2 Bft)
08.10.2022 06:15 6,5 C 5,6 C 92 % 1020,5 hPa 0,0 l/m 3,2 km/h (1 Bft) W-SW 247 0 min 0,0 UV-I 0 W/m 5,3 C 6,5 C 6,4 km/h (2 Bft)
08.10.2022 06:16 6,6 C 5,6 C 92 % 1020,6 hPa 0,0 l/m 3,2 km/h (1 Bft) SW 225 0 min 0,0 UV-I 0 W/m 5,4 C 6,6 C 6,4 km/h (2 Bft)
08.10.2022 06:17 6,6 C 5,6 C 92 % 1020,6 hPa 0,0 l/m 3,2 km/h (1 Bft) S-SW 202 0 min 0,0 UV-I 0 W/m 5,4 C 6,6 C 4,8 km/h (1 Bft)
08.10.2022 06:18 6,6 C 5,6 C 92 % 1020,7 hPa 0,0 l/m 3,2 km/h (1 Bft) S-SW 202 0 min 0,0 UV-I 0 W/m 5,4 C 6,6 C 4,8 km/h (1 Bft)
08.10.2022 06:19 6,7 C 5,6 C 92 % 1020,6 hPa 0,0 l/m 4,8 km/h (1 Bft) S-SW 202 0 min 0,0 UV-I 0 W/m 5,5 C 6,7 C 6,4 km/h (2 Bft)
08.10.2022 06:20 6,7 C 5,6 C 91 % 1020,6 hPa 0,0 l/m 6,4 km/h (2 Bft) S-SW 202 0 min 0,0 UV-I 0 W/m 5,3 C 6,7 C 9,7 km/h (2 Bft)
08.10.2022 06:21 6,7 C 5,6 C 91 % 1020,7 hPa 0,0 l/m 4,8 km/h (1 Bft) S-SW 202 0 min 0,0 UV-I 0 W/m 5,3 C 6,7 C 8,0 km/h (2 Bft)
08.10.2022 06:22 6,7 C 5,6 C 91 % 1020,6 hPa 0,0 l/m 6,4 km/h (2 Bft) S-SW 202 0 min 0,0 UV-I 0 W/m 5,3 C 6,7 C 8,0 km/h (2 Bft)
08.10.2022 06:23 6,8 C 5,6 C 91 % 1020,6 hPa 0,0 l/m 8,0 km/h (2 Bft) S-SW 202 0 min 0,0 UV-I 0 W/m 5,4 C 5,5 C 11,3 km/h (2 Bft)
08.10.2022 06:24 6,8 C 6,1 C 92 % 1020,7 hPa 0,0 l/m 6,4 km/h (2 Bft) S-SW 202 0 min 0,0 UV-I 0 W/m 5,6 C 6,8 C 9,7 km/h (2 Bft)
08.10.2022 06:25 6,9 C 6,1 C 92 % 1020,7 hPa 0,0 l/m 6,4 km/h (2 Bft) S-SW 202 0 min 0,0 UV-I 0 W/m 5,7 C 6,9 C 9,7 km/h (2 Bft)
08.10.2022 06:26 6,9 C 6,1 C 92 % 1020,7 hPa 0,0 l/m 8,0 km/h (2 Bft) S-SW 202 0 min 0,0 UV-I 0 W/m 5,7 C 5,6 C 11,3 km/h (2 Bft)
08.10.2022 06:27 7,1 C 6,1 C 92 % 1020,7 hPa 0,0 l/m 8,0 km/h (2 Bft) S-SW 202 0 min 0,0 UV-I 0 W/m 5,9 C 5,8 C 11,3 km/h (2 Bft)
08.10.2022 06:28 7,1 C 6,7 C 92 % 1020,7 hPa 0,0 l/m 6,4 km/h (2 Bft) S-SW 202 0 min 0,0 UV-I 0 W/m 5,9 C 7,1 C 9,7 km/h (2 Bft)
08.10.2022 06:29 7,2 C 6,7 C 91 % 1020,7 hPa 0,0 l/m 6,4 km/h (2 Bft) S-SW 202 0 min 0,0 UV-I 0 W/m 5,8 C 7,2 C 9,7 km/h (2 Bft)
08.10.2022 06:30 7,2 C 6,7 C 92 % 1020,7 hPa 0,0 l/m 11,3 km/h (2 Bft) S-SW 202 0 min 0,0 UV-I 0 W/m 6,0 C 3,7 C 14,5 km/h (3 Bft)
08.10.2022 06:31 7,3 C 6,7 C 91 % 1020,7 hPa 0,0 l/m 9,7 km/h (2 Bft) S-SW 202 0 min 0,0 UV-I 0 W/m 5,9 C 4,8 C 11,3 km/h (2 Bft)
08.10.2022 06:32 7,3 C 6,7 C 91 % 1020,8 hPa 0,0 l/m 12,9 km/h (3 Bft) S-SW 202 0 min 0,0 UV-I 0 W/m 5,9 C 2,9 C 14,5 km/h (3 Bft)
08.10.2022 06:33 7,3 C 6,7 C 91 % 1020,7 hPa 0,0 l/m 12,9 km/h (3 Bft) S-SW 202 0 min 0,0 UV-I 0 W/m 5,9 C 2,9 C 14,5 km/h (3 Bft)
08.10.2022 06:34 7,3 C 6,7 C 91 % 1020,7 hPa 0,0 l/m 8,0 km/h (2 Bft) S-SW 202 0 min 0,0 UV-I 0 W/m 5,9 C 6,0 C 16,1 km/h (3 Bft)
08.10.2022 06:35 7,3 C 6,7 C 91 % 1020,7 hPa 0,0 l/m 6,4 km/h (2 Bft) S-SW 202 0 min 0,0 UV-I 0 W/m 5,9 C 7,3 C 9,7 km/h (2 Bft)
08.10.2022 06:36 7,3 C 6,7 C 91 % 1020,7 hPa 0,0 l/m 6,4 km/h (2 Bft) S-SW 202 0 min 0,0 UV-I 0 W/m 5,9 C 7,3 C 9,7 km/h (2 Bft)
08.10.2022 06:37 7,3 C 6,7 C 91 % 1020,7 hPa 0,0 l/m 8,0 km/h (2 Bft) S-SW 202 0 min 0,0 UV-I 0 W/m 5,9 C 6,0 C 9,7 km/h (2 Bft)
08.10.2022 06:38 7,3 C 6,7 C 91 % 1020,7 hPa 0,0 l/m 8,0 km/h (2 Bft) S-SW 202 0 min 0,0 UV-I 0 W/m 5,9 C 6,0 C 9,7 km/h (2 Bft)
08.10.2022 06:39 7,3 C 6,7 C 91 % 1020,7 hPa 0,0 l/m 6,4 km/h (2 Bft) S-SW 202 0 min 0,0 UV-I 0 W/m 5,9 C 7,3 C 9,7 km/h (2 Bft)
08.10.2022 06:40 7,3 C 6,7 C 91 % 1020,7 hPa 0,0 l/m 8,0 km/h (2 Bft) S-SW 202 0 min 0,0 UV-I 0 W/m 5,9 C 6,0 C 9,7 km/h (2 Bft)
08.10.2022 06:41 7,3 C 6,7 C 91 % 1020,7 hPa 0,0 l/m 6,4 km/h (2 Bft) S-SW 202 0 min 0,0 UV-I 0 W/m 5,9 C 7,3 C 8,0 km/h (2 Bft)
08.10.2022 06:42 7,3 C 6,7 C 91 % 1020,8 hPa 0,0 l/m 8,0 km/h (2 Bft) S-SW 202 0 min 0,0 UV-I 0 W/m 5,9 C 6,0 C 12,9 km/h (3 Bft)
08.10.2022 06:43 7,3 C 6,7 C 91 % 1020,8 hPa 0,0 l/m 8,0 km/h (2 Bft) S-SW 202 0 min 0,0 UV-I 0 W/m 5,9 C 6,0 C 9,7 km/h (2 Bft)
08.10.2022 06:44 7,3 C 6,7 C 91 % 1020,8 hPa 0,0 l/m 9,7 km/h (2 Bft) S-SW 202 0 min 0,0 UV-I 0 W/m 5,9 C 4,8 C 11,3 km/h (2 Bft)
08.10.2022 06:45 7,3 C 6,7 C 91 % 1020,8 hPa 0,0 l/m 8,0 km/h (2 Bft) S-SW 202 0 min 0,0 UV-I 0 W/m 5,9 C 6,0 C 9,7 km/h (2 Bft)
08.10.2022 06:46 7,4 C 6,7 C 91 % 1020,9 hPa 0,0 l/m 8,0 km/h (2 Bft) S-SW 202 0 min 0,0 UV-I 0 W/m 6,0 C 6,1 C 11,3 km/h (2 Bft)
08.10.2022 06:47 7,4 C 6,7 C 91 % 1020,8 hPa 0,0 l/m 11,3 km/h (2 Bft) S-SW 202 0 min 0,0 UV-I 0 W/m 6,0 C 3,9 C 12,9 km/h (3 Bft)
08.10.2022 06:48 7,4 C 6,7 C 91 % 1020,8 hPa 0,0 l/m 9,7 km/h (2 Bft) S-SW 202 0 min 0,0 UV-I 0 W/m 6,0 C 4,9 C 11,3 km/h (2 Bft)
08.10.2022 06:49 7,4 C 6,7 C 91 % 1020,8 hPa 0,0 l/m 9,7 km/h (2 Bft) S-SW 202 0 min 0,0 UV-I 0 W/m 6,0 C 4,9 C 11,3 km/h (2 Bft)
08.10.2022 06:50 7,4 C 6,7 C 91 % 1020,8 hPa 0,0 l/m 8,0 km/h (2 Bft) S-SW 202 0 min 0,0 UV-I 0 W/m 6,0 C 6,1 C 11,3 km/h (2 Bft)
08.10.2022 06:51 7,4 C 6,7 C 90 % 1020,9 hPa 0,0 l/m 8,0 km/h (2 Bft) S-SW 202 0 min 0,0 UV-I 0 W/m 5,9 C 6,1 C 12,9 km/h (3 Bft)
08.10.2022 06:52 7,4 C 6,7 C 90 % 1020,8 hPa 0,0 l/m 9,7 km/h (2 Bft) S-SW 202 0 min 0,0 UV-I 0 W/m 5,9 C 4,9 C 11,3 km/h (2 Bft)
08.10.2022 06:53 7,4 C 6,7 C 90 % 1020,9 hPa 0,0 l/m 9,7 km/h (2 Bft) S-SW 202 0 min 0,0 UV-I 0 W/m 5,9 C 4,9 C 11,3 km/h (2 Bft)
08.10.2022 06:54 7,4 C 6,7 C 90 % 1021,0 hPa 0,0 l/m 8,0 km/h (2 Bft) SW 225 0 min 0,0 UV-I 0 W/m 5,9 C 6,1 C 9,7 km/h (2 Bft)
08.10.2022 06:55 7,4 C 6,7 C 90 % 1021,0 hPa 0,0 l/m 6,4 km/h (2 Bft) SW 225 0 min 0,0 UV-I 0 W/m 5,9 C 7,4 C 9,7 km/h (2 Bft)
08.10.2022 06:56 7,4 C 6,7 C 90 % 1021,0 hPa 0,0 l/m 8,0 km/h (2 Bft) SW 225 0 min 0,0 UV-I 0 W/m 5,9 C 6,1 C 11,3 km/h (2 Bft)
08.10.2022 06:57 7,4 C 6,7 C 90 % 1021,0 hPa 0,0 l/m 9,7 km/h (2 Bft) SW 225 0 min 0,0 UV-I 0 W/m 5,9 C 4,9 C 11,3 km/h (2 Bft)
08.10.2022 06:58 7,4 C 6,7 C 90 % 1021,0 hPa 0,0 l/m 8,0 km/h (2 Bft) SW 225 0 min 0,0 UV-I 0 W/m 5,9 C 6,1 C 11,3 km/h (2 Bft)
08.10.2022 06:59 7,4 C 6,7 C 90 % 1021,0 hPa 0,0 l/m 8,0 km/h (2 Bft) S-SW 202 0 min 0,0 UV-I 0 W/m 5,9 C 6,1 C 11,3 km/h (2 Bft)
08.10.2022 07:00 7,4 C 6,7 C 90 % 1021,0 hPa 0,0 l/m 8,0 km/h (2 Bft) SW 225 0 min 0,0 UV-I 0 W/m 5,9 C 6,1 C 11,3 km/h (2 Bft)
08.10.2022 07:01 7,4 C 6,7 C 90 % 1020,9 hPa 0,0 l/m 8,0 km/h (2 Bft) S-SW 202 0 min 0,0 UV-I 0 W/m 5,9 C 6,1 C 9,7 km/h (2 Bft)
08.10.2022 07:02 7,4 C 6,7 C 90 % 1021,0 hPa 0,0 l/m 6,4 km/h (2 Bft) S-SW 202 0 min 0,0 UV-I 0 W/m 5,9 C 7,4 C 8,0 km/h (2 Bft)
08.10.2022 07:03 7,4 C 6,7 C 90 % 1021,0 hPa 0,0 l/m 8,0 km/h (2 Bft) S-SW 202 0 min 0,0 UV-I 0 W/m 5,9 C 6,1 C 11,3 km/h (2 Bft)
08.10.2022 07:04 7,3 C 6,7 C 90 % 1021,0 hPa 0,0 l/m 9,7 km/h (2 Bft) S-SW 202 0 min 0,0 UV-I 0 W/m 5,8 C 4,8 C 11,3 km/h (2 Bft)
08.10.2022 07:05 7,4 C 6,7 C 90 % 1021,0 hPa 0,0 l/m 6,4 km/h (2 Bft) S-SW 202 0 min 0,0 UV-I 0 W/m 5,9 C 7,4 C 9,7 km/h (2 Bft)
08.10.2022 07:06 7,3 C 6,7 C 90 % 1021,0 hPa 0,0 l/m 6,4 km/h (2 Bft) S-SW 202 0 min 0,0 UV-I 0 W/m 5,8 C 7,3 C 9,7 km/h (2 Bft)
08.10.2022 07:07 7,3 C 6,7 C 90 % 1021,0 hPa 0,0 l/m 9,7 km/h (2 Bft) S-SW 202 0 min 0,0 UV-I 0 W/m 5,8 C 4,8 C 12,9 km/h (3 Bft)
08.10.2022 07:08 7,3 C 6,7 C 90 % 1021,1 hPa 0,0 l/m 8,0 km/h (2 Bft) S-SW 202 0 min 0,0 UV-I 0 W/m 5,8 C 6,0 C 9,7 km/h (2 Bft)
08.10.2022 07:09 7,3 C 6,7 C 90 % 1021,0 hPa 0,0 l/m 9,7 km/h (2 Bft) S-SW 202 0 min 0,0 UV-I 0 W/m 5,8 C 4,8 C 12,9 km/h (3 Bft)
08.10.2022 07:10 7,3 C 6,7 C 90 % 1021,0 hPa 0,0 l/m 8,0 km/h (2 Bft) S-SW 202 0 min 0,0 UV-I 0 W/m 5,8 C 6,0 C 11,3 km/h (2 Bft)
08.10.2022 07:11 7,3 C 6,7 C 90 % 1021,0 hPa 0,0 l/m 9,7 km/h (2 Bft) SW 225 0 min 0,0 UV-I 0 W/m 5,8 C 4,8 C 14,5 km/h (3 Bft)
08.10.2022 07:12 7,3 C 6,7 C 90 % 1021,0 hPa 0,0 l/m 9,7 km/h (2 Bft) S-SW 202 0 min 0,0 UV-I 0 W/m 5,8 C 4,8 C 12,9 km/h (3 Bft)
08.10.2022 07:13 7,3 C 6,7 C 90 % 1020,9 hPa 0,0 l/m 9,7 km/h (2 Bft) S 180 0 min 0,0 UV-I 0 W/m 5,8 C 4,8 C 12,9 km/h (3 Bft)
08.10.2022 07:14 7,3 C 6,7 C 90 % 1021,0 hPa 0,0 l/m 9,7 km/h (2 Bft) S-SW 202 0 min 0,0 UV-I 0 W/m 5,8 C 4,8 C 12,9 km/h (3 Bft)
08.10.2022 07:15 7,3 C 6,7 C 90 % 1020,9 hPa 0,0 l/m 9,7 km/h (2 Bft) S-SW 202 0 min 0,0 UV-I 0 W/m 5,8 C 4,8 C 12,9 km/h (3 Bft)
08.10.2022 07:16 7,2 C 6,7 C 90 % 1021,0 hPa 0,0 l/m 9,7 km/h (2 Bft) S-SW 202 0 min 0,0 UV-I 0 W/m 5,7 C 4,7 C 14,5 km/h (3 Bft)
08.10.2022 07:17 7,3 C 6,7 C 91 % 1021,0 hPa 0,0 l/m 9,7 km/h (2 Bft) S-SW 202 0 min 0,0 UV-I 0 W/m 5,9 C 4,8 C 12,9 km/h (3 Bft)
08.10.2022 07:18 7,3 C 6,7 C 91 % 1021,0 hPa 0,0 l/m 8,0 km/h (2 Bft) S-SW 202 0 min 0,0 UV-I 0 W/m 5,9 C 6,0 C 12,9 km/h (3 Bft)
08.10.2022 07:19 7,3 C 6,7 C 91 % 1020,9 hPa 0,0 l/m 9,7 km/h (2 Bft) S-SW 202 0 min 0,0 UV-I 0 W/m 5,9 C 4,8 C 14,5 km/h (3 Bft)
08.10.2022 07:20 7,3 C 6,7 C 90 % 1020,9 hPa 0,0 l/m 9,7 km/h (2 Bft) S-SW 202 0 min 0,0 UV-I 0 W/m 5,8 C 4,8 C 14,5 km/h (3 Bft)
08.10.2022 07:21 7,3 C 6,7 C 91 % 1020,9 hPa 0,0 l/m 9,7 km/h (2 Bft) S-SW 202 0 min 0,0 UV-I 0 W/m 5,9 C 4,8 C 11,3 km/h (2 Bft)
08.10.2022 07:22 7,3 C 6,7 C 90 % 1021,0 hPa 0,0 l/m 6,4 km/h (2 Bft) SW 225 0 min 0,0 UV-I 0 W/m 5,8 C 7,3 C 9,7 km/h (2 Bft)
08.10.2022 07:23 7,3 C 6,7 C 91 % 1020,9 hPa 0,0 l/m 9,7 km/h (2 Bft) SW 225 0 min 0,0 UV-I 0 W/m 5,9 C 4,8 C 12,9 km/h (3 Bft)
08.10.2022 07:24 7,3 C 6,7 C 91 % 1021,0 hPa 0,0 l/m 9,7 km/h (2 Bft) S-SW 202 0 min 0,0 UV-I 0 W/m 5,9 C 4,8 C 12,9 km/h (3 Bft)
08.10.2022 07:25 7,4 C 6,7 C 91 % 1021,0 hPa 0,0 l/m 9,7 km/h (2 Bft) S-SW 202 0 min 0,0 UV-I 0 W/m 6,0 C 4,9 C 12,9 km/h (3 Bft)
08.10.2022 07:26 7,4 C 6,7 C 91 % 1021,0 hPa 0,0 l/m 11,3 km/h (2 Bft) S-SW 202 0 min 0,0 UV-I 0 W/m 6,0 C 3,9 C 14,5 km/h (3 Bft)
08.10.2022 07:27 7,4 C 6,7 C 91 % 1021,0 hPa 0,0 l/m 11,3 km/h (2 Bft) S 180 0 min 0,0 UV-I 0 W/m 6,0 C 3,9 C 16,1 km/h (3 Bft)
08.10.2022 07:28 7,4 C 6,7 C 91 % 1021,1 hPa 0,0 l/m 11,3 km/h (2 Bft) S-SW 202 0 min 0,0 UV-I 0 W/m 6,0 C 3,9 C 14,5 km/h (3 Bft)
08.10.2022 07:29 7,4 C 7,2 C 91 % 1021,0 hPa 0,0 l/m 11,3 km/h (2 Bft) SW 225 0 min 0,0 UV-I 0 W/m 6,0 C 3,9 C 17,7 km/h (3 Bft)
08.10.2022 07:30 7,4 C 7,2 C 91 % 1020,9 hPa 0,0 l/m 9,7 km/h (2 Bft) S 180 0 min 0,0 UV-I 0 W/m 6,0 C 4,9 C 17,7 km/h (3 Bft)
08.10.2022 07:31 7,5 C 7,2 C 91 % 1020,9 hPa 0,0 l/m 9,7 km/h (2 Bft) S-SW 202 0 min 0,0 UV-I 0 W/m 6,1 C 5,0 C 14,5 km/h (3 Bft)
08.10.2022 07:32 7,5 C 7,2 C 91 % 1020,9 hPa 0,0 l/m 11,3 km/h (2 Bft) S-SW 202 0 min 0,0 UV-I 0 W/m 6,1 C 4,0 C 17,7 km/h (3 Bft)
08.10.2022 07:33 7,5 C 7,2 C 91 % 1020,9 hPa 0,0 l/m 11,3 km/h (2 Bft) S-SW 202 0 min 0,0 UV-I 0 W/m 6,1 C 4,0 C 14,5 km/h (3 Bft)
08.10.2022 07:34 7,5 C 7,2 C 91 % 1020,9 hPa 0,0 l/m 12,9 km/h (3 Bft) S-SW 202 0 min 0,0 UV-I 0 W/m 6,1 C 3,1 C 14,5 km/h (3 Bft)
08.10.2022 07:35 7,6 C 7,2 C 91 % 1021,0 hPa 0,0 l/m 12,9 km/h (3 Bft) S-SW 202 0 min 0,0 UV-I 0 W/m 6,2 C 3,3 C 14,5 km/h (3 Bft)
08.10.2022 07:36 7,6 C 7,2 C 90 % 1021,0 hPa 0,0 l/m 9,7 km/h (2 Bft) S-SW 202 0 min 0,0 UV-I 0 W/m 6,1 C 5,1 C 12,9 km/h (3 Bft)
08.10.2022 07:37 7,6 C 7,2 C 90 % 1021,0 hPa 0,0 l/m 8,0 km/h (2 Bft) S-SW 202 0 min 0,0 UV-I 0 W/m 6,1 C 6,3 C 12,9 km/h (3 Bft)
08.10.2022 07:38 7,5 C 7,2 C 90 % 1021,0 hPa 0,0 l/m 8,0 km/h (2 Bft) S-SW 202 0 min 0,0 UV-I 0 W/m 6,0 C 6,2 C 11,3 km/h (2 Bft)
08.10.2022 07:39 7,5 C 7,2 C 90 % 1021,1 hPa 0,0 l/m 9,7 km/h (2 Bft) S-SW 202 0 min 0,0 UV-I 0 W/m 6,0 C 5,0 C 14,5 km/h (3 Bft)
08.10.2022 07:40 7,5 C 6,7 C 90 % 1021,1 hPa 0,0 l/m 11,3 km/h (2 Bft) S-SW 202 0 min 0,0 UV-I 0 W/m 6,0 C 4,0 C 14,5 km/h (3 Bft)
08.10.2022 07:41 7,5 C 6,7 C 90 % 1021,1 hPa 0,0 l/m 6,4 km/h (2 Bft) SW 225 0 min 0,0 UV-I 0 W/m 6,0 C 7,5 C 9,7 km/h (2 Bft)
08.10.2022 07:42 7,5 C 6,7 C 90 % 1021,1 hPa 0,0 l/m 8,0 km/h (2 Bft) S-SW 202 0 min 0,0 UV-I 0 W/m 6,0 C 6,2 C 11,3 km/h (2 Bft)
08.10.2022 07:43 7,5 C 6,7 C 91 % 1021,1 hPa 0,0 l/m 9,7 km/h (2 Bft) SW 225 0 min 0,0 UV-I 0 W/m 6,1 C 5,0 C 11,3 km/h (2 Bft)
08.10.2022 07:44 7,5 C 6,7 C 91 % 1021,1 hPa 0,0 l/m 9,7 km/h (2 Bft) S-SW 202 0 min 0,0 UV-I 0 W/m 6,1 C 5,0 C 14,5 km/h (3 Bft)
08.10.2022 07:45 7,5 C 6,7 C 91 % 1021,1 hPa 0,0 l/m 11,3 km/h (2 Bft) S-SW 202 0 min 0,0 UV-I 0 W/m 6,1 C 4,0 C 14,5 km/h (3 Bft)
08.10.2022 07:46 7,5 C 6,7 C 91 % 1021,1 hPa 0,0 l/m 9,7 km/h (2 Bft) S-SW 202 0 min 0,0 UV-I 0 W/m 6,1 C 5,0 C 12,9 km/h (3 Bft)
08.10.2022 07:47 7,5 C 6,7 C 91 % 1021,1 hPa 0,0 l/m 8,0 km/h (2 Bft) S-SW 202 0 min 0,0 UV-I 0 W/m 6,1 C 6,2 C 11,3 km/h (2 Bft)
08.10.2022 07:48 7,5 C 6,7 C 91 % 1021,1 hPa 0,0 l/m 9,7 km/h (2 Bft) S-SW 202 0 min 0,0 UV-I 0 W/m 6,1 C 5,0 C 12,9 km/h (3 Bft)
08.10.2022 07:49 7,4 C 6,7 C 91 % 1021,1 hPa 0,0 l/m 9,7 km/h (2 Bft) S-SW 202 0 min 0,0 UV-I 0 W/m 6,0 C 4,9 C 14,5 km/h (3 Bft)
08.10.2022 07:50 7,4 C 6,7 C 91 % 1021,1 hPa 0,0 l/m 9,7 km/h (2 Bft) S-SW 202 0 min 0,0 UV-I 0 W/m 6,0 C 4,9 C 12,9 km/h (3 Bft)
08.10.2022 07:51 7,5 C 6,7 C 91 % 1021,0 hPa 0,0 l/m 9,7 km/h (2 Bft) S-SW 202 0 min 0,0 UV-I 0 W/m 6,1 C 5,0 C 16,1 km/h (3 Bft)
08.10.2022 07:52 7,4 C 6,7 C 91 % 1021,1 hPa 0,0 l/m 6,4 km/h (2 Bft) SW 225 0 min 0,0 UV-I 0 W/m 6,0 C 7,4 C 9,7 km/h (2 Bft)
08.10.2022 07:53 7,4 C 6,7 C 91 % 1021,1 hPa 0,0 l/m 8,0 km/h (2 Bft) S-SW 202 0 min 0,0 UV-I 0 W/m 6,0 C 6,1 C 9,7 km/h (2 Bft)
08.10.2022 07:54 7,4 C 6,7 C 91 % 1021,1 hPa 0,0 l/m 9,7 km/h (2 Bft) S-SW 202 0 min 0,0 UV-I 0 W/m 6,0 C 4,9 C 12,9 km/h (3 Bft)
08.10.2022 07:55 7,4 C 6,7 C 91 % 1021,1 hPa 0,0 l/m 6,4 km/h (2 Bft) SW 225 0 min 0,0 UV-I 0 W/m 6,0 C 7,4 C 9,7 km/h (2 Bft)
08.10.2022 07:56 7,4 C 6,7 C 91 % 1021,2 hPa 0,0 l/m 8,0 km/h (2 Bft) SW 225 0 min 0,0 UV-I 0 W/m 6,0 C 6,1 C 11,3 km/h (2 Bft)
08.10.2022 07:57 7,4 C 6,7 C 91 % 1021,2 hPa 0,0 l/m 9,7 km/h (2 Bft) S-SW 202 0 min 0,0 UV-I 0 W/m 6,0 C 4,9 C 12,9 km/h (3 Bft)
08.10.2022 07:58 7,4 C 6,7 C 91 % 1021,2 hPa 0,0 l/m 8,0 km/h (2 Bft) S-SW 202 0 min 0,0 UV-I 0 W/m 6,0 C 6,1 C 11,3 km/h (2 Bft)
08.10.2022 07:59 7,4 C 6,7 C 91 % 1021,2 hPa 0,0 l/m 9,7 km/h (2 Bft) S-SW 202 0 min 0,0 UV-I 0 W/m 6,0 C 4,9 C 11,3 km/h (2 Bft)
08.10.2022 08:00 7,4 C 6,7 C 91 % 1021,1 hPa 0,0 l/m 8,0 km/h (2 Bft) S-SW 202 0 min 0,0 UV-I 0 W/m 6,0 C 6,1 C 9,7 km/h (2 Bft)
08.10.2022 08:01 7,4 C 6,7 C 91 % 1021,3 hPa 0,0 l/m 8,0 km/h (2 Bft) S-SW 202 0 min 0,0 UV-I 0 W/m 6,0 C 6,1 C 11,3 km/h (2 Bft)
08.10.2022 08:02 7,4 C 6,7 C 91 % 1021,2 hPa 0,0 l/m 6,4 km/h (2 Bft) S-SW 202 0 min 0,0 UV-I 0 W/m 6,0 C 7,4 C 9,7 km/h (2 Bft)
08.10.2022 08:03 7,4 C 6,7 C 91 % 1021,3 hPa 0,0 l/m 8,0 km/h (2 Bft) SW 225 0 min 0,0 UV-I 0 W/m 6,0 C 6,1 C 11,3 km/h (2 Bft)
08.10.2022 08:04 7,4 C 6,7 C 91 % 1021,3 hPa 0,0 l/m 8,0 km/h (2 Bft) S-SW 202 0 min 0,0 UV-I 0 W/m 6,0 C 6,1 C 11,3 km/h (2 Bft)
08.10.2022 08:05 7,4 C 6,7 C 91 % 1021,2 hPa 0,0 l/m 8,0 km/h (2 Bft) SW 225 0 min 0,0 UV-I 0 W/m 6,0 C 6,1 C 16,1 km/h (3 Bft)
08.10.2022 08:06 7,4 C 6,7 C 91 % 1021,3 hPa 0,0 l/m 8,0 km/h (2 Bft) S-SW 202 0 min 0,0 UV-I 3 W/m 6,0 C 6,1 C 9,7 km/h (2 Bft)
08.10.2022 08:07 7,4 C 6,7 C 91 % 1021,2 hPa 0,0 l/m 8,0 km/h (2 Bft) SW 225 0 min 0,0 UV-I 5 W/m 6,0 C 6,1 C 12,9 km/h (3 Bft)
08.10.2022 08:08 7,4 C 6,7 C 91 % 1021,2 hPa 0,0 l/m 6,4 km/h (2 Bft) S-SW 202 0 min 0,0 UV-I 7 W/m 6,0 C 7,4 C 11,3 km/h (2 Bft)
08.10.2022 08:09 7,4 C 7,2 C 91 % 1021,2 hPa 0,0 l/m 8,0 km/h (2 Bft) S-SW 202 0 min 0,0 UV-I 7 W/m 6,0 C 6,1 C 11,3 km/h (2 Bft)
08.10.2022 08:10 7,4 C 7,2 C 91 % 1021,3 hPa 0,0 l/m 4,8 km/h (1 Bft) SW 225 0 min 0,0 UV-I 5 W/m 6,0 C 7,4 C 8,0 km/h (2 Bft)
08.10.2022 08:11 7,4 C 7,2 C 91 % 1021,3 hPa 0,0 l/m 8,0 km/h (2 Bft) SW 225 0 min 0,0 UV-I 5 W/m 6,0 C 6,1 C 9,7 km/h (2 Bft)
08.10.2022 08:12 7,4 C 6,7 C 91 % 1021,3 hPa 0,0 l/m 6,4 km/h (2 Bft) SW 225 0 min 0,0 UV-I 3 W/m 6,0 C 7,4 C 11,3 km/h (2 Bft)
08.10.2022 08:13 7,4 C 6,7 C 91 % 1021,3 hPa 0,0 l/m 6,4 km/h (2 Bft) S-SW 202 0 min 0,0 UV-I 5 W/m 6,0 C 7,4 C 9,7 km/h (2 Bft)
08.10.2022 08:14 7,4 C 6,7 C 91 % 1021,3 hPa 0,0 l/m 4,8 km/h (1 Bft) SW 225 0 min 0,0 UV-I 5 W/m 6,0 C 7,4 C 8,0 km/h (2 Bft)
08.10.2022 08:15 7,4 C 6,7 C 91 % 1021,3 hPa 0,0 l/m 4,8 km/h (1 Bft) S-SW 202 0 min 0,0 UV-I 5 W/m 6,0 C 7,4 C 9,7 km/h (2 Bft)
08.10.2022 08:16 7,4 C 6,7 C 91 % 1021,3 hPa 0,0 l/m 8,0 km/h (2 Bft) S-SW 202 0 min 0,0 UV-I 5 W/m 6,0 C 6,1 C 11,3 km/h (2 Bft)
08.10.2022 08:17 7,4 C 6,7 C 91 % 1021,3 hPa 0,0 l/m 9,7 km/h (2 Bft) S-SW 202 0 min 0,0 UV-I 5 W/m 6,0 C 4,9 C 12,9 km/h (3 Bft)
08.10.2022 08:18 7,3 C 6,7 C 91 % 1021,4 hPa 0,0 l/m 8,0 km/h (2 Bft) S-SW 202 0 min 0,0 UV-I 5 W/m 5,9 C 6,0 C 11,3 km/h (2 Bft)
08.10.2022 08:19 7,3 C 6,7 C 91 % 1021,3 hPa 0,0 l/m 6,4 km/h (2 Bft) SW 225 0 min 0,0 UV-I 5 W/m 5,9 C 7,3 C 9,7 km/h (2 Bft)
08.10.2022 08:20 7,4 C 6,7 C 91 % 1021,4 hPa 0,0 l/m 9,7 km/h (2 Bft) S-SW 202 0 min 0,0 UV-I 5 W/m 6,0 C 4,9 C 12,9 km/h (3 Bft)
08.10.2022 08:21 7,3 C 6,7 C 91 % 1021,3 hPa 0,0 l/m 8,0 km/h (2 Bft) S-SW 202 0 min 0,0 UV-I 5 W/m 5,9 C 6,0 C 12,9 km/h (3 Bft)
08.10.2022 08:22 7,3 C 6,7 C 91 % 1021,3 hPa 0,0 l/m 9,7 km/h (2 Bft) S-SW 202 0 min 0,0 UV-I 7 W/m 5,9 C 4,8 C 12,9 km/h (3 Bft)
08.10.2022 08:23 7,3 C 6,7 C 91 % 1021,3 hPa 0,0 l/m 8,0 km/h (2 Bft) S-SW 202 0 min 0,0 UV-I 7 W/m 5,9 C 6,0 C 11,3 km/h (2 Bft)
08.10.2022 08:24 7,3 C 6,7 C 91 % 1021,3 hPa 0,0 l/m 9,7 km/h (2 Bft) S-SW 202 0 min 0,0 UV-I 10 W/m 5,9 C 4,8 C 12,9 km/h (3 Bft)
08.10.2022 08:25 7,3 C 6,7 C 91 % 1021,4 hPa 0,0 l/m 6,4 km/h (2 Bft) S-SW 202 0 min 0,0 UV-I 12 W/m 5,9 C 7,3 C 11,3 km/h (2 Bft)
08.10.2022 08:26 7,3 C 6,7 C 91 % 1021,4 hPa 0,0 l/m 8,0 km/h (2 Bft) SW 225 0 min 0,0 UV-I 12 W/m 5,9 C 6,0 C 12,9 km/h (3 Bft)
08.10.2022 08:27 7,3 C 6,7 C 91 % 1021,4 hPa 0,0 l/m 6,4 km/h (2 Bft) S-SW 202 0 min 0,0 UV-I 14 W/m 5,9 C 7,3 C 8,0 km/h (2 Bft)
08.10.2022 08:28 7,3 C 6,7 C 91 % 1021,5 hPa 0,0 l/m 4,8 km/h (1 Bft) S-SW 202 0 min 0,0 UV-I 16 W/m 5,9 C 7,3 C 8,0 km/h (2 Bft)
08.10.2022 08:29 7,3 C 6,7 C 91 % 1021,5 hPa 0,0 l/m 6,4 km/h (2 Bft) S-SW 202 0 min 0,0 UV-I 19 W/m 5,9 C 7,3 C 9,7 km/h (2 Bft)
08.10.2022 08:30 7,3 C 6,7 C 91 % 1021,6 hPa 0,0 l/m 8,0 km/h (2 Bft) SW 225 0 min 0,0 UV-I 19 W/m 5,9 C 6,0 C 9,7 km/h (2 Bft)
08.10.2022 08:31 7,3 C 6,7 C 91 % 1021,6 hPa 0,0 l/m 6,4 km/h (2 Bft) S-SW 202 0 min 0,0 UV-I 16 W/m 5,9 C 7,3 C 11,3 km/h (2 Bft)
08.10.2022 08:32 7,3 C 7,2 C 91 % 1021,5 hPa 0,0 l/m 6,4 km/h (2 Bft) S-SW 202 0 min 0,0 UV-I 16 W/m 5,9 C 7,3 C 11,3 km/h (2 Bft)
08.10.2022 08:33 7,3 C 7,2 C 91 % 1021,5 hPa 0,0 l/m 6,4 km/h (2 Bft) W-SW 247 0 min 0,0 UV-I 14 W/m 5,9 C 7,3 C 9,7 km/h (2 Bft)
08.10.2022 08:34 7,3 C 7,2 C 91 % 1021,6 hPa 0,0 l/m 4,8 km/h (1 Bft) SW 225 0 min 0,0 UV-I 16 W/m 5,9 C 7,3 C 8,0 km/h (2 Bft)
08.10.2022 08:35 7,3 C 7,2 C 91 % 1021,6 hPa 0,0 l/m 4,8 km/h (1 Bft) SW 225 0 min 0,0 UV-I 19 W/m 5,9 C 7,3 C 6,4 km/h (2 Bft)
08.10.2022 08:36 7,4 C 7,2 C 91 % 1021,6 hPa 0,0 l/m 6,4 km/h (2 Bft) SW 225 0 min 0,0 UV-I 19 W/m 6,0 C 7,4 C 11,3 km/h (2 Bft)
08.10.2022 08:37 7,4 C 7,2 C 91 % 1021,6 hPa 0,0 l/m 4,8 km/h (1 Bft) SW 225 0 min 0,0 UV-I 25 W/m 6,0 C 7,4 C 8,0 km/h (2 Bft)
08.10.2022 08:38 7,4 C 7,2 C 91 % 1021,6 hPa 0,0 l/m 4,8 km/h (1 Bft) SW 225 0 min 0,0 UV-I 26 W/m 6,0 C 7,4 C 8,0 km/h (2 Bft)
08.10.2022 08:39 7,4 C 7,2 C 91 % 1021,6 hPa 0,0 l/m 4,8 km/h (1 Bft) S-SW 202 0 min 0,0 UV-I 28 W/m 6,0 C 7,4 C 6,4 km/h (2 Bft)
08.10.2022 08:40 7,4 C 7,2 C 91 % 1021,7 hPa 0,0 l/m 6,4 km/h (2 Bft) S-SW 202 0 min 0,0 UV-I 32 W/m 6,0 C 7,4 C 9,7 km/h (2 Bft)
08.10.2022 08:41 7,4 C 7,2 C 91 % 1021,7 hPa 0,0 l/m 6,4 km/h (2 Bft) SW 225 0 min 0,0 UV-I 26 W/m 6,0 C 7,4 C 11,3 km/h (2 Bft)
08.10.2022 08:42 7,3 C 7,2 C 91 % 1021,6 hPa 0,0 l/m 3,2 km/h (1 Bft) SW 225 0 min 0,0 UV-I 25 W/m 5,9 C 7,3 C 4,8 km/h (1 Bft)
08.10.2022 08:43 7,4 C 7,2 C 91 % 1021,7 hPa 0,0 l/m 4,8 km/h (1 Bft) SW 225 0 min 0,0 UV-I 19 W/m 6,0 C 7,4 C 4,8 km/h (1 Bft)
08.10.2022 08:44 7,4 C 7,2 C 91 % 1021,7 hPa 0,0 l/m 4,8 km/h (1 Bft) SW 225 0 min 0,0 UV-I 18 W/m 6,0 C 7,4 C 8,0 km/h (2 Bft)
08.10.2022 08:45 7,4 C 7,2 C 92 % 1021,7 hPa 0,0 l/m 6,4 km/h (2 Bft) SW 225 0 min 0,0 UV-I 19 W/m 6,2 C 7,4 C 9,7 km/h (2 Bft)
08.10.2022 08:46 7,4 C 7,2 C 92 % 1021,7 hPa 0,0 l/m 6,4 km/h (2 Bft) S-SW 202 0 min 0,0 UV-I 19 W/m 6,2 C 7,4 C 9,7 km/h (2 Bft)
08.10.2022 08:47 7,4 C 7,2 C 92 % 1021,7 hPa 0,0 l/m 8,0 km/h (2 Bft) S-SW 202 0 min 0,0 UV-I 17 W/m 6,2 C 6,1 C 9,7 km/h (2 Bft)
08.10.2022 08:48 7,4 C 7,2 C 92 % 1021,7 hPa 0,0 l/m 8,0 km/h (2 Bft) S-SW 202 0 min 0,0 UV-I 18 W/m 6,2 C 6,1 C 9,7 km/h (2 Bft)
08.10.2022 08:49 7,4 C 7,2 C 92 % 1021,7 hPa 0,0 l/m 8,0 km/h (2 Bft) SW 225 0 min 0,0 UV-I 19 W/m 6,2 C 6,1 C 11,3 km/h (2 Bft)
08.10.2022 08:50 7,4 C 7,2 C 92 % 1021,8 hPa 0,0 l/m 6,4 km/h (2 Bft) S-SW 202 0 min 0,0 UV-I 21 W/m 6,2 C 7,4 C 9,7 km/h (2 Bft)
08.10.2022 08:51 7,4 C 7,2 C 92 % 1021,8 hPa 0,0 l/m 4,8 km/h (1 Bft) SW 225 0 min 0,0 UV-I 26 W/m 6,2 C 7,4 C 8,0 km/h (2 Bft)
08.10.2022 08:52 7,4 C 7,2 C 92 % 1021,8 hPa 0,0 l/m 8,0 km/h (2 Bft) S-SW 202 0 min 0,0 UV-I 25 W/m 6,2 C 6,1 C 11,3 km/h (2 Bft)
08.10.2022 08:53 7,4 C 7,2 C 92 % 1021,8 hPa 0,0 l/m 4,8 km/h (1 Bft) S 180 0 min 0,0 UV-I 29 W/m 6,2 C 7,4 C 6,4 km/h (2 Bft)
08.10.2022 08:54 7,4 C 7,2 C 92 % 1021,7 hPa 0,0 l/m 3,2 km/h (1 Bft) S-SW 202 0 min 0,0 UV-I 40 W/m 6,2 C 7,4 C 4,8 km/h (1 Bft)
08.10.2022 08:55 7,4 C 7,2 C 92 % 1021,7 hPa 0,0 l/m 3,2 km/h (1 Bft) S-SW 202 0 min 0,0 UV-I 44 W/m 6,2 C 7,4 C 4,8 km/h (1 Bft)
08.10.2022 08:56 7,4 C 7,2 C 92 % 1021,8 hPa 0,0 l/m 4,8 km/h (1 Bft) S-SW 202 0 min 0,0 UV-I 40 W/m 6,2 C 7,4 C 6,4 km/h (2 Bft)
08.10.2022 08:57 7,4 C 7,2 C 92 % 1021,8 hPa 0,0 l/m 4,8 km/h (1 Bft) SW 225 0 min 0,0 UV-I 37 W/m 6,2 C 7,4 C 8,0 km/h (2 Bft)
08.10.2022 08:58 7,4 C 7,2 C 92 % 1021,7 hPa 0,0 l/m 4,8 km/h (1 Bft) SW 225 0 min 0,0 UV-I 33 W/m 6,2 C 7,4 C 8,0 km/h (2 Bft)
08.10.2022 08:59 7,5 C 7,2 C 92 % 1021,7 hPa 0,0 l/m 4,8 km/h (1 Bft) SW 225 0 min 0,0 UV-I 36 W/m 6,3 C 7,5 C 4,8 km/h (1 Bft)
08.10.2022 09:00 7,4 C 7,2 C 92 % 1021,8 hPa 0,0 l/m 4,8 km/h (1 Bft) W 270 0 min 0,0 UV-I 33 W/m 6,2 C 7,4 C 6,4 km/h (2 Bft)
08.10.2022 09:01 7,4 C 7,2 C 92 % 1021,8 hPa 0,0 l/m 4,8 km/h (1 Bft) SW 225 0 min 0,0 UV-I 26 W/m 6,2 C 7,4 C 8,0 km/h (2 Bft)
08.10.2022 09:02 7,4 C 7,2 C 92 % 1021,8 hPa 0,0 l/m 6,4 km/h (2 Bft) W-SW 247 0 min 0,0 UV-I 21 W/m 6,2 C 7,4 C 9,7 km/h (2 Bft)
08.10.2022 09:03 7,5 C 7,2 C 92 % 1021,9 hPa 0,0 l/m 3,2 km/h (1 Bft) W-SW 247 0 min 0,0 UV-I 19 W/m 6,3 C 7,5 C 4,8 km/h (1 Bft)
08.10.2022 09:04 7,4 C 7,2 C 92 % 1022,5 hPa 0,0 l/m 3,2 km/h (1 Bft) W-SW 247 0 min 0,0 UV-I 19 W/m 6,2 C 7,4 C 4,8 km/h (1 Bft)
08.10.2022 09:05 7,4 C 7,2 C 92 % 1021,8 hPa 0,0 l/m 1,6 km/h (1 Bft) W-SW 247 0 min 0,0 UV-I 20 W/m 6,2 C 7,4 C 4,8 km/h (1 Bft)
08.10.2022 09:09 7,4 C 7,2 C 92 % 1021,8 hPa 0,0 l/m 4,8 km/h (1 Bft) SW 222 0 min 0,0 UV-I 23 W/m 6,2 C 7,4 C 6,4 km/h (2 Bft)
08.10.2022 09:12 7,4 C 7,2 C 92 % 1022,0 hPa 0,0 l/m 5,5 km/h (1 Bft) SW 232 0 min 0,0 UV-I 26 W/m 6,2 C 7,4 C 9,7 km/h (2 Bft)
08.10.2022 09:15 7,4 C 7,2 C 92 % 1022,1 hPa 0,0 l/m 4,5 km/h (1 Bft) W 267 0 min 0,0 UV-I 23 W/m 6,2 C 7,4 C 9,7 km/h (2 Bft)
08.10.2022 09:18 7,4 C 7,2 C 92 % 1022,2 hPa 0,0 l/m 3,1 km/h (1 Bft) W-SW 244 0 min 0,0 UV-I 16 W/m 6,2 C 7,4 C 6,4 km/h (2 Bft)
08.10.2022 09:21 7,4 C 7,2 C 92 % 1022,2 hPa 0,0 l/m 4,0 km/h (1 Bft) S-SW 194 0 min 0,0 UV-I 11 W/m 6,2 C 7,4 C 6,4 km/h (2 Bft)
08.10.2022 09:24 7,3 C 7,2 C 92 % 1022,3 hPa 0,0 l/m 3,6 km/h (1 Bft) SW 217 0 min 0,0 UV-I 33 W/m 6,1 C 7,3 C 6,4 km/h (2 Bft)
08.10.2022 09:27 7,4 C 7,2 C 92 % 1022,3 hPa 0,0 l/m 3,4 km/h (1 Bft) SW 217 0 min 0,0 UV-I 51 W/m 6,2 C 7,4 C 4,8 km/h (1 Bft)
08.10.2022 09:30 7,4 C 7,8 C 92 % 1022,4 hPa 0,0 l/m 4,6 km/h (1 Bft) S-SW 192 0 min 0,0 UV-I 36 W/m 6,2 C 7,4 C 8,0 km/h (2 Bft)
08.10.2022 09:33 7,4 C 7,8 C 93 % 1022,5 hPa 0,0 l/m 5,5 km/h (1 Bft) S-SW 200 0 min 0,0 UV-I 42 W/m 6,3 C 7,4 C 8,0 km/h (2 Bft)
08.10.2022 09:36 7,6 C 7,8 C 93 % 1022,4 hPa 0,0 l/m 5,9 km/h (2 Bft) S-SW 205 0 min 0,0 UV-I 41 W/m 6,5 C 7,6 C 8,0 km/h (2 Bft)
08.10.2022 09:39 7,6 C 7,8 C 93 % 1022,5 hPa 0,0 l/m 5,9 km/h (2 Bft) S-SW 213 0 min 0,0 UV-I 32 W/m 6,5 C 7,6 C 8,0 km/h (2 Bft)
08.10.2022 09:42 7,6 C 7,8 C 93 % 1022,6 hPa 0,0 l/m 6,3 km/h (2 Bft) W-SW 244 0 min 0,0 UV-I 38 W/m 6,5 C 7,6 C 9,7 km/h (2 Bft)
08.10.2022 09:45 7,6 C 7,8 C 93 % 1022,6 hPa 0,0 l/m 5,6 km/h (1 Bft) S-SW 202 0 min 0,0 UV-I 33 W/m 6,5 C 7,6 C 11,3 km/h (2 Bft)
08.10.2022 09:48 7,7 C 7,8 C 93 % 1022,5 hPa 0,0 l/m 6,4 km/h (2 Bft) SW 223 0 min 0,0 UV-I 82 W/m 6,6 C 7,7 C 9,7 km/h (2 Bft)
08.10.2022 09:51 7,8 C 8,3 C 93 % 1022,5 hPa 0,0 l/m 5,6 km/h (1 Bft) SW 234 0 min 0,0 UV-I 72 W/m 6,7 C 7,8 C 9,7 km/h (2 Bft)
08.10.2022 09:54 7,9 C 8,3 C 93 % 1022,5 hPa 0,0 l/m 5,4 km/h (1 Bft) S-SW 213 0 min 0,0 UV-I 48 W/m 6,8 C 7,9 C 8,0 km/h (2 Bft)
08.10.2022 09:57 7,9 C 8,3 C 93 % 1022,5 hPa 0,0 l/m 4,3 km/h (1 Bft) SW 229 0 min 0,0 UV-I 39 W/m 6,8 C 7,9 C 6,4 km/h (2 Bft)
08.10.2022 10:00 8,1 C 8,3 C 93 % 1022,6 hPa 0,0 l/m 4,2 km/h (1 Bft) W-SW 242 0 min 0,0 UV-I 40 W/m 7,0 C 8,1 C 8,0 km/h (2 Bft)
08.10.2022 10:03 8,1 C 8,3 C 93 % 1022,6 hPa 0,0 l/m 3,4 km/h (1 Bft) S-SW 212 0 min 0,0 UV-I 40 W/m 7,0 C 8,1 C 6,4 km/h (2 Bft)
08.10.2022 10:06 8,1 C 8,3 C 93 % 1022,7 hPa 0,2 l/m 6,0 km/h (2 Bft) S-SW 209 0 min 0,0 UV-I 25 W/m 7,0 C 8,1 C 8,0 km/h (2 Bft)
08.10.2022 10:09 8,2 C 8,3 C 93 % 1022,7 hPa 0,0 l/m 3,6 km/h (1 Bft) W-SW 243 0 min 0,0 UV-I 28 W/m 7,1 C 8,2 C 6,4 km/h (2 Bft)
08.10.2022 10:12 8,3 C 8,3 C 93 % 1022,7 hPa 0,0 l/m 4,4 km/h (1 Bft) SW 227 0 min 0,0 UV-I 70 W/m 7,2 C 8,3 C 6,4 km/h (2 Bft)
08.10.2022 10:15 8,3 C 8,9 C 93 % 1022,7 hPa 0,0 l/m 3,8 km/h (1 Bft) S-SW 213 0 min 0,0 UV-I 89 W/m 7,2 C 8,3 C 6,4 km/h (2 Bft)
08.10.2022 10:18 8,3 C 8,9 C 93 % 1022,8 hPa 0,0 l/m 6,2 km/h (2 Bft) S-SW 200 0 min 0,0 UV-I 58 W/m 7,2 C 8,3 C 8,0 km/h (2 Bft)
08.10.2022 10:21 8,3 C 8,3 C 93 % 1022,8 hPa 0,0 l/m 4,2 km/h (1 Bft) S-SW 205 0 min 0,0 UV-I 58 W/m 7,2 C 8,3 C 8,0 km/h (2 Bft)
08.10.2022 10:24 8,3 C 8,3 C 93 % 1022,9 hPa 0,0 l/m 6,6 km/h (2 Bft) S-SW 209 0 min 0,0 UV-I 54 W/m 7,2 C 8,2 C 9,7 km/h (2 Bft)
08.10.2022 10:27 8,4 C 8,3 C 93 % 1023,0 hPa 0,0 l/m 6,3 km/h (2 Bft) SW 222 0 min 0,0 UV-I 32 W/m 7,3 C 8,4 C 8,0 km/h (2 Bft)
08.10.2022 10:30 8,4 C 8,3 C 93 % 1023,1 hPa 0,0 l/m 8,0 km/h (2 Bft) S-SW 200 0 min 0,0 UV-I 27 W/m 7,3 C 7,2 C 14,5 km/h (3 Bft)
08.10.2022 10:33 8,3 C 8,3 C 93 % 1023,2 hPa 0,2 l/m 8,4 km/h (2 Bft) W 265 0 min 0,0 UV-I 36 W/m 7,2 C 6,8 C 12,9 km/h (3 Bft)
08.10.2022 10:36 8,4 C 8,3 C 93 % 1023,2 hPa 0,0 l/m 5,1 km/h (1 Bft) SW 231 0 min 0,2 UV-I 61 W/m 7,3 C 8,4 C 11,3 km/h (2 Bft)
08.10.2022 10:39 8,4 C 8,9 C 93 % 1023,3 hPa 0,0 l/m 5,9 km/h (2 Bft) W-SW 247 0 min 0,6 UV-I 82 W/m 7,3 C 8,4 C 12,9 km/h (3 Bft)
08.10.2022 10:42 8,6 C 8,9 C 93 % 1023,3 hPa 0,0 l/m 5,0 km/h (1 Bft) S 190 0 min 0,6 UV-I 92 W/m 7,5 C 8,6 C 9,7 km/h (2 Bft)
08.10.2022 10:45 8,6 C 8,9 C 93 % 1023,3 hPa 0,0 l/m 4,8 km/h (1 Bft) SW 223 0 min 0,9 UV-I 136 W/m 7,5 C 8,6 C 8,0 km/h (2 Bft)
08.10.2022 10:48 8,7 C 9,4 C 93 % 1023,3 hPa 0,0 l/m 5,2 km/h (1 Bft) S-SW 196 0 min 1,1 UV-I 166 W/m 7,6 C 8,7 C 9,7 km/h (2 Bft)
08.10.2022 10:51 9,0 C 10,0 C 93 % 1023,4 hPa 0,0 l/m 4,4 km/h (1 Bft) SW 227 0 min 1,1 UV-I 254 W/m 7,9 C 9,0 C 8,0 km/h (2 Bft)
08.10.2022 10:54 9,2 C 10,0 C 93 % 1023,4 hPa 0,0 l/m 4,6 km/h (1 Bft) S-SW 197 0 min 1,1 UV-I 156 W/m 8,1 C 9,2 C 8,0 km/h (2 Bft)
08.10.2022 10:57 9,2 C 10,6 C 93 % 1023,5 hPa 0,0 l/m 4,7 km/h (1 Bft) S-SW 205 0 min 1,2 UV-I 169 W/m 8,1 C 9,2 C 6,4 km/h (2 Bft)
08.10.2022 11:00 9,3 C 10,6 C 93 % 1023,5 hPa 0,0 l/m 2,3 km/h (1 Bft) S-SW 210 0 min 1,2 UV-I 157 W/m 8,2 C 9,3 C 4,8 km/h (1 Bft)
08.10.2022 11:03 9,7 C 11,1 C 93 % 1023,4 hPa 0,0 l/m 3,0 km/h (1 Bft) W 261 0 min 1,4 UV-I 245 W/m 8,6 C 9,7 C 6,4 km/h (2 Bft)
08.10.2022 11:06 10,1 C 12,2 C 93 % 1023,4 hPa 0,0 l/m 4,9 km/h (1 Bft) NW 319 0 min 1,6 UV-I 256 W/m 9,0 C 10,1 C 11,3 km/h (2 Bft)
08.10.2022 11:09 10,5 C 13,3 C 92 % 1023,5 hPa 0,0 l/m 7,3 km/h (2 Bft) SW 236 0 min 1,6 UV-I 357 W/m 9,3 C 9,9 C 16,1 km/h (3 Bft)
08.10.2022 11:12 10,6 C 13,3 C 91 % 1023,5 hPa 0,0 l/m 7,0 km/h (2 Bft) W-SW 257 0 min 1,6 UV-I 208 W/m 9,2 C 10,2 C 16,1 km/h (3 Bft)
08.10.2022 11:15 10,8 C 13,9 C 90 % 1023,5 hPa 0,0 l/m 7,5 km/h (2 Bft) W 267 0 min 1,5 UV-I 289 W/m 9,2 C 10,0 C 14,5 km/h (3 Bft)
08.10.2022 11:18 10,8 C 12,8 C 88 % 1023,4 hPa 0,0 l/m 13,0 km/h (3 Bft) W 260 0 min 1,3 UV-I 266 W/m 8,9 C 7,0 C 22,5 km/h (4 Bft)
08.10.2022 11:21 10,7 C 12,2 C 87 % 1023,6 hPa 0,0 l/m 12,2 km/h (2 Bft) W-NW 287 0 min 1,2 UV-I 220 W/m 8,6 C 7,2 C 19,3 km/h (3 Bft)
08.10.2022 11:24 10,6 C 11,1 C 86 % 1023,5 hPa 0,0 l/m 8,5 km/h (2 Bft) W-SW 246 0 min 1,0 UV-I 121 W/m 8,4 C 9,2 C 17,7 km/h (3 Bft)
08.10.2022 11:27 10,4 C 11,1 C 85 % 1023,6 hPa 0,0 l/m 10,0 km/h (2 Bft) W-SW 247 0 min 1,1 UV-I 96 W/m 8,0 C 8,0 C 16,1 km/h (3 Bft)
08.10.2022 11:30 10,3 C 10,6 C 85 % 1023,6 hPa 0,0 l/m 8,9 km/h (2 Bft) W-SW 250 0 min 1,2 UV-I 95 W/m 7,9 C 8,6 C 17,7 km/h (3 Bft)
08.10.2022 11:33 10,2 C 10,0 C 85 % 1023,7 hPa 0,0 l/m 12,2 km/h (2 Bft) NW 315 0 min 0,8 UV-I 66 W/m 7,8 C 6,6 C 20,9 km/h (4 Bft)
08.10.2022 11:36 10,1 C 10,0 C 85 % 1023,9 hPa 0,0 l/m 9,5 km/h (2 Bft) W 264 0 min 1,2 UV-I 68 W/m 7,7 C 8,0 C 16,1 km/h (3 Bft)
08.10.2022 11:39 10,3 C 13,3 C 85 % 1023,6 hPa 0,0 l/m 8,8 km/h (2 Bft) W 261 0 min 1,9 UV-I 268 W/m 7,9 C 8,6 C 16,1 km/h (3 Bft)
08.10.2022 11:42 11,0 C 15,6 C 85 % 1023,7 hPa 0,0 l/m 11,8 km/h (2 Bft) W 262 3 min 2,2 UV-I 527 W/m 8,6 C 7,8 C 22,5 km/h (4 Bft)
08.10.2022 11:45 11,6 C 17,2 C 83 % 1023,8 hPa 0,0 l/m 12,2 km/h (2 Bft) SW 233 3 min 2,4 UV-I 599 W/m 8,8 C 8,3 C 22,5 km/h (4 Bft)
08.10.2022 11:48 11,9 C 16,7 C 82 % 1023,8 hPa 0,0 l/m 8,6 km/h (2 Bft) W 263 3 min 2,0 UV-I 583 W/m 8,9 C 10,5 C 14,5 km/h (3 Bft)
08.10.2022 11:51 11,8 C 16,7 C 80 % 1023,9 hPa 0,0 l/m 9,9 km/h (2 Bft) W 259 0 min 1,7 UV-I 351 W/m 8,5 C 9,6 C 16,1 km/h (3 Bft)
08.10.2022 11:54 11,5 C 15,0 C 80 % 1023,9 hPa 0,0 l/m 7,8 km/h (2 Bft) W-NW 284 3 min 1,4 UV-I 435 W/m 8,2 C 10,6 C 14,5 km/h (3 Bft)
08.10.2022 11:57 11,1 C 12,8 C 80 % 1024,0 hPa 0,0 l/m 9,6 km/h (2 Bft) NW 318 0 min 1,2 UV-I 94 W/m 7,8 C 9,0 C 19,3 km/h (3 Bft)
08.10.2022 12:00 10,7 C 12,2 C 79 % 1024,0 hPa 0,0 l/m 12,1 km/h (2 Bft) W 259 0 min 1,6 UV-I 120 W/m 7,2 C 7,3 C 19,3 km/h (3 Bft)
08.10.2022 12:03 10,9 C 13,3 C 81 % 1024,0 hPa 0,0 l/m 10,7 km/h (2 Bft) W-SW 258 3 min 1,8 UV-I 524 W/m 7,8 C 8,2 C 19,3 km/h (3 Bft)
08.10.2022 12:06 10,8 C 11,7 C 79 % 1024,0 hPa 0,0 l/m 11,8 km/h (2 Bft) W 263 0 min 1,2 UV-I 98 W/m 7,3 C 7,5 C 19,3 km/h (3 Bft)
08.10.2022 12:09 10,7 C 11,1 C 80 % 1024,0 hPa 0,0 l/m 9,5 km/h (2 Bft) W-SW 240 0 min 1,6 UV-I 130 W/m 7,4 C 8,7 C 19,3 km/h (3 Bft)
08.10.2022 12:12 10,8 C 11,7 C 80 % 1024,1 hPa 0,0 l/m 6,0 km/h (2 Bft) W 261 0 min 1,5 UV-I 144 W/m 7,5 C 10,8 C 12,9 km/h (3 Bft)
08.10.2022 12:15 10,8 C 11,7 C 79 % 1024,2 hPa 0,0 l/m 7,7 km/h (2 Bft) W-SW 252 0 min 1,3 UV-I 118 W/m 7,3 C 9,9 C 17,7 km/h (3 Bft)
08.10.2022 12:18 11,1 C 13,3 C 79 % 1024,1 hPa 0,0 l/m 10,3 km/h (2 Bft) W-SW 238 0 min 1,9 UV-I 98 W/m 7,6 C 8,6 C 17,7 km/h (3 Bft)
08.10.2022 12:21 11,4 C 15,0 C 78 % 1024,2 hPa 0,0 l/m 7,6 km/h (2 Bft) W-NW 284 0 min 2,0 UV-I 324 W/m 7,7 C 10,6 C 16,1 km/h (3 Bft)
08.10.2022 12:24 11,5 C 13,9 C 78 % 1024,2 hPa 0,0 l/m 12,4 km/h (3 Bft) W 273 3 min 1,9 UV-I 413 W/m 7,8 C 8,1 C 17,7 km/h (3 Bft)
08.10.2022 12:27 11,2 C 13,9 C 77 % 1024,2 hPa 0,0 l/m 11,7 km/h (2 Bft) S-SW 211 0 min 1,6 UV-I 95 W/m 7,3 C 8,0 C 19,3 km/h (3 Bft)
08.10.2022 12:30 11,6 C 16,1 C 78 % 1024,1 hPa 0,0 l/m 9,7 km/h (2 Bft) SW 233 3 min 2,7 UV-I 572 W/m 7,9 C 9,5 C 16,1 km/h (3 Bft)
08.10.2022 12:33 12,1 C 18,3 C 76 % 1024,0 hPa 0,0 l/m 8,8 km/h (2 Bft) W-SW 255 3 min 2,7 UV-I 594 W/m 8,0 C 10,6 C 19,3 km/h (3 Bft)
08.10.2022 12:36 12,5 C 19,4 C 76 % 1024,1 hPa 0,0 l/m 7,6 km/h (2 Bft) W-SW 242 3 min 2,8 UV-I 615 W/m 8,4 C 11,7 C 14,5 km/h (3 Bft)
08.10.2022 12:39 12,7 C 20,6 C 74 % 1024,2 hPa 0,0 l/m 7,2 km/h (2 Bft) W-SW 237 3 min 2,8 UV-I 681 W/m 8,2 C 12,2 C 16,1 km/h (3 Bft)
08.10.2022 12:42 12,8 C 18,9 C 72 % 1024,2 hPa 0,0 l/m 8,2 km/h (2 Bft) W 259 3 min 2,5 UV-I 549 W/m 7,9 C 11,7 C 17,7 km/h (3 Bft)
08.10.2022 12:45 12,8 C 18,9 C 72 % 1024,0 hPa 0,0 l/m 8,2 km/h (2 Bft) W-NW 293 0 min 2,3 UV-I 332 W/m 7,9 C 11,7 C 17,7 km/h (3 Bft)
08.10.2022 12:48 12,7 C 19,4 C 72 % 1024,1 hPa 0,0 l/m 9,4 km/h (2 Bft) SW 227 3 min 2,8 UV-I 704 W/m 7,8 C 10,9 C 16,1 km/h (3 Bft)
08.10.2022 12:51 13,1 C 20,6 C 75 % 1024,1 hPa 0,0 l/m 9,0 km/h (2 Bft) W 268 3 min 2,6 UV-I 757 W/m 8,8 C 11,5 C 14,5 km/h (3 Bft)
08.10.2022 12:54 13,3 C 20,6 C 73 % 1024,0 hPa 0,0 l/m 5,7 km/h (1 Bft) W-SW 250 3 min 2,1 UV-I 718 W/m 8,6 C 13,3 C 19,3 km/h (3 Bft)
08.10.2022 12:57 13,2 C 20,6 C 71 % 1024,1 hPa 0,0 l/m 11,6 km/h (2 Bft) S-SW 205 3 min 2,4 UV-I 496 W/m 8,1 C 10,4 C 19,3 km/h (3 Bft)
08.10.2022 13:00 13,2 C 18,9 C 73 % 1024,1 hPa 0,0 l/m 8,0 km/h (2 Bft) W-NW 282 3 min 2,2 UV-I 470 W/m 8,5 C 12,2 C 14,5 km/h (3 Bft)
08.10.2022 13:03 12,6 C 15,0 C 71 % 1024,0 hPa 0,0 l/m 8,0 km/h (2 Bft) W-NW 287 0 min 1,4 UV-I 158 W/m 7,5 C 11,6 C 19,3 km/h (3 Bft)
08.10.2022 13:06 12,2 C 13,9 C 73 % 1024,0 hPa 0,0 l/m 9,3 km/h (2 Bft) SW 229 0 min 1,4 UV-I 137 W/m 7,5 C 10,4 C 19,3 km/h (3 Bft)
08.10.2022 13:09 11,9 C 13,3 C 73 % 1024,1 hPa 0,0 l/m 10,0 km/h (2 Bft) W 260 0 min 1,5 UV-I 148 W/m 7,2 C 9,7 C 19,3 km/h (3 Bft)
08.10.2022 13:12 11,8 C 12,8 C 71 % 1024,1 hPa 0,0 l/m 9,2 km/h (2 Bft) W 261 0 min 1,6 UV-I 195 W/m 6,7 C 10,0 C 17,7 km/h (3 Bft)
08.10.2022 13:15 11,9 C 13,3 C 72 % 1024,1 hPa 0,0 l/m 10,1 km/h (2 Bft) W-NW 285 0 min 1,8 UV-I 218 W/m 7,0 C 9,6 C 24,1 km/h (4 Bft)
08.10.2022 13:18 11,9 C 13,3 C 73 % 1024,2 hPa 0,0 l/m 9,2 km/h (2 Bft) W 261 0 min 1,4 UV-I 192 W/m 7,2 C 10,1 C 16,1 km/h (3 Bft)
08.10.2022 13:21 11,9 C 12,8 C 73 % 1024,2 hPa 0,0 l/m 8,3 km/h (2 Bft) S 190 0 min 1,2 UV-I 173 W/m 7,2 C 10,7 C 17,7 km/h (3 Bft)
08.10.2022 13:24 11,9 C 12,2 C 73 % 1024,3 hPa 0,0 l/m 9,7 km/h (2 Bft) W 269 0 min 0,9 UV-I 118 W/m 7,2 C 9,9 C 16,1 km/h (3 Bft)
08.10.2022 13:27 11,7 C 11,7 C 73 % 1024,3 hPa 0,0 l/m 14,3 km/h (3 Bft) W-SW 248 0 min 0,8 UV-I 95 W/m 7,0 C 7,5 C 25,7 km/h (4 Bft)
08.10.2022 13:30 11,6 C 11,7 C 74 % 1024,3 hPa 0,0 l/m 11,8 km/h (2 Bft) W 273 0 min 1,1 UV-I 117 W/m 7,1 C 8,5 C 20,9 km/h (4 Bft)
08.10.2022 13:33 12,2 C 17,2 C 75 % 1024,3 hPa 0,0 l/m 10,5 km/h (2 Bft) W 275 3 min 2,6 UV-I 548 W/m 7,9 C 9,8 C 17,7 km/h (3 Bft)
08.10.2022 13:36 12,9 C 20,6 C 74 % 1024,3 hPa 0,0 l/m 9,1 km/h (2 Bft) SW 225 3 min 2,8 UV-I 587 W/m 8,4 C 11,3 C 16,1 km/h (3 Bft)
08.10.2022 13:39 12,9 C 20,6 C 73 % 1024,3 hPa 0,0 l/m 6,6 km/h (2 Bft) S-SW 209 3 min 2,8 UV-I 588 W/m 8,2 C 12,8 C 11,3 km/h (2 Bft)
08.10.2022 13:42 12,9 C 19,4 C 71 % 1024,2 hPa 0,0 l/m 7,5 km/h (2 Bft) W-SW 255 3 min 2,6 UV-I 426 W/m 7,8 C 12,2 C 14,5 km/h (3 Bft)
08.10.2022 13:45 12,8 C 17,2 C 70 % 1024,3 hPa 0,0 l/m 7,6 km/h (2 Bft) W 269 0 min 1,8 UV-I 117 W/m 7,5 C 12,0 C 19,3 km/h (3 Bft)
08.10.2022 13:48 12,6 C 17,2 C 71 % 1024,2 hPa 0,0 l/m 12,5 km/h (3 Bft) W 269 3 min 2,3 UV-I 440 W/m 7,5 C 9,3 C 20,9 km/h (4 Bft)
08.10.2022 13:51 12,8 C 18,9 C 69 % 1024,3 hPa 0,0 l/m 10,0 km/h (2 Bft) S-SW 209 3 min 2,6 UV-I 486 W/m 7,3 C 10,7 C 22,5 km/h (4 Bft)
08.10.2022 13:54 13,3 C 21,1 C 72 % 1024,3 hPa 0,0 l/m 12,1 km/h (2 Bft) W-SW 240 3 min 2,8 UV-I 555 W/m 8,4 C 10,3 C 19,3 km/h (3 Bft)
08.10.2022 13:57 13,2 C 17,8 C 71 % 1024,2 hPa 0,0 l/m 8,7 km/h (2 Bft) W-NW 282 0 min 1,5 UV-I 376 W/m 8,1 C 11,8 C 14,5 km/h (3 Bft)
08.10.2022 14:00 12,9 C 15,0 C 71 % 1024,3 hPa 0,0 l/m 7,2 km/h (2 Bft) W-SW 257 0 min 1,2 UV-I 96 W/m 7,8 C 12,4 C 16,1 km/h (3 Bft)
08.10.2022 14:03 12,4 C 13,3 C 71 % 1024,4 hPa 0,0 l/m 11,1 km/h (2 Bft) W 278 0 min 1,2 UV-I 64 W/m 7,3 C 9,7 C 19,3 km/h (3 Bft)
08.10.2022 14:06 11,9 C 11,7 C 71 % 1024,3 hPa 0,0 l/m 13,4 km/h (3 Bft) W-SW 251 0 min 0,1 UV-I 45 W/m 6,8 C 8,1 C 20,9 km/h (4 Bft)
08.10.2022 14:09 11,4 C 11,1 C 72 % 1024,3 hPa 0,0 l/m 9,8 km/h (2 Bft) W-SW 250 0 min 0,3 UV-I 48 W/m 6,5 C 9,3 C 17,7 km/h (3 Bft)
08.10.2022 14:12 11,6 C 15,0 C 73 % 1024,4 hPa 0,0 l/m 6,6 km/h (2 Bft) W-SW 238 0 min 2,3 UV-I 296 W/m 6,9 C 11,5 C 16,1 km/h (3 Bft)
08.10.2022 14:15 12,4 C 20,0 C 73 % 1024,3 hPa 0,0 l/m 7,1 km/h (2 Bft) SW 226 3 min 2,7 UV-I 561 W/m 7,7 C 11,9 C 14,5 km/h (3 Bft)
08.10.2022 14:18 12,9 C 21,1 C 68 % 1024,3 hPa 0,0 l/m 12,2 km/h (2 Bft) W-SW 247 3 min 2,7 UV-I 556 W/m 7,1 C 9,8 C 20,9 km/h (4 Bft)
08.10.2022 14:21 13,3 C 22,2 C 66 % 1024,3 hPa 0,0 l/m 9,5 km/h (2 Bft) W-SW 258 3 min 2,7 UV-I 549 W/m 7,1 C 11,5 C 16,1 km/h (3 Bft)
08.10.2022 14:24 13,5 C 21,7 C 62 % 1024,2 hPa 0,0 l/m 12,5 km/h (3 Bft) SW 232 3 min 2,7 UV-I 547 W/m 6,4 C 10,3 C 27,4 km/h (4 Bft)
08.10.2022 14:27 13,4 C 21,7 C 64 % 1024,2 hPa 0,0 l/m 12,2 km/h (2 Bft) W 260 3 min 2,7 UV-I 548 W/m 6,7 C 10,3 C 19,3 km/h (3 Bft)
08.10.2022 14:30 13,6 C 22,8 C 62 % 1024,2 hPa 0,0 l/m 8,0 km/h (2 Bft) W-SW 242 3 min 2,6 UV-I 544 W/m 6,5 C 12,6 C 14,5 km/h (3 Bft)
08.10.2022 14:33 13,8 C 22,8 C 64 % 1024,2 hPa 0,0 l/m 8,0 km/h (2 Bft) SW 236 3 min 2,6 UV-I 542 W/m 7,1 C 12,8 C 17,7 km/h (3 Bft)
08.10.2022 14:36 13,8 C 22,8 C 63 % 1024,2 hPa 0,0 l/m 9,9 km/h (2 Bft) W-SW 248 3 min 2,6 UV-I 539 W/m 6,9 C 11,8 C 16,1 km/h (3 Bft)
08.10.2022 14:39 13,8 C 22,2 C 62 % 1024,3 hPa 0,0 l/m 12,6 km/h (3 Bft) W-SW 250 3 min 2,6 UV-I 534 W/m 6,6 C 10,6 C 17,7 km/h (3 Bft)
08.10.2022 14:42 13,8 C 22,8 C 62 % 1024,3 hPa 0,0 l/m 11,1 km/h (2 Bft) W 264 3 min 2,6 UV-I 533 W/m 6,6 C 11,3 C 24,1 km/h (4 Bft)
08.10.2022 14:45 13,7 C 22,8 C 63 % 1024,2 hPa 0,0 l/m 9,0 km/h (2 Bft) W 265 3 min 2,5 UV-I 536 W/m 6,8 C 12,2 C 17,7 km/h (3 Bft)
08.10.2022 14:48 13,8 C 21,7 C 65 % 1024,1 hPa 0,0 l/m 9,6 km/h (2 Bft) W 271 3 min 2,4 UV-I 527 W/m 7,3 C 12,0 C 16,1 km/h (3 Bft)
08.10.2022 14:51 13,7 C 22,2 C 64 % 1024,1 hPa 0,0 l/m 11,5 km/h (2 Bft) W-SW 258 3 min 2,5 UV-I 546 W/m 7,0 C 11,0 C 22,5 km/h (4 Bft)
08.10.2022 14:54 13,7 C 23,9 C 64 % 1024,2 hPa 0,0 l/m 11,0 km/h (2 Bft) W 268 3 min 2,6 UV-I 605 W/m 7,0 C 11,2 C 19,3 km/h (3 Bft)
08.10.2022 14:57 13,9 C 23,3 C 65 % 1024,1 hPa 0,0 l/m 12,5 km/h (3 Bft) W-SW 257 3 min 2,6 UV-I 638 W/m 7,4 C 10,8 C 24,1 km/h (4 Bft)
08.10.2022 15:00 13,7 C 23,3 C 64 % 1024,1 hPa 0,0 l/m 10,1 km/h (2 Bft) W 261 3 min 2,2 UV-I 623 W/m 7,0 C 11,6 C 20,9 km/h (4 Bft)
08.10.2022 15:03 13,8 C 23,3 C 66 % 1024,3 hPa 0,0 l/m 7,6 km/h (2 Bft) W-SW 256 3 min 1,9 UV-I 586 W/m 7,6 C 13,1 C 12,9 km/h (3 Bft)
08.10.2022 15:06 13,2 C 18,3 C 65 % 1024,2 hPa 0,0 l/m 10,3 km/h (2 Bft) W-SW 254 0 min 1,4 UV-I 341 W/m 6,8 C 11,0 C 17,7 km/h (3 Bft)
08.10.2022 15:09 12,4 C 15,0 C 67 % 1024,3 hPa 0,0 l/m 7,5 km/h (2 Bft) W 265 0 min 1,3 UV-I 114 W/m 6,4 C 11,7 C 14,5 km/h (3 Bft)
08.10.2022 15:12 12,0 C 13,3 C 69 % 1024,3 hPa 0,0 l/m 7,9 km/h (2 Bft) W-SW 243 0 min 1,3 UV-I 67 W/m 6,5 C 11,0 C 16,1 km/h (3 Bft)
08.10.2022 15:15 12,1 C 13,9 C 68 % 1024,3 hPa 0,0 l/m 11,7 km/h (2 Bft) W-SW 247 0 min 1,5 UV-I 71 W/m 6,4 C 9,1 C 17,7 km/h (3 Bft)
08.10.2022 15:18 12,1 C 13,3 C 68 % 1024,3 hPa 0,0 l/m 6,4 km/h (2 Bft) W 271 0 min 1,2 UV-I 69 W/m 6,4 C 12,1 C 14,5 km/h (3 Bft)
08.10.2022 15:21 11,8 C 12,8 C 67 % 1024,3 hPa 0,0 l/m 10,2 km/h (2 Bft) W-SW 252 0 min 1,2 UV-I 63 W/m 5,9 C 9,5 C 19,3 km/h (3 Bft)
08.10.2022 15:24 12,0 C 15,6 C 68 % 1024,3 hPa 0,0 l/m 9,2 km/h (2 Bft) W-SW 242 0 min 1,4 UV-I 183 W/m 6,3 C 10,2 C 16,1 km/h (3 Bft)
08.10.2022 15:27 12,6 C 17,8 C 66 % 1024,3 hPa 0,0 l/m 10,6 km/h (2 Bft) W-SW 254 3 min 1,8 UV-I 440 W/m 6,4 C 10,2 C 19,3 km/h (3 Bft)
08.10.2022 15:30 12,6 C 17,2 C 63 % 1024,4 hPa 0,0 l/m 12,5 km/h (3 Bft) W 259 0 min 1,5 UV-I 68 W/m 5,7 C 9,3 C 17,7 km/h (3 Bft)
08.10.2022 15:33 12,3 C 13,9 C 62 % 1024,6 hPa 0,0 l/m 12,2 km/h (2 Bft) W 263 0 min 0,4 UV-I 60 W/m 5,2 C 9,1 C 20,9 km/h (4 Bft)
08.10.2022 15:36 11,9 C 13,3 C 63 % 1024,5 hPa 0,0 l/m 9,9 km/h (2 Bft) W-SW 249 0 min 1,3 UV-I 80 W/m 5,1 C 9,7 C 19,3 km/h (3 Bft)
08.10.2022 15:39 11,8 C 13,3 C 65 % 1024,4 hPa 0,0 l/m 9,4 km/h (2 Bft) W-SW 240 0 min 1,5 UV-I 119 W/m 5,4 C 9,9 C 16,1 km/h (3 Bft)
08.10.2022 15:42 12,4 C 18,3 C 66 % 1024,5 hPa 0,0 l/m 13,0 km/h (3 Bft) W-NW 293 3 min 1,9 UV-I 472 W/m 6,2 C 8,8 C 19,3 km/h (3 Bft)
08.10.2022 15:45 12,9 C 20,0 C 64 % 1024,4 hPa 0,0 l/m 9,3 km/h (2 Bft) SW 229 3 min 1,9 UV-I 481 W/m 6,3 C 11,2 C 17,7 km/h (3 Bft)
08.10.2022 15:48 13,4 C 21,1 C 65 % 1024,5 hPa 0,0 l/m 10,7 km/h (2 Bft) S-SW 194 3 min 1,9 UV-I 494 W/m 7,0 C 11,0 C 17,7 km/h (3 Bft)
08.10.2022 15:51 13,4 C 21,7 C 64 % 1024,6 hPa 0,0 l/m 12,2 km/h (2 Bft) N-NW 340 3 min 1,9 UV-I 523 W/m 6,7 C 10,3 C 19,3 km/h (3 Bft)
08.10.2022 15:54 13,3 C 20,0 C 64 % 1024,6 hPa 0,0 l/m 10,1 km/h (2 Bft) W-NW 290 0 min 1,3 UV-I 294 W/m 6,6 C 11,2 C 20,9 km/h (4 Bft)
08.10.2022 15:57 12,6 C 15,0 C 64 % 1024,7 hPa 0,0 l/m 6,6 km/h (2 Bft) SW 217 0 min 1,0 UV-I 108 W/m 6,0 C 12,5 C 19,3 km/h (3 Bft)
08.10.2022 16:00 12,3 C 17,8 C 65 % 1024,6 hPa 0,0 l/m 4,5 km/h (1 Bft) W-NW 294 0 min 1,5 UV-I 332 W/m 5,9 C 12,3 C 11,3 km/h (2 Bft)
08.10.2022 16:03 12,6 C 18,9 C 64 % 1024,8 hPa 0,0 l/m 6,1 km/h (2 Bft) W-NW 284 3 min 1,5 UV-I 489 W/m 6,0 C 12,6 C 12,9 km/h (3 Bft)
08.10.2022 16:06 12,7 C 20,6 C 62 % 1024,9 hPa 0,0 l/m 6,1 km/h (2 Bft) W 274 3 min 1,7 UV-I 470 W/m 5,6 C 12,7 C 12,9 km/h (3 Bft)
08.10.2022 16:09 12,8 C 21,1 C 61 % 1024,9 hPa 0,0 l/m 9,5 km/h (2 Bft) W-SW 247 3 min 1,6 UV-I 450 W/m 5,5 C 10,9 C 19,3 km/h (3 Bft)
08.10.2022 16:12 12,9 C 20,6 C 61 % 1024,8 hPa 0,0 l/m 12,4 km/h (3 Bft) SW 232 3 min 1,6 UV-I 429 W/m 5,6 C 9,7 C 22,5 km/h (4 Bft)
08.10.2022 16:15 12,9 C 20,6 C 62 % 1024,9 hPa 0,0 l/m 7,3 km/h (2 Bft) W-NW 292 0 min 1,4 UV-I 377 W/m 5,8 C 12,3 C 16,1 km/h (3 Bft)
08.10.2022 16:18 12,8 C 19,4 C 62 % 1024,8 hPa 0,0 l/m 8,8 km/h (2 Bft) W 280 0 min 0,9 UV-I 381 W/m 5,7 C 11,3 C 16,1 km/h (3 Bft)
08.10.2022 16:21 12,3 C 17,2 C 62 % 1024,8 hPa 0,0 l/m 9,8 km/h (2 Bft) W-SW 257 0 min 1,0 UV-I 204 W/m 5,2 C 10,2 C 14,5 km/h (3 Bft)
08.10.2022 16:24 12,4 C 18,9 C 63 % 1024,7 hPa 0,0 l/m 8,0 km/h (2 Bft) W 267 0 min 1,4 UV-I 375 W/m 5,6 C 11,4 C 17,7 km/h (3 Bft)
08.10.2022 16:27 12,5 C 17,2 C 61 % 1024,8 hPa 0,0 l/m 10,7 km/h (2 Bft) W-NW 286 0 min 1,3 UV-I 339 W/m 5,2 C 10,0 C 19,3 km/h (3 Bft)
08.10.2022 16:30 12,3 C 14,4 C 62 % 1024,7 hPa 0,0 l/m 10,3 km/h (2 Bft) W 267 0 min 1,3 UV-I 339 W/m 5,2 C 10,0 C 20,9 km/h (4 Bft)
08.10.2022 16:33 12,2 C 13,9 C 62 % 1024,8 hPa 0,0 l/m 10,5 km/h (2 Bft) W 266 0 min 1,1 UV-I 366 W/m 5,1 C 9,8 C 20,9 km/h (4 Bft)
08.10.2022 16:36 12,0 C 13,9 C 62 % 1024,8 hPa 0,0 l/m 9,8 km/h (2 Bft) W 267 0 min 0,9 UV-I 366 W/m 4,9 C 9,9 C 16,1 km/h (3 Bft)
08.10.2022 16:39 12,2 C 17,2 C 64 % 1024,8 hPa 0,0 l/m 5,9 km/h (2 Bft) S 189 0 min 1,2 UV-I 351 W/m 5,6 C 12,2 C 12,9 km/h (3 Bft)
08.10.2022 16:42 12,4 C 18,3 C 64 % 1024,7 hPa 0,0 l/m 11,3 km/h (2 Bft) W-SW 252 0 min 1,2 UV-I 339 W/m 5,8 C 9,6 C 17,7 km/h (3 Bft)
08.10.2022 16:45 12,6 C 19,4 C 64 % 1024,8 hPa 0,0 l/m 9,4 km/h (2 Bft) W 261 0 min 1,1 UV-I 330 W/m 6,0 C 10,8 C 17,7 km/h (3 Bft)
08.10.2022 16:48 12,2 C 15,6 C 63 % 1024,9 hPa 0,0 l/m 10,5 km/h (2 Bft) W-SW 258 0 min 0,4 UV-I 166 W/m 5,4 C 9,8 C 19,3 km/h (3 Bft)
08.10.2022 16:51 12,2 C 17,8 C 64 % 1024,9 hPa 0,0 l/m 9,1 km/h (2 Bft) W-SW 258 0 min 1,1 UV-I 309 W/m 5,6 C 10,5 C 17,7 km/h (3 Bft)
08.10.2022 16:54 12,3 C 18,9 C 64 % 1024,9 hPa 0,0 l/m 10,8 km/h (2 Bft) SW 234 0 min 1,0 UV-I 300 W/m 5,7 C 9,7 C 20,9 km/h (4 Bft)
08.10.2022 16:57 12,4 C 20,0 C 64 % 1024,9 hPa 0,0 l/m 8,4 km/h (2 Bft) S 182 0 min 1,0 UV-I 293 W/m 5,8 C 11,1 C 16,1 km/h (3 Bft)
08.10.2022 17:00 12,4 C 20,6 C 62 % 1024,9 hPa 0,0 l/m 7,7 km/h (2 Bft) SW 232 0 min 0,9 UV-I 284 W/m 5,3 C 11,6 C 16,1 km/h (3 Bft)
08.10.2022 17:03 12,2 C 17,2 C 63 % 1024,9 hPa 0,0 l/m 6,6 km/h (2 Bft) W-SW 254 0 min 0,6 UV-I 184 W/m 5,4 C 12,1 C 12,9 km/h (3 Bft)
08.10.2022 17:06 11,8 C 15,6 C 64 % 1024,9 hPa 0,0 l/m 8,3 km/h (2 Bft) W 276 0 min 0,5 UV-I 75 W/m 5,2 C 10,6 C 16,1 km/h (3 Bft)
08.10.2022 17:09 11,5 C 12,8 C 65 % 1024,9 hPa 0,0 l/m 8,0 km/h (2 Bft) W 273 0 min 0,0 UV-I 40 W/m 5,2 C 10,4 C 14,5 km/h (3 Bft)
08.10.2022 17:12 11,2 C 11,7 C 66 % 1025,0 hPa 0,0 l/m 6,7 km/h (2 Bft) W 263 0 min 0,0 UV-I 44 W/m 5,1 C 11,0 C 11,3 km/h (2 Bft)
08.10.2022 17:15 11,0 C 10,6 C 66 % 1025,0 hPa 0,0 l/m 4,9 km/h (1 Bft) W 260 0 min 0,0 UV-I 42 W/m 4,9 C 11,0 C 11,3 km/h (2 Bft)
08.10.2022 17:18 10,8 C 10,6 C 66 % 1024,9 hPa 0,0 l/m 6,3 km/h (2 Bft) W-SW 251 0 min 0,0 UV-I 41 W/m 4,7 C 10,8 C 12,9 km/h (3 Bft)
08.10.2022 17:21 10,7 C 10,0 C 66 % 1025,0 hPa 0,0 l/m 4,9 km/h (1 Bft) W 265 0 min 0,0 UV-I 38 W/m 4,6 C 10,7 C 11,3 km/h (2 Bft)
08.10.2022 17:24 10,7 C 10,0 C 66 % 1025,0 hPa 0,0 l/m 6,6 km/h (2 Bft) SW 220 0 min 0,0 UV-I 39 W/m 4,6 C 10,6 C 11,3 km/h (2 Bft)
08.10.2022 17:27 10,6 C 10,0 C 65 % 1025,0 hPa 0,0 l/m 8,2 km/h (2 Bft) W-SW 258 0 min 0,2 UV-I 44 W/m 4,3 C 9,4 C 19,3 km/h (3 Bft)
08.10.2022 17:30 10,6 C 10,0 C 66 % 1025,0 hPa 0,0 l/m 5,7 km/h (1 Bft) W-SW 250 0 min 0,0 UV-I 38 W/m 4,5 C 10,6 C 9,7 km/h (2 Bft)
08.10.2022 17:33 10,5 C 10,0 C 66 % 1025,0 hPa 0,0 l/m 5,4 km/h (1 Bft) W-NW 284 0 min 0,0 UV-I 38 W/m 4,4 C 10,5 C 12,9 km/h (3 Bft)
08.10.2022 17:36 10,4 C 10,6 C 67 % 1025,1 hPa 0,0 l/m 5,4 km/h (1 Bft) W-SW 244 0 min 0,2 UV-I 84 W/m 4,5 C 10,4 C 9,7 km/h (2 Bft)
08.10.2022 17:39 10,6 C 15,0 C 67 % 1025,0 hPa 0,0 l/m 3,5 km/h (1 Bft) SW 234 0 min 0,5 UV-I 173 W/m 4,7 C 10,6 C 6,4 km/h (2 Bft)
08.10.2022 17:42 10,8 C 17,2 C 67 % 1025,1 hPa 0,0 l/m 4,0 km/h (1 Bft) W-SW 244 0 min 0,5 UV-I 159 W/m 4,9 C 10,8 C 8,0 km/h (2 Bft)
08.10.2022 17:45 11,1 C 18,3 C 67 % 1025,1 hPa 0,0 l/m 3,7 km/h (1 Bft) W-SW 252 0 min 0,1 UV-I 150 W/m 5,2 C 11,1 C 6,4 km/h (2 Bft)
08.10.2022 17:48 11,1 C 18,9 C 67 % 1025,1 hPa 0,0 l/m 2,3 km/h (1 Bft) W-SW 251 0 min 0,0 UV-I 139 W/m 5,2 C 11,1 C 4,8 km/h (1 Bft)
08.10.2022 17:51 11,2 C 18,9 C 67 % 1025,1 hPa 0,0 l/m 3,1 km/h (1 Bft) W-SW 241 0 min 0,0 UV-I 129 W/m 5,3 C 11,2 C 8,0 km/h (2 Bft)
08.10.2022 17:54 11,2 C 18,3 C 67 % 1025,2 hPa 0,0 l/m 4,7 km/h (1 Bft) W-SW 246 0 min 0,0 UV-I 118 W/m 5,3 C 11,2 C 11,3 km/h (2 Bft)
08.10.2022 17:57 11,1 C 17,8 C 67 % 1025,2 hPa 0,0 l/m 4,5 km/h (1 Bft) W 266 0 min 0,0 UV-I 109 W/m 5,2 C 11,1 C 6,4 km/h (2 Bft)
08.10.2022 18:00 11,1 C 17,2 C 67 % 1025,1 hPa 0,0 l/m 4,8 km/h (1 Bft) W 267 0 min 0,0 UV-I 92 W/m 5,2 C 11,1 C 9,7 km/h (2 Bft)
08.10.2022 18:03 11,0 C 16,1 C 66 % 1025,3 hPa 0,0 l/m 7,0 km/h (2 Bft) W-SW 248 0 min 0,0 UV-I 90 W/m 4,9 C 10,6 C 16,1 km/h (3 Bft)
08.10.2022 18:06 10,9 C 15,6 C 66 % 1025,2 hPa 0,0 l/m 4,6 km/h (1 Bft) W-SW 250 0 min 0,0 UV-I 82 W/m 4,8 C 10,9 C 6,4 km/h (2 Bft)
08.10.2022 18:09 10,9 C 15,0 C 66 % 1025,3 hPa 0,0 l/m 4,1 km/h (1 Bft) W-SW 251 0 min 0,0 UV-I 75 W/m 4,8 C 10,9 C 9,7 km/h (2 Bft)
08.10.2022 18:12 10,8 C 12,8 C 65 % 1025,3 hPa 0,0 l/m 5,6 km/h (1 Bft) W 265 0 min 0,0 UV-I 67 W/m 4,5 C 10,8 C 11,3 km/h (2 Bft)
08.10.2022 18:15 10,6 C 11,1 C 65 % 1025,2 hPa 0,0 l/m 5,5 km/h (1 Bft) W 266 0 min 0,0 UV-I 60 W/m 4,3 C 10,6 C 9,7 km/h (2 Bft)
08.10.2022 18:18 10,4 C 9,4 C 66 % 1025,3 hPa 0,0 l/m 4,1 km/h (1 Bft) W-SW 244 0 min 0,0 UV-I 36 W/m 4,3 C 10,4 C 11,3 km/h (2 Bft)
08.10.2022 18:21 10,3 C 8,9 C 67 % 1025,3 hPa 0,0 l/m 2,3 km/h (1 Bft) W-SW 255 0 min 0,0 UV-I 20 W/m 4,4 C 10,3 C 4,8 km/h (1 Bft)
08.10.2022 18:24 10,2 C 8,3 C 67 % 1025,4 hPa 0,0 l/m 2,9 km/h (1 Bft) S-SW 213 0 min 0,0 UV-I 19 W/m 4,4 C 10,2 C 6,4 km/h (2 Bft)
08.10.2022 18:27 10,0 C 7,8 C 68 % 1025,4 hPa 0,0 l/m 2,4 km/h (1 Bft) W 275 0 min 0,0 UV-I 18 W/m 4,4 C 10,0 C 6,4 km/h (2 Bft)
08.10.2022 18:30 9,9 C 7,8 C 68 % 1025,5 hPa 0,0 l/m 3,4 km/h (1 Bft) W-SW 246 0 min 0,0 UV-I 17 W/m 4,3 C 9,9 C 6,4 km/h (2 Bft)
08.10.2022 18:33 9,8 C 7,8 C 68 % 1025,4 hPa 0,0 l/m 4,1 km/h (1 Bft) W-SW 245 0 min 0,0 UV-I 15 W/m 4,2 C 9,8 C 11,3 km/h (2 Bft)
08.10.2022 18:36 9,6 C 7,2 C 69 % 1025,5 hPa 0,0 l/m 2,0 km/h (1 Bft) W-SW 245 0 min 0,0 UV-I 14 W/m 4,2 C 9,6 C 3,2 km/h (1 Bft)
08.10.2022 18:39 9,5 C 6,7 C 69 % 1025,5 hPa 0,0 l/m 2,3 km/h (1 Bft) W-SW 242 0 min 0,0 UV-I 12 W/m 4,1 C 9,5 C 4,8 km/h (1 Bft)
08.10.2022 18:42 9,3 C 6,1 C 70 % 1025,6 hPa 0,0 l/m 1,7 km/h (1 Bft) W-SW 242 0 min 0,0 UV-I 12 W/m 4,1 C 9,3 C 4,8 km/h (1 Bft)
08.10.2022 18:45 9,2 C 6,1 C 70 % 1025,6 hPa 0,0 l/m 2,3 km/h (1 Bft) W-SW 242 0 min 0,0 UV-I 11 W/m 4,0 C 9,2 C 4,8 km/h (1 Bft)
08.10.2022 18:48 9,0 C 6,1 C 71 % 1025,7 hPa 0,0 l/m 2,4 km/h (1 Bft) W-SW 242 0 min 0,0 UV-I 9 W/m 4,0 C 9,0 C 4,8 km/h (1 Bft)
08.10.2022 18:51 8,9 C 5,6 C 71 % 1025,8 hPa 0,0 l/m 2,9 km/h (1 Bft) W-SW 242 0 min 0,0 UV-I 7 W/m 3,9 C 8,9 C 4,8 km/h (1 Bft)
08.10.2022 18:54 8,7 C 5,6 C 72 % 1025,8 hPa 0,0 l/m 2,7 km/h (1 Bft) W-SW 242 0 min 0,0 UV-I 6 W/m 3,9 C 8,7 C 4,8 km/h (1 Bft)
08.10.2022 18:57 8,6 C 5,0 C 72 % 1025,8 hPa 0,0 l/m 3,6 km/h (1 Bft) W-SW 242 0 min 0,0 UV-I 5 W/m 3,8 C 8,6 C 6,4 km/h (2 Bft)
08.10.2022 19:00 8,4 C 5,0 C 73 % 1025,9 hPa 0,0 l/m 2,8 km/h (1 Bft) W-SW 242 0 min 0,0 UV-I 1 W/m 3,8 C 8,4 C 4,8 km/h (1 Bft)
08.10.2022 19:03 8,3 C 5,0 C 73 % 1025,9 hPa 0,0 l/m 2,6 km/h (1 Bft) W-SW 242 0 min 0,0 UV-I 0 W/m 3,8 C 8,3 C 4,8 km/h (1 Bft)
08.10.2022 19:06 8,2 C 4,4 C 74 % 1026,0 hPa 0,0 l/m 3,2 km/h (1 Bft) W-SW 242 0 min 0,0 UV-I 0 W/m 3,8 C 8,2 C 4,8 km/h (1 Bft)
08.10.2022 19:09 8,1 C 4,4 C 74 % 1025,9 hPa 0,0 l/m 2,8 km/h (1 Bft) W-SW 242 0 min 0,0 UV-I 0 W/m 3,8 C 8,1 C 4,8 km/h (1 Bft)
08.10.2022 19:12 8,0 C 4,4 C 74 % 1026,1 hPa 0,0 l/m 3,0 km/h (1 Bft) W-SW 242 0 min 0,0 UV-I 0 W/m 3,7 C 8,0 C 4,8 km/h (1 Bft)
08.10.2022 19:15 7,6 C 3,9 C 75 % 1026,1 hPa 0,0 l/m 2,7 km/h (1 Bft) W-SW 242 0 min 0,0 UV-I 0 W/m 3,5 C 7,6 C 4,8 km/h (1 Bft)
08.10.2022 19:18 7,2 C 3,9 C 77 % 1026,2 hPa 0,0 l/m 2,3 km/h (1 Bft) W-SW 242 0 min 0,0 UV-I 0 W/m 3,4 C 7,2 C 3,2 km/h (1 Bft)
08.10.2022 19:21 6,9 C 3,3 C 78 % 1026,2 hPa 0,0 l/m 2,5 km/h (1 Bft) W-SW 242 0 min 0,0 UV-I 0 W/m 3,3 C 6,9 C 3,2 km/h (1 Bft)
08.10.2022 19:24 6,9 C 3,3 C 78 % 1026,3 hPa 0,0 l/m 3,3 km/h (1 Bft) W-SW 242 0 min 0,0 UV-I 0 W/m 3,3 C 6,9 C 4,8 km/h (1 Bft)
08.10.2022 19:27 6,8 C 3,9 C 79 % 1026,3 hPa 0,0 l/m 3,0 km/h (1 Bft) W-SW 242 0 min 0,0 UV-I 0 W/m 3,4 C 6,8 C 4,8 km/h (1 Bft)
08.10.2022 19:30 6,8 C 3,3 C 79 % 1026,3 hPa 0,0 l/m 1,9 km/h (1 Bft) W-SW 242 0 min 0,0 UV-I 0 W/m 3,4 C 6,8 C 3,2 km/h (1 Bft)
08.10.2022 19:33 6,5 C 3,3 C 79 % 1026,4 hPa 0,0 l/m 0,5 km/h (0 Bft) W-SW 242 0 min 0,0 UV-I 0 W/m 3,1 C 6,5 C 3,2 km/h (1 Bft)
08.10.2022 19:36 5,9 C 2,8 C 80 % 1026,5 hPa 0,0 l/m 0,0 km/h (0 Bft) W-SW 242 0 min 0,0 UV-I 0 W/m 2,7 C 5,9 C 0,0 km/h (0 Bft)
08.10.2022 19:39 5,6 C 2,8 C 81 % 1026,5 hPa 0,0 l/m 0,0 km/h (0 Bft) W-SW 242 0 min 0,0 UV-I 0 W/m 2,6 C 5,6 C 0,0 km/h (0 Bft)
08.10.2022 19:42 5,6 C 2,8 C 82 % 1026,6 hPa 0,0 l/m 0,0 km/h (0 Bft) W-SW 242 0 min 0,0 UV-I 0 W/m 2,8 C 5,6 C 0,0 km/h (0 Bft)
08.10.2022 19:45 5,5 C 2,8 C 82 % 1026,7 hPa 0,0 l/m 0,0 km/h (0 Bft) W-SW 242 0 min 0,0 UV-I 0 W/m 2,7 C 5,5 C 0,0 km/h (0 Bft)
08.10.2022 19:48 5,6 C 2,8 C 83 % 1026,8 hPa 0,0 l/m 0,9 km/h (0 Bft) W-SW 242 0 min 0,0 UV-I 0 W/m 2,9 C 5,6 C 3,2 km/h (1 Bft)
08.10.2022 19:51 5,7 C 2,8 C 83 % 1026,8 hPa 0,0 l/m 0,0 km/h (0 Bft) W-SW 242 0 min 0,0 UV-I 0 W/m 3,0 C 5,7 C 1,6 km/h (1 Bft)
08.10.2022 19:54 5,8 C 2,8 C 83 % 1026,8 hPa 0,0 l/m 0,0 km/h (0 Bft) W-SW 242 0 min 0,0 UV-I 0 W/m 3,1 C 5,8 C 0,0 km/h (0 Bft)
08.10.2022 19:57 5,9 C 2,8 C 82 % 1026,9 hPa 0,0 l/m 0,0 km/h (0 Bft) W-SW 242 0 min 0,0 UV-I 0 W/m 3,1 C 5,9 C 0,0 km/h (0 Bft)
08.10.2022 20:00 5,9 C 2,8 C 82 % 1026,9 hPa 0,0 l/m 0,0 km/h (0 Bft) W-SW 242 0 min 0,0 UV-I 0 W/m 3,1 C 5,9 C 0,0 km/h (0 Bft)
08.10.2022 20:03 5,6 C 2,8 C 82 % 1026,9 hPa 0,0 l/m 0,0 km/h (0 Bft) W-SW 242 0 min 0,0 UV-I 0 W/m 2,8 C 5,6 C 0,0 km/h (0 Bft)
08.10.2022 20:06 5,2 C 2,2 C 83 % 1027,0 hPa 0,0 l/m 0,0 km/h (0 Bft) W-SW 242 0 min 0,0 UV-I 0 W/m 2,6 C 5,2 C 0,0 km/h (0 Bft)
08.10.2022 20:09 5,1 C 2,2 C 84 % 1027,0 hPa 0,0 l/m 0,0 km/h (0 Bft) W-SW 242 0 min 0,0 UV-I 0 W/m 2,6 C 5,1 C 0,0 km/h (0 Bft)
08.10.2022 20:12 4,9 C 2,2 C 84 % 1027,1 hPa 0,0 l/m 0,4 km/h (0 Bft) W-SW 242 0 min 0,0 UV-I 0 W/m 2,4 C 4,9 C 1,6 km/h (1 Bft)
08.10.2022 20:15 5,1 C 2,2 C 85 % 1027,1 hPa 0,0 l/m 0,2 km/h (0 Bft) W-SW 242 0 min 0,0 UV-I 0 W/m 2,8 C 5,1 C 1,6 km/h (1 Bft)
08.10.2022 20:18 5,2 C 2,2 C 85 % 1027,2 hPa 0,0 l/m 0,0 km/h (0 Bft) W-SW 242 0 min 0,0 UV-I 0 W/m 2,9 C 5,2 C 0,0 km/h (0 Bft)
08.10.2022 20:21 4,8 C 2,2 C 83 % 1027,2 hPa 0,0 l/m 0,0 km/h (0 Bft) W-SW 242 0 min 0,0 UV-I 0 W/m 2,2 C 4,8 C 0,0 km/h (0 Bft)
08.10.2022 20:24 4,6 C 1,7 C 85 % 1027,2 hPa 0,0 l/m 0,0 km/h (0 Bft) W-SW 242 0 min 0,0 UV-I 0 W/m 2,3 C 4,6 C 0,0 km/h (0 Bft)
08.10.2022 20:27 4,4 C 1,7 C 85 % 1027,2 hPa 0,0 l/m 0,0 km/h (0 Bft) W-SW 242 0 min 0,0 UV-I 0 W/m 2,1 C 4,4 C 0,0 km/h (0 Bft)
08.10.2022 20:30 4,3 C 1,7 C 85 % 1027,4 hPa 0,0 l/m 0,0 km/h (0 Bft) W-SW 242 0 min 0,0 UV-I 0 W/m 2,0 C 4,3 C 0,0 km/h (0 Bft)
08.10.2022 20:33 4,3 C 1,7 C 86 % 1027,3 hPa 0,0 l/m 0,0 km/h (0 Bft) W-SW 242 0 min 0,0 UV-I 0 W/m 2,2 C 4,3 C 0,0 km/h (0 Bft)
08.10.2022 20:36 4,3 C 1,7 C 86 % 1027,3 hPa 0,0 l/m 0,1 km/h (0 Bft) W-SW 242 0 min 0,0 UV-I 0 W/m 2,2 C 4,3 C 1,6 km/h (1 Bft)
08.10.2022 20:39 4,2 C 1,7 C 87 % 1027,3 hPa 0,0 l/m 0,1 km/h (0 Bft) W-SW 242 0 min 0,0 UV-I 0 W/m 2,2 C 4,2 C 1,6 km/h (1 Bft)
08.10.2022 20:42 4,6 C 2,2 C 87 % 1027,3 hPa 0,0 l/m 0,0 km/h (0 Bft) W-SW 242 0 min 0,0 UV-I 0 W/m 2,6 C 4,6 C 0,0 km/h (0 Bft)
08.10.2022 20:45 4,8 C 2,2 C 87 % 1027,4 hPa 0,0 l/m 0,0 km/h (0 Bft) W-SW 242 0 min 0,0 UV-I 0 W/m 2,8 C 4,8 C 0,0 km/h (0 Bft)
08.10.2022 20:48 4,6 C 1,7 C 86 % 1027,4 hPa 0,0 l/m 0,0 km/h (0 Bft) W-SW 242 0 min 0,0 UV-I 0 W/m 2,5 C 4,6 C 0,0 km/h (0 Bft)
08.10.2022 20:51 4,4 C 1,7 C 86 % 1027,3 hPa 0,0 l/m 0,1 km/h (0 Bft) W-SW 242 0 min 0,0 UV-I 0 W/m 2,3 C 4,4 C 1,6 km/h (1 Bft)
08.10.2022 20:54 4,2 C 1,7 C 86 % 1027,4 hPa 0,0 l/m 0,1 km/h (0 Bft) W-SW 242 0 min 0,0 UV-I 0 W/m 2,1 C 4,2 C 1,6 km/h (1 Bft)
08.10.2022 20:57 3,9 C 1,7 C 86 % 1027,4 hPa 0,0 l/m 0,0 km/h (0 Bft) W-SW 242 0 min 0,0 UV-I 0 W/m 1,8 C 3,9 C 0,0 km/h (0 Bft)
08.10.2022 21:00 3,7 C 1,1 C 87 % 1027,4 hPa 0,0 l/m 0,0 km/h (0 Bft) W-SW 242 0 min 0,0 UV-I 0 W/m 1,7 C 3,7 C 1,6 km/h (1 Bft)
08.10.2022 21:03 3,4 C 1,7 C 87 % 1027,4 hPa 0,0 l/m 0,7 km/h (0 Bft) W-SW 242 0 min 0,0 UV-I 0 W/m 1,4 C 3,4 C 3,2 km/h (1 Bft)
08.10.2022 21:06 3,4 C 1,1 C 87 % 1027,4 hPa 0,0 l/m 1,7 km/h (1 Bft) W-SW 242 0 min 0,0 UV-I 0 W/m 1,4 C 3,4 C 3,2 km/h (1 Bft)
08.10.2022 21:09 3,1 C 1,1 C 87 % 1027,5 hPa 0,0 l/m 0,2 km/h (0 Bft) W-SW 242 0 min 0,0 UV-I 0 W/m 1,2 C 3,1 C 1,6 km/h (1 Bft)
08.10.2022 21:12 3,0 C 1,1 C 88 % 1027,5 hPa 0,0 l/m 1,2 km/h (1 Bft) W-SW 242 0 min 0,0 UV-I 0 W/m 1,2 C 3,0 C 3,2 km/h (1 Bft)
08.10.2022 21:15 3,2 C 1,1 C 88 % 1027,4 hPa 0,0 l/m 2,1 km/h (1 Bft) W-SW 242 0 min 0,0 UV-I 0 W/m 1,4 C 3,2 C 3,2 km/h (1 Bft)
08.10.2022 21:18 3,6 C 1,1 C 89 % 1027,4 hPa 0,0 l/m 0,5 km/h (0 Bft) W-SW 242 0 min 0,0 UV-I 0 W/m 2,0 C 3,6 C 3,2 km/h (1 Bft)
08.10.2022 21:21 3,8 C 1,1 C 89 % 1027,4 hPa 0,0 l/m 0,0 km/h (0 Bft) W-SW 242 0 min 0,0 UV-I 0 W/m 2,2 C 3,8 C 0,0 km/h (0 Bft)
08.10.2022 21:24 3,6 C 1,1 C 88 % 1027,5 hPa 0,0 l/m 0,0 km/h (0 Bft) W-SW 242 0 min 0,0 UV-I 0 W/m 1,8 C 3,6 C 0,0 km/h (0 Bft)
08.10.2022 21:27 3,3 C 1,1 C 88 % 1027,6 hPa 0,0 l/m 0,0 km/h (0 Bft) W-SW 242 0 min 0,0 UV-I 0 W/m 1,5 C 3,3 C 0,0 km/h (0 Bft)
08.10.2022 21:30 3,1 C 0,6 C 88 % 1027,5 hPa 0,0 l/m 0,0 km/h (0 Bft) W-SW 242 0 min 0,0 UV-I 0 W/m 1,3 C 3,1 C 0,0 km/h (0 Bft)
08.10.2022 21:33 3,0 C 0,6 C 88 % 1027,5 hPa 0,0 l/m 0,0 km/h (0 Bft) W-SW 242 0 min 0,0 UV-I 0 W/m 1,2 C 3,0 C 0,0 km/h (0 Bft)
08.10.2022 21:36 2,9 C 0,6 C 88 % 1027,6 hPa 0,0 l/m 0,0 km/h (0 Bft) W-SW 242 0 min 0,0 UV-I 0 W/m 1,1 C 2,9 C 0,0 km/h (0 Bft)
08.10.2022 21:39 3,0 C 1,1 C 89 % 1027,6 hPa 0,0 l/m 0,0 km/h (0 Bft) W-SW 242 0 min 0,0 UV-I 0 W/m 1,4 C 3,0 C 1,6 km/h (1 Bft)
08.10.2022 21:42 2,8 C 0,6 C 88 % 1027,5 hPa 0,0 l/m 0,5 km/h (0 Bft) W-SW 242 0 min 0,0 UV-I 0 W/m 1,0 C 2,8 C 1,6 km/h (1 Bft)
08.10.2022 21:45 2,8 C 0,6 C 89 % 1027,7 hPa 0,0 l/m 0,6 km/h (0 Bft) W-SW 242 0 min 0,0 UV-I 0 W/m 1,2 C 2,8 C 1,6 km/h (1 Bft)
08.10.2022 21:48 2,8 C 0,6 C 89 % 1027,6 hPa 0,0 l/m 1,0 km/h (0 Bft) W-SW 242 0 min 0,0 UV-I 0 W/m 1,2 C 2,8 C 1,6 km/h (1 Bft)
08.10.2022 21:51 2,7 C 0,6 C 89 % 1027,7 hPa 0,0 l/m 0,1 km/h (0 Bft) W-SW 242 0 min 0,0 UV-I 0 W/m 1,1 C 2,7 C 1,6 km/h (1 Bft)
08.10.2022 21:54 2,4 C 0,0 C 89 % 1027,7 hPa 0,0 l/m 0,0 km/h (0 Bft) W-SW 242 0 min 0,0 UV-I 0 W/m 0,8 C 2,4 C 1,6 km/h (1 Bft)
08.10.2022 21:57 2,4 C 0,6 C 89 % 1027,7 hPa 0,0 l/m 0,3 km/h (0 Bft) W-SW 242 0 min 0,0 UV-I 0 W/m 0,8 C 2,4 C 1,6 km/h (1 Bft)
08.10.2022 22:00 2,6 C 0,6 C 90 % 1027,7 hPa 0,0 l/m 0,1 km/h (0 Bft) W-SW 242 0 min 0,0 UV-I 0 W/m 1,1 C 2,6 C 1,6 km/h (1 Bft)
08.10.2022 22:03 2,8 C 0,6 C 90 % 1027,7 hPa 0,0 l/m 0,0 km/h (0 Bft) W-SW 242 0 min 0,0 UV-I 0 W/m 1,3 C 2,8 C 0,0 km/h (0 Bft)
08.10.2022 22:06 2,7 C 0,6 C 90 % 1027,8 hPa 0,0 l/m 0,0 km/h (0 Bft) W-SW 242 0 min 0,0 UV-I 0 W/m 1,2 C 2,7 C 0,0 km/h (0 Bft)
08.10.2022 22:09 2,6 C 0,0 C 89 % 1027,7 hPa 0,0 l/m 0,0 km/h (0 Bft) W-SW 242 0 min 0,0 UV-I 0 W/m 1,0 C 2,6 C 0,0 km/h (0 Bft)
08.10.2022 22:12 2,3 C 0,0 C 89 % 1027,9 hPa 0,0 l/m 0,0 km/h (0 Bft) W-SW 242 0 min 0,0 UV-I 0 W/m 0,7 C 2,3 C 0,0 km/h (0 Bft)
08.10.2022 22:15 2,2 C 0,0 C 89 % 1027,8 hPa 0,0 l/m 0,0 km/h (0 Bft) W-SW 242 0 min 0,0 UV-I 0 W/m 0,6 C 2,2 C 0,0 km/h (0 Bft)
08.10.2022 22:18 2,2 C 0,0 C 90 % 1027,8 hPa 0,0 l/m 0,0 km/h (0 Bft) W-SW 242 0 min 0,0 UV-I 0 W/m 0,7 C 2,2 C 0,0 km/h (0 Bft)
08.10.2022 22:21 2,3 C 0,0 C 90 % 1027,8 hPa 0,0 l/m 0,0 km/h (0 Bft) W-SW 242 0 min 0,0 UV-I 0 W/m 0,8 C 2,3 C 0,0 km/h (0 Bft)
08.10.2022 22:24 2,2 C 0,0 C 90 % 1028,0 hPa 0,0 l/m 0,0 km/h (0 Bft) W-SW 242 0 min 0,0 UV-I 0 W/m 0,7 C 2,2 C 0,0 km/h (0 Bft)
08.10.2022 22:27 1,9 C -0,6 C 89 % 1027,8 hPa 0,0 l/m 0,0 km/h (0 Bft) W-SW 242 0 min 0,0 UV-I 0 W/m 0,3 C 1,9 C 0,0 km/h (0 Bft)
08.10.2022 22:30 2,0 C 0,0 C 90 % 1027,9 hPa 0,0 l/m 0,1 km/h (0 Bft) W-SW 242 0 min 0,0 UV-I 0 W/m 0,5 C 2,0 C 1,6 km/h (1 Bft)
08.10.2022 22:33 2,1 C 0,0 C 90 % 1028,0 hPa 0,0 l/m 0,3 km/h (0 Bft) W-SW 242 0 min 0,0 UV-I 0 W/m 0,6 C 2,1 C 1,6 km/h (1 Bft)
08.10.2022 22:36 1,8 C -0,6 C 90 % 1028,0 hPa 0,0 l/m 0,7 km/h (0 Bft) W-SW 242 0 min 0,0 UV-I 0 W/m 0,3 C 1,8 C 1,6 km/h (1 Bft)
08.10.2022 22:39 1,4 C -0,6 C 89 % 1027,9 hPa 0,0 l/m 0,4 km/h (0 Bft) W-SW 242 0 min 0,0 UV-I 0 W/m -0,2 C 1,4 C 1,6 km/h (1 Bft)
08.10.2022 22:42 1,5 C -0,6 C 90 % 1027,9 hPa 0,0 l/m 0,5 km/h (0 Bft) W-SW 242 0 min 0,0 UV-I 0 W/m 0,0 C 1,5 C 1,6 km/h (1 Bft)
08.10.2022 22:45 1,7 C -0,6 C 91 % 1027,9 hPa 0,0 l/m 0,0 km/h (0 Bft) W-SW 242 0 min 0,0 UV-I 0 W/m 0,4 C 1,7 C 0,0 km/h (0 Bft)
08.10.2022 22:48 1,9 C -0,6 C 90 % 1028,0 hPa 0,0 l/m 0,2 km/h (0 Bft) W-SW 242 0 min 0,0 UV-I 0 W/m 0,4 C 1,9 C 1,6 km/h (1 Bft)
08.10.2022 22:51 2,1 C 0,0 C 91 % 1028,1 hPa 0,0 l/m 0,0 km/h (0 Bft) W-SW 242 0 min 0,0 UV-I 0 W/m 0,8 C 2,1 C 0,0 km/h (0 Bft)
08.10.2022 22:54 2,2 C 0,0 C 91 % 1028,1 hPa 0,0 l/m 0,0 km/h (0 Bft) W-SW 242 0 min 0,0 UV-I 0 W/m 0,9 C 2,2 C 0,0 km/h (0 Bft)
08.10.2022 22:57 2,0 C -0,6 C 90 % 1028,0 hPa 0,0 l/m 0,0 km/h (0 Bft) W-SW 242 0 min 0,0 UV-I 0 W/m 0,5 C 2,0 C 0,0 km/h (0 Bft)
08.10.2022 23:00 2,1 C 0,0 C 91 % 1028,1 hPa 0,0 l/m 0,0 km/h (0 Bft) W-SW 242 0 min 0,0 UV-I 0 W/m 0,8 C 2,1 C 0,0 km/h (0 Bft)
08.10.2022 23:03 2,0 C 0,0 C 90 % 1028,1 hPa 0,0 l/m 0,0 km/h (0 Bft) W-SW 242 0 min 0,0 UV-I 0 W/m 0,5 C 2,0 C 0,0 km/h (0 Bft)
08.10.2022 23:06 1,9 C -0,6 C 90 % 1028,0 hPa 0,0 l/m 0,0 km/h (0 Bft) W-SW 242 0 min 0,0 UV-I 0 W/m 0,4 C 1,9 C 0,0 km/h (0 Bft)
08.10.2022 23:09 1,7 C -0,6 C 90 % 1028,1 hPa 0,0 l/m 0,0 km/h (0 Bft) W-SW 242 0 min 0,0 UV-I 0 W/m 0,2 C 1,7 C 0,0 km/h (0 Bft)
08.10.2022 23:12 1,4 C -0,6 C 90 % 1028,0 hPa 0,0 l/m 0,0 km/h (0 Bft) W-SW 242 0 min 0,0 UV-I 0 W/m -0,1 C 1,4 C 0,0 km/h (0 Bft)
08.10.2022 23:15 1,3 C -0,6 C 90 % 1028,1 hPa 0,0 l/m 0,0 km/h (0 Bft) W-SW 242 0 min 0,0 UV-I 0 W/m -0,2 C 1,3 C 0,0 km/h (0 Bft)
08.10.2022 23:18 1,2 C -0,6 C 90 % 1028,2 hPa 0,0 l/m 0,0 km/h (0 Bft) W-SW 242 0 min 0,0 UV-I 0 W/m -0,3 C 1,2 C 0,0 km/h (0 Bft)
08.10.2022 23:21 1,2 C -0,6 C 90 % 1028,1 hPa 0,0 l/m 0,6 km/h (0 Bft) W-SW 242 0 min 0,0 UV-I 0 W/m -0,3 C 1,2 C 3,2 km/h (1 Bft)
08.10.2022 23:24 1,1 C -0,6 C 91 % 1028,2 hPa 0,0 l/m 2,8 km/h (1 Bft) W-SW 242 0 min 0,0 UV-I 0 W/m -0,2 C 1,1 C 3,2 km/h (1 Bft)
08.10.2022 23:27 1,3 C -0,6 C 91 % 1028,1 hPa 0,0 l/m 0,6 km/h (0 Bft) W-SW 242 0 min 0,0 UV-I 0 W/m -0,0 C 1,3 C 3,2 km/h (1 Bft)
08.10.2022 23:30 1,2 C -0,6 C 90 % 1028,1 hPa 0,0 l/m 0,5 km/h (0 Bft) W-SW 242 0 min 0,0 UV-I 0 W/m -0,3 C 1,2 C 1,6 km/h (1 Bft)
08.10.2022 23:33 0,9 C -1,1 C 91 % 1028,2 hPa 0,0 l/m 1,2 km/h (1 Bft) W-SW 242 0 min 0,0 UV-I 0 W/m -0,4 C 0,9 C 3,2 km/h (1 Bft)
08.10.2022 23:36 0,8 C -1,1 C 90 % 1028,2 hPa 0,0 l/m 0,4 km/h (0 Bft) W-SW 242 0 min 0,0 UV-I 0 W/m -0,6 C 0,8 C 1,6 km/h (1 Bft)
08.10.2022 23:39 0,9 C -0,6 C 91 % 1028,2 hPa 0,0 l/m 0,0 km/h (0 Bft) W-SW 242 0 min 0,0 UV-I 0 W/m -0,4 C 0,9 C 0,0 km/h (0 Bft)
08.10.2022 23:42 0,9 C -1,1 C 91 % 1028,1 hPa 0,0 l/m 0,0 km/h (0 Bft) W-SW 242 0 min 0,0 UV-I 0 W/m -0,4 C 0,9 C 0,0 km/h (0 Bft)
08.10.2022 23:45 1,1 C -0,6 C 91 % 1028,1 hPa 0,0 l/m 2,2 km/h (1 Bft) W-SW 242 0 min 0,0 UV-I 0 W/m -0,2 C 1,1 C 4,8 km/h (1 Bft)
08.10.2022 23:48 1,2 C -1,1 C 91 % 1028,2 hPa 0,0 l/m 0,8 km/h (0 Bft) W-SW 242 0 min 0,0 UV-I 0 W/m -0,1 C 1,2 C 3,2 km/h (1 Bft)
08.10.2022 23:51 0,6 C -1,1 C 90 % 1028,2 hPa 0,0 l/m 1,7 km/h (1 Bft) W-SW 242 0 min 0,0 UV-I 0 W/m -0,8 C 0,6 C 3,2 km/h (1 Bft)
08.10.2022 23:54 0,4 C -1,1 C 91 % 1028,2 hPa 0,0 l/m 0,2 km/h (0 Bft) W-SW 242 0 min 0,0 UV-I 0 W/m -0,9 C 0,4 C 1,6 km/h (1 Bft)
08.10.2022 23:57 0,4 C -1,1 C 91 % 1028,2 hPa 0,0 l/m 0,0 km/h (0 Bft) W-SW 242 0 min 0,0 UV-I 0 W/m -0,9 C 0,4 C 0,0 km/h (0 Bft)
08.10.2022 23:58 0,4 C -1,1 C 91 % 1028,1 hPa 0,0 l/m 0,0 km/h (0 Bft) N 0 0 min 0,0 UV-I 0 W/m -0,9 C 0,4 C 0,0 km/h (0 Bft)
08.10.2022 23:59 0,5 C -1,1 C 91 % 1028,2 hPa 0,0 l/m 0,0 km/h (0 Bft) N 0 0 min 0,0 UV-I 0 W/m -0,8 C 0,5 C 0,0 km/h (0 Bft)
_ Min-Zeit 23:54 23:33 16:09 04:41 - 04:58 - - - - - 23:54 23:54 05:34
Minimum _ 0,4 C -1,1 C 61 % 1020,4 hPa - 0,0 km/h (0 Bft) - - - - - -0,9 C 0,4 C 0,0 km/h (0 Bft)
_ Max-Zeit 14:39 14:54 09:33 23:18 10:06 13:27 - - 11:42 12:36 12:51 11:09 12:54 14:24
Maximum _ 13,9 C 23,9 C 93 % 1028,2 hPa 0,2 l/m 14,3 km/h
W-SW (3 Bft)
- - 3 min 2,8 UV-I 757 W/m 9,3 C 13,3 C 27,4 km/h
W (4 Bft)
Durchschnitt _ 7,8 C 7,9 C 83 % 1023,6 hPa #0,4 l/m 5,2 km/h (1 Bft) SW - #2:27 h 1,6 UV-I 210 W/m 4,9 C 7,2 C 9,0 km/h (2 Bft)